[[{"header":{"parameterUnit":"m.s-1","parameterCategory":1,"la1":30.6,"la2":29.2853,"lo1":-89.7004,"lo2":-87.6739,"dy":0.0162,"dx":0.0183,"nx":112,"ny":82,"refTime":"2024-03-01T18:00:00:Z","depth":0,"parameterNumber":2,"parameterNumberName":"U-component_of_WINDS"},"data":[0.0,0.0,0.0,0.0,0.0,0.0,0.0,0.0,0.0,0.0,0.0,0.0,0.0,0.0,0.0,0.0,0.0,0.0,0.0,0.0,0.0,0.0,0.0,0.0,0.0,0.0,0.0,0.0,0.0,0.0,0.0,0.0,0.0,0.0,0.0,0.0,0.0,0.0,0.0,0.0,0.0,0.0,0.0,0.0,0.0,0.0,0.0,0.0,0.0,0.0,0.0,0.0,0.0,0.0,0.0,0.0,0.0,0.0,0.0,0.0,0.0,0.0,0.0,0.0,0.0,0.0,0.0,0.0,0.0,0.0,0.0,0.0,0.0,0.0,0.0,0.0,0.0,0.0,0.0,0.0,0.0,0.0,0.0,0.0,0.0,0.0,0.0,0.0,0.0,0.0,-2.474,-2.672,-3.0341,-3.2657,-3.2794,-3.334,-3.2464,-2.9665,0.0,0.0,0.0,0.0,0.0,0.0,0.0,0.0,0.0,0.0,0.0,0.0,0.0,0.0,0.0,0.0,0.0,0.0,0.0,0.0,0.0,0.0,0.0,0.0,0.0,0.0,0.0,0.0,0.0,0.0,0.0,0.0,0.0,0.0,0.0,0.0,0.0,0.0,0.0,0.0,0.0,0.0,0.0,0.0,0.0,0.0,0.0,0.0,0.0,0.0,0.0,0.0,0.0,0.0,0.0,0.0,0.0,0.0,0.0,0.0,0.0,0.0,0.0,0.0,0.0,0.0,0.0,0.0,0.0,0.0,0.0,0.0,0.0,0.0,0.0,0.0,0.0,0.0,0.0,0.0,0.0,0.0,0.0,0.0,0.0,0.0,0.0,0.0,0.0,0.0,0.0,0.0,0.0,0.0,0.0,0.0,0.0,0.0,0.0,0.0,0.0,0.0,0.0,0.0,-2.7153,-3.1158,-3.2776,-3.3734,-3.4159,-3.4347,-3.3408,-3.0961,0.0,0.0,0.0,0.0,0.0,0.0,0.0,0.0,0.0,0.0,0.0,0.0,0.0,0.0,0.0,0.0,0.0,0.0,0.0,0.0,0.0,0.0,0.0,0.0,0.0,0.0,0.0,0.0,0.0,0.0,0.0,0.0,0.0,0.0,0.0,0.0,0.0,0.0,0.0,0.0,0.0,0.0,0.0,0.0,0.0,0.0,0.0,0.0,0.0,0.0,0.0,0.0,0.0,0.0,0.0,0.0,0.0,0.0,0.0,0.0,0.0,0.0,0.0,0.0,0.0,0.0,0.0,0.0,0.0,0.0,0.0,0.0,0.0,0.0,0.0,0.0,0.0,0.0,0.0,0.0,0.0,0.0,0.0,0.0,0.0,0.0,0.0,0.0,0.0,0.0,0.0,0.0,0.0,0.0,0.0,0.0,0.0,0.0,0.0,0.0,0.0,0.0,0.0,-2.6506,-2.9049,-3.2249,-3.3524,-3.4243,-3.4576,-3.4794,-3.3975,-3.1771,-3.1629,0.0,0.0,0.0,0.0,0.0,0.0,0.0,0.0,0.0,0.0,0.0,0.0,0.0,0.0,0.0,0.0,0.0,0.0,0.0,0.0,0.0,0.0,0.0,0.0,0.0,0.0,0.0,0.0,0.0,0.0,0.0,0.0,0.0,0.0,0.0,0.0,0.0,0.0,0.0,0.0,0.0,0.0,0.0,0.0,0.0,0.0,0.0,0.0,0.0,0.0,0.0,0.0,0.0,0.0,0.0,0.0,0.0,0.0,0.0,0.0,0.0,0.0,0.0,0.0,0.0,0.0,0.0,0.0,0.0,0.0,0.0,0.0,0.0,0.0,0.0,0.0,0.0,0.0,0.0,0.0,0.0,0.0,0.0,0.0,0.0,0.0,0.0,0.0,0.0,0.0,0.0,0.0,0.0,0.0,0.0,0.0,0.0,0.0,0.0,0.0,0.0,0.0,-2.8749,-3.0441,-3.2588,-3.3789,-3.446,-3.454,-3.4616,-3.3928,-3.2133,-3.1901,0.0,0.0,0.0,0.0,0.0,0.0,0.0,0.0,0.0,0.0,0.0,0.0,0.0,0.0,0.0,0.0,0.0,0.0,0.0,0.0,0.0,0.0,0.0,0.0,0.0,0.0,0.0,0.0,0.0,0.0,0.0,0.0,0.0,0.0,0.0,0.0,0.0,0.0,0.0,0.0,0.0,0.0,0.0,0.0,0.0,0.0,0.0,0.0,0.0,0.0,0.0,0.0,0.0,0.0,0.0,0.0,0.0,0.0,0.0,0.0,0.0,0.0,0.0,0.0,0.0,0.0,0.0,0.0,0.0,0.0,0.0,0.0,0.0,0.0,0.0,0.0,0.0,0.0,0.0,0.0,0.0,0.0,0.0,0.0,0.0,0.0,0.0,0.0,0.0,0.0,0.0,0.0,0.0,0.0,0.0,0.0,0.0,0.0,0.0,0.0,0.0,0.0,-2.94,-3.106,-3.3221,-3.4111,-3.4416,-3.4092,-3.3452,-3.2715,-3.187,-3.0713,0.0,0.0,0.0,0.0,0.0,0.0,0.0,0.0,0.0,0.0,0.0,0.0,0.0,0.0,0.0,0.0,0.0,0.0,0.0,0.0,0.0,0.0,0.0,0.0,0.0,0.0,0.0,0.0,0.0,0.0,0.0,0.0,0.0,0.0,0.0,0.0,0.0,0.0,0.0,0.0,0.0,0.0,0.0,0.0,0.0,0.0,0.0,0.0,0.0,0.0,0.0,0.0,0.0,0.0,0.0,0.0,0.0,0.0,0.0,0.0,0.0,0.0,0.0,0.0,0.0,0.0,0.0,0.0,0.0,0.0,0.0,0.0,0.0,0.0,0.0,0.0,0.0,0.0,0.0,0.0,0.0,0.0,0.0,0.0,0.0,0.0,0.0,0.0,0.0,0.0,0.0,0.0,0.0,0.0,0.0,0.0,0.0,0.0,0.0,0.0,0.0,0.0,-3.062,-3.2125,0.0,-3.3545,-3.3737,-3.4044,-3.4089,-3.3348,-3.1604,0.0,0.0,0.0,0.0,0.0,0.0,0.0,0.0,0.0,0.0,0.0,0.0,0.0,0.0,0.0,0.0,0.0,0.0,0.0,0.0,0.0,0.0,0.0,0.0,0.0,0.0,0.0,0.0,0.0,0.0,0.0,0.0,0.0,0.0,0.0,0.0,0.0,0.0,0.0,0.0,0.0,0.0,0.0,0.0,0.0,0.0,0.0,0.0,0.0,0.0,0.0,0.0,0.0,0.0,0.0,0.0,0.0,0.0,0.0,0.0,0.0,0.0,0.0,0.0,0.0,0.0,0.0,0.0,0.0,0.0,0.0,0.0,0.0,0.0,0.0,0.0,0.0,0.0,0.0,0.0,0.0,0.0,0.0,0.0,0.0,0.0,0.0,0.0,0.0,0.0,0.0,0.0,0.0,0.0,0.0,0.0,0.0,0.0,0.0,0.0,0.0,0.0,-2.9459,-3.1456,-3.3002,0.0,-3.3777,-3.3978,-3.4351,-3.4464,-3.3582,-3.1331,0.0,0.0,0.0,0.0,0.0,0.0,0.0,0.0,0.0,0.0,0.0,0.0,0.0,0.0,0.0,0.0,0.0,0.0,0.0,0.0,0.0,0.0,0.0,0.0,0.0,0.0,0.0,0.0,0.0,0.0,0.0,0.0,0.0,0.0,0.0,0.0,0.0,0.0,0.0,0.0,0.0,0.0,0.0,0.0,0.0,0.0,0.0,0.0,0.0,0.0,0.0,0.0,0.0,0.0,0.0,0.0,0.0,0.0,0.0,0.0,0.0,0.0,0.0,0.0,0.0,0.0,0.0,0.0,0.0,0.0,0.0,0.0,0.0,0.0,0.0,0.0,0.0,0.0,0.0,0.0,0.0,0.0,0.0,0.0,0.0,0.0,0.0,0.0,0.0,0.0,0.0,0.0,0.0,0.0,0.0,0.0,0.0,0.0,0.0,0.0,0.0,0.0,-2.9346,-3.1745,-3.3605,-3.4171,-3.5037,-3.5439,-3.5066,-3.4356,-3.3084,0.0,0.0,0.0,0.0,0.0,0.0,0.0,0.0,0.0,0.0,0.0,0.0,0.0,0.0,0.0,0.0,0.0,0.0,0.0,0.0,0.0,0.0,0.0,0.0,0.0,0.0,0.0,0.0,0.0,0.0,0.0,0.0,0.0,0.0,0.0,0.0,0.0,0.0,0.0,0.0,0.0,0.0,0.0,0.0,0.0,0.0,0.0,0.0,0.0,0.0,0.0,0.0,0.0,0.0,0.0,0.0,0.0,0.0,0.0,0.0,0.0,0.0,0.0,0.0,0.0,0.0,0.0,0.0,0.0,0.0,0.0,0.0,0.0,0.0,0.0,0.0,0.0,0.0,0.0,0.0,0.0,0.0,0.0,0.0,0.0,0.0,0.0,0.0,0.0,0.0,0.0,0.0,0.0,0.0,0.0,0.0,0.0,0.0,0.0,0.0,0.0,0.0,0.0,-3.016,-3.2575,-3.4442,-3.4996,-3.5331,-3.5439,-3.5307,-3.5297,-3.457,-3.2809,0.0,0.0,0.0,0.0,0.0,0.0,0.0,0.0,0.0,0.0,0.0,0.0,0.0,0.0,0.0,0.0,0.0,0.0,0.0,0.0,0.0,0.0,0.0,0.0,0.0,0.0,0.0,0.0,0.0,0.0,0.0,0.0,0.0,0.0,0.0,0.0,0.0,0.0,0.0,0.0,0.0,0.0,0.0,0.0,0.0,0.0,0.0,0.0,0.0,0.0,0.0,0.0,0.0,0.0,0.0,0.0,0.0,0.0,0.0,0.0,0.0,0.0,0.0,0.0,0.0,0.0,0.0,0.0,0.0,0.0,0.0,0.0,0.0,0.0,0.0,0.0,0.0,0.0,0.0,0.0,0.0,0.0,0.0,0.0,0.0,0.0,0.0,0.0,0.0,0.0,0.0,0.0,0.0,0.0,0.0,0.0,0.0,0.0,0.0,0.0,0.0,0.0,-3.0465,-3.3167,-3.5273,-3.5903,-3.6312,-3.6474,-3.6357,-3.638,-3.5621,-3.3783,0.0,0.0,0.0,0.0,0.0,0.0,0.0,0.0,0.0,0.0,0.0,0.0,0.0,0.0,0.0,0.0,0.0,0.0,0.0,0.0,0.0,0.0,0.0,0.0,0.0,0.0,0.0,0.0,0.0,0.0,0.0,0.0,0.0,0.0,0.0,0.0,0.0,0.0,0.0,0.0,0.0,0.0,0.0,0.0,0.0,0.0,0.0,0.0,0.0,0.0,0.0,0.0,0.0,0.0,0.0,0.0,0.0,0.0,0.0,0.0,0.0,0.0,0.0,0.0,0.0,0.0,0.0,0.0,0.0,0.0,0.0,0.0,0.0,0.0,0.0,0.0,0.0,0.0,0.0,0.0,0.0,0.0,0.0,0.0,0.0,0.0,0.0,0.0,0.0,0.0,0.0,0.0,0.0,0.0,0.0,0.0,0.0,0.0,0.0,0.0,0.0,0.0,-3.0495,-3.3508,-3.5894,-3.6793,-3.7584,-3.8,-3.7827,-3.7394,-3.632,-3.4463,0.0,0.0,0.0,0.0,0.0,0.0,0.0,0.0,0.0,0.0,0.0,0.0,0.0,0.0,0.0,0.0,0.0,0.0,0.0,0.0,0.0,0.0,0.0,0.0,0.0,0.0,0.0,0.0,0.0,0.0,0.0,0.0,0.0,0.0,0.0,0.0,0.0,0.0,0.0,0.0,0.0,0.0,0.0,0.0,0.0,0.0,0.0,0.0,0.0,0.0,0.0,0.0,0.0,0.0,0.0,0.0,0.0,0.0,0.0,0.0,0.3439,0.0,0.0,0.0,0.0,0.0,0.0,0.0,0.0,0.0,0.0,0.0,0.0,0.0,0.0,0.0,0.0,0.0,0.0,0.0,0.0,0.0,0.0,0.0,0.0,0.0,0.0,0.0,0.0,0.0,0.0,0.0,0.0,0.0,0.0,0.0,0.0,0.0,0.0,0.0,0.0,0.0,-3.126,-3.3707,-3.5842,-3.7327,-3.7649,-3.7757,-3.7881,-3.7521,-3.6967,-3.6348,-3.4086,0.0,0.0,0.0,0.0,0.0,0.0,0.0,0.0,0.0,0.0,0.0,0.0,0.0,0.0,0.0,0.0,0.0,0.0,0.0,0.0,0.0,0.0,0.0,0.0,0.0,0.0,0.0,0.0,0.0,0.0,0.0,0.0,0.0,0.0,0.0,0.0,0.0,0.0,0.0,0.0,0.0,0.0,0.0,0.0,0.0,0.0,0.0,0.0,0.0,0.0,0.0,0.0,0.0,0.0,0.0,0.0,0.0,0.0,0.0,0.0,-0.1209,0.0,0.0,0.0,0.0,0.0,0.0,0.0,0.0,0.0,0.0,0.0,0.0,0.0,0.0,0.0,0.0,0.0,0.0,0.0,0.0,0.0,0.0,0.0,0.0,0.0,0.0,0.0,0.0,0.0,0.0,0.0,0.0,0.0,0.0,0.0,0.0,0.0,0.0,0.0,0.0,-3.1543,-3.3917,-3.5954,-3.728,-3.7541,-3.7757,-3.8072,-3.7521,-3.7087,-3.6952,-3.5422,0.0,0.0,0.0,0.0,0.0,0.0,0.0,0.0,0.0,0.0,0.0,0.0,0.0,0.0,0.0,0.0,0.0,0.0,0.0,0.0,0.0,0.0,0.0,0.0,0.0,0.0,0.0,0.0,0.0,0.0,0.0,0.0,0.0,0.0,0.0,0.0,0.0,0.0,0.0,0.0,0.0,0.0,0.0,0.0,0.0,0.0,0.0,0.0,0.0,0.0,0.0,0.0,0.0,-0.1934,-0.5281,-1.1346,-1.251,-1.4075,-1.551,-0.9785,-0.6514,-0.5333,0.0,0.0,0.0,0.0,0.0,0.0,0.0,0.0,0.0,0.0,0.0,0.0,0.0,0.0,0.0,0.0,0.0,0.0,0.0,0.0,0.0,0.0,0.0,0.0,0.0,-2.5543,-2.7478,0.0,0.0,0.0,0.0,0.0,0.0,0.0,0.0,0.0,0.0,0.0,0.0,-3.1826,-3.4315,-3.6282,-3.7212,-3.7553,-3.788,-3.8223,-3.754,-3.7066,-3.7009,-3.69,-3.6186,0.0,0.0,0.0,0.0,0.0,0.0,0.0,0.0,0.0,0.0,0.0,0.0,0.0,0.0,0.0,0.0,0.0,0.0,0.0,0.0,0.0,0.0,0.0,0.0,0.0,0.0,0.0,0.0,0.0,0.0,0.0,0.0,0.8963,0.8741,0.0,0.0,0.0,0.0,0.0,0.0,0.0,0.0,0.0,0.0,0.0,0.0,0.0,0.3288,0.4272,-0.0228,-0.3158,-0.4416,-0.6409,-0.8633,-1.0934,-1.3066,-1.4683,-1.5896,-1.5713,0.0,-1.1417,-0.9087,0.0,0.0,0.0,0.0,0.0,0.0,0.0,0.0,0.0,0.0,0.0,0.0,0.0,0.0,0.0,0.0,0.0,0.0,0.0,0.0,0.0,0.0,-2.2987,-2.5517,-2.7025,-2.8029,0.0,-2.913,-2.9702,-2.9809,-2.9778,0.0,0.0,0.0,0.0,0.0,0.0,0.0,-3.2806,-3.521,-3.713,-3.8127,-3.7943,-3.7879,-3.8119,-3.7595,-3.7203,-3.7108,-3.6527,-3.6269,-3.6382,-3.5427,0.0,0.0,0.0,0.0,0.0,0.0,0.0,0.0,0.0,0.0,0.0,0.0,0.0,0.0,0.0,0.0,0.0,0.0,0.0,0.0,0.0,0.0,0.0,0.0,0.0,0.0,0.0,0.0,0.0,0.8236,0.7344,0.5562,0.8458,0.9783,0.0,0.0,0.0,0.0,0.0,0.0,0.0,0.0,0.0,0.5999,0.2522,0.0967,0.1618,-0.062,-0.2452,-0.377,-0.5228,-0.7179,-0.9625,-1.2214,-1.4051,-1.5374,-1.6967,-1.6607,-1.4741,-1.3125,-1.2394,-1.1983,0.0,0.0,0.0,0.0,-0.6554,-0.9262,-0.9533,-1.1563,0.0,0.0,0.0,0.0,0.0,0.0,0.0,0.0,0.0,0.0,0.0,0.0,0.0,-2.6281,-2.7316,-2.8133,-2.897,-3.0558,-3.1777,0.0,-3.2004,-3.1758,-3.0366,0.0,0.0,0.0,0.0,-3.3221,-3.4147,-3.6048,-3.7406,-3.7747,-3.7827,-3.7877,-3.7998,-3.7504,-3.7069,-3.6816,-3.6601,-3.6566,-3.6746,-3.6204,-3.544,0.0,0.0,0.0,0.0,0.0,0.0,0.0,0.0,0.0,0.0,0.0,0.0,0.0,0.0,0.0,0.0,0.0,0.0,0.0,0.0,0.0,0.0,0.0,0.0,0.0,0.0,0.0,0.0,0.761,0.6416,0.4,0.7098,0.8332,0.0,0.0,0.0,0.0,0.0,0.0,0.7909,0.4554,0.3103,0.4098,0.16,0.0264,0.0429,0.033,-0.0722,-0.2766,-0.3817,-0.5829,-0.8676,-1.1704,-1.3823,-1.5231,-1.7646,-1.8067,-1.6995,-1.601,-1.4738,-1.3297,-1.2006,-1.169,-1.1681,-0.9428,-1.1048,-1.4395,-1.4686,-1.7301,-2.0502,-2.058,0.0,-2.0075,-1.7439,0.0,0.0,0.0,0.0,-2.1854,-2.2781,-2.4368,-2.588,-2.6525,-2.745,-2.8362,-2.8972,-3.1072,-3.2839,0.0,-3.37,-3.4165,-3.3215,0.0,0.0,0.0,0.0,-3.516,-3.5516,-3.6978,-3.7903,-3.7686,-3.7853,-3.798,-3.7998,-3.745,-3.6974,-3.6736,-3.6811,-3.6904,-3.7066,-3.7189,-3.6675,-3.5401,0.0,0.0,0.0,0.0,0.0,0.0,0.0,0.0,0.0,0.0,0.0,0.0,0.0,0.0,0.0,0.0,0.0,0.0,0.0,0.0,0.0,0.0,0.0,0.0,0.0,0.0,0.0,0.0,0.0,0.7834,0.8462,0.0,0.0,0.0,0.0,0.8055,0.74,0.6204,0.4089,0.2346,0.1984,0.3327,0.2956,0.2521,0.2065,0.1389,-0.011,-0.2473,-0.4348,-0.6385,-0.863,-1.246,-1.4828,-1.6009,-1.9192,-1.9807,-1.8454,-1.6632,-1.5568,-1.5096,-1.5254,-1.5968,-1.6992,-1.7397,-1.8313,-1.9371,-1.9569,-2.0022,-2.0504,-2.0582,-2.0559,-2.0474,-2.0294,-2.0191,0.0,0.0,-2.2765,-2.3185,-2.483,-2.5898,-2.6554,-2.6592,-2.7852,-2.9044,-2.9087,-3.0988,-3.2742,0.0,-3.4684,-3.5796,-3.4295,0.0,-3.476,-3.3955,-3.5019,-3.6154,-3.6718,-3.8059,-3.8876,-3.8748,-3.841,-3.8201,-3.8256,-3.7541,-3.7091,-3.7069,-3.7009,-3.7224,-3.7718,-3.8164,-3.7954,-3.6981,-3.654,0.0,0.0,0.0,0.0,0.0,0.0,0.0,0.0,0.0,0.0,0.0,0.0,0.0,0.0,0.0,0.0,0.0,0.0,0.0,0.0,0.0,0.0,0.0,0.0,0.0,0.0,0.0,0.0,0.9067,0.9739,0.0,0.784,0.9456,0.9571,0.7006,0.7158,0.7032,0.6259,0.6189,0.5839,0.5121,0.52,0.4304,0.24,0.1227,-0.0499,-0.2756,-0.4934,-0.696,-0.9027,-1.3055,-1.5395,-1.6442,-1.9527,-2.0756,-2.0553,-1.9676,-1.8116,-1.633,-1.6837,-1.7483,-1.8186,-1.8713,-1.93,-1.9863,-2.0109,-2.0328,-2.0504,-2.0581,-2.058,-2.0653,-2.1174,-2.1698,-2.2347,-2.3463,-2.4138,-2.464,-2.5196,-2.5957,-2.6745,-2.7295,-2.8285,-2.9398,-3.049,-3.184,-3.2976,-3.3493,-3.5062,-3.6155,-3.5615,-3.6575,-3.7261,-3.6793,-3.7596,-3.8225,-3.8136,-3.872,-3.897,-3.8517,-3.8473,-3.8449,-3.842,-3.766,-3.7111,-3.7034,-3.6736,-3.6609,-3.6773,-3.7263,-3.721,-3.6474,-3.6452,-3.5636,0.0,0.0,0.0,0.0,0.0,0.0,0.0,0.0,0.0,0.0,0.0,0.0,0.0,0.0,0.0,0.0,0.0,0.0,0.0,0.0,0.0,0.0,0.0,0.0,0.0,0.0,0.9305,0.961,1.039,1.0069,0.7851,0.9271,0.9639,0.7982,0.8445,0.908,0.967,0.9933,0.94,0.7834,0.8107,0.6759,0.3553,0.2501,0.0648,-0.1918,-0.3818,-0.6163,-0.8908,-1.2669,-1.5315,-1.7136,-2.0396,-2.1968,-2.2224,-2.2062,-2.0729,-1.8663,-1.6952,-1.6259,-1.6036,-1.4787,-1.5245,-1.6848,-1.9149,-2.0183,-2.0581,-2.0894,-2.101,-2.1159,-2.1982,-2.2808,-2.3558,-2.4057,-2.4772,-2.5378,-2.5322,-2.6168,-2.7187,-2.7757,-2.8747,-2.984,-3.0964,-3.2096,-3.3042,-3.3493,-3.4887,-3.6136,-3.6671,-3.7642,-3.8431,-3.8715,-3.9212,-3.9376,-3.895,-3.9036,-3.8931,-3.8473,-3.8634,-3.8699,-3.8627,-3.7916,-3.7394,-3.7091,-3.7061,-3.693,-3.6665,-3.7259,-3.7326,-3.6643,-3.6344,-3.5562,-3.4256,0.0,0.0,0.0,0.0,0.0,0.0,0.0,0.0,0.0,0.0,0.0,0.0,0.0,0.0,0.0,0.0,0.0,0.0,0.0,0.0,0.0,0.0,0.0,0.9859,1.0401,1.0454,0.9679,1.0423,1.0525,0.9303,1.0364,1.1107,1.0949,1.1134,1.2058,1.3803,1.2989,1.2088,1.1261,1.1605,0.98,0.5653,0.5178,0.3337,0.0054,-0.1085,-0.389,-0.8167,-1.1309,-1.4599,-1.8115,-2.1965,-2.3509,-2.3359,-2.3503,-2.3227,-2.2078,-1.5947,-1.284,-1.1261,-0.6685,-0.7212,-1.1081,-1.7156,-1.9839,-2.0737,-2.1542,-2.1791,-2.1971,-2.284,-2.3646,-2.4258,-2.4174,-2.4718,-2.5318,-2.5264,-2.6554,-2.7862,-2.7901,-2.9179,-3.0398,-3.0475,-3.1738,-3.2903,-3.2881,-3.4178,-3.5815,-3.7412,-3.7661,-3.8116,-3.9494,-3.9647,0.0,-3.9156,-3.9007,-3.8851,-3.8707,-3.8878,-3.8995,-3.8884,-3.8426,-3.7893,-3.7294,-3.8079,-3.8226,-3.7576,-3.8447,-3.8538,-3.7721,-3.6402,-3.5115,-3.3927,0.0,0.0,0.0,0.0,0.0,0.0,0.0,0.0,0.0,0.0,0.0,0.0,0.0,0.0,0.0,0.0,0.0,0.0,0.0,0.0,0.0,0.0,0.8624,1.0758,0.9989,0.9752,1.1278,1.1063,1.0798,1.084,1.1711,1.211,1.1752,1.2408,1.3209,1.4069,1.3528,1.3497,1.4205,1.2428,1.0164,0.756,0.5736,0.3909,0.1992,0.0953,-0.2301,-0.7517,-0.9715,-1.4222,-2.0466,-2.2731,-2.4019,-2.448,-2.4713,-2.4778,-2.4385,-2.0516,-1.888,-1.846,-1.6574,-1.6604,-1.7848,-1.9605,-2.0386,-2.0742,-2.1602,-2.1873,-2.2022,-2.2845,-2.3247,-2.3383,-2.3176,-2.3274,-2.3581,-2.4144,-2.5537,-2.7006,-2.7795,-2.9214,-3.0725,-3.1949,-3.257,-3.3234,-3.4404,-3.4967,-3.5799,-3.7356,-3.8099,-3.8762,-3.9584,-3.967,0.0,-3.921,-3.9101,-3.8855,-3.8382,-3.8943,-3.9192,-3.8716,-3.9061,-3.9025,-3.8543,-3.9014,-3.9182,-3.8902,-3.9499,-3.9301,-3.8156,-3.7963,-3.7418,0.0,0.0,0.0,0.0,0.0,0.0,0.0,0.0,0.0,0.0,0.0,0.0,0.0,0.0,0.0,0.0,0.0,0.0,0.0,0.0,0.0,0.0,0.9939,0.9922,1.2071,0.9912,0.9193,1.2176,1.1835,1.1616,1.2189,1.2846,1.3061,1.264,1.3078,1.369,1.4381,1.4017,1.4346,1.5492,1.3809,1.2202,1.0818,0.784,0.6134,0.5659,0.1621,-0.2592,-0.6918,-1.072,-1.5921,0.0,-2.3565,-2.4549,-2.5048,-2.5247,-2.5428,0.0,0.0,0.0,0.0,0.0,-1.6393,-1.7202,-1.9294,-2.0503,-2.1287,-2.2129,-2.2655,-2.3099,-2.394,-2.4163,-2.4199,-2.4365,-2.4128,-2.4098,-2.5274,-2.6294,-2.7272,-2.8232,-2.9445,-3.0768,-3.2122,-3.2654,-3.3281,-3.4549,-3.5327,0.0,-3.7432,-3.8023,-3.8649,-3.9547,-3.9693,-3.9599,-3.9309,-3.9175,-3.8913,-3.8491,-3.9367,-3.9802,-3.9312,-3.9893,0.0,0.0,0.0,-4.0235,-3.9938,-3.9981,0.0,0.0,0.0,-3.9019,-3.8589,0.0,0.0,0.0,-3.9208,-3.9567,0.0,0.0,0.0,0.0,0.0,0.0,0.0,0.0,0.0,0.0,0.0,0.0,0.0,0.0,0.0,0.0,1.0685,1.1854,1.3458,1.0303,0.9111,1.2564,1.266,1.2646,1.3128,1.3728,1.3923,1.353,1.3363,1.3592,1.4314,0.0,0.0,0.0,0.0,1.4641,1.4261,1.0681,0.9256,0.9894,0.1845,-0.3439,-0.6325,-1.2759,-1.8329,-2.2966,-2.4289,-2.5014,-2.5243,-2.537,-2.5385,-2.4763,-1.9224,-1.6206,-1.4681,-1.2261,-1.2066,-1.3653,-1.8006,0.0,0.0,-2.2949,-2.3767,-2.456,-2.5442,-2.5652,-2.5741,-2.6436,-2.6042,-2.5739,-2.7342,-2.7798,-2.8096,-2.8923,-2.9847,-3.0772,-3.165,-3.2473,-3.3282,-3.4074,-3.555,-3.6884,-3.7583,-3.7792,-3.829,-3.9535,-3.9739,-3.9665,-3.9451,-3.9256,-3.9073,-3.8862,0.0,0.0,-4.0166,-4.082,-4.1035,-4.0528,-4.1214,-4.147,-4.1052,-4.0533,-3.9823,-3.8866,-3.989,-4.0382,-4.0296,-4.2014,-4.2953,-4.3069,-4.1585,-4.1801,0.0,0.0,0.0,0.0,0.0,0.0,0.0,0.0,0.0,0.0,0.0,0.0,0.0,0.0,0.0,1.0587,1.0056,1.06,1.3713,1.2024,1.1028,1.2494,1.3185,1.3195,1.2412,1.3835,1.4433,1.3584,1.3548,1.3252,1.2406,1.1288,0.0,1.4631,1.3618,1.3318,1.3959,1.2291,1.1353,1.1176,0.0,0.0,-0.5669,-1.1259,-1.7542,-2.4008,-2.4579,-2.5051,-2.5443,-2.5537,-2.479,-2.3466,-2.2255,-2.121,-2.0232,-1.9022,-1.9179,-2.0098,-2.1053,-2.162,-2.2148,-2.3652,-2.4254,-2.4557,-2.5431,-2.5645,0.0,-2.5586,-2.5455,-2.5535,-2.6523,-2.7259,-2.7984,-2.8945,-3.0342,-3.1672,-3.2499,-3.3346,-3.4166,-3.4908,-3.6466,-3.7661,-3.7764,-3.8376,-3.9051,-3.9759,-3.9954,-3.9911,-3.9594,-3.9477,-3.9324,-3.9073,-4.011,-4.0513,-3.9777,-4.1191,-4.1977,-4.1597,-4.2591,-4.313,-4.3051,-4.3088,-4.2645,-4.1654,-4.2641,-4.2797,-4.2105,-4.3206,-4.4178,-4.4965,-4.3953,-4.3762,0.0,0.0,0.0,0.0,0.0,0.0,0.0,0.0,0.0,0.0,0.0,0.8825,0.8415,0.0,1.0401,1.1054,1.095,1.1899,1.5,1.4387,1.4,1.5068,1.4326,1.4025,1.4797,1.4464,1.4272,1.4425,1.3274,1.2397,1.2025,1.024,1.0556,1.3599,1.2731,1.2719,1.3746,1.0838,0.8718,0.7365,-0.0834,-0.6441,-0.9713,-1.5825,-2.0782,-2.4572,-2.5002,-2.5339,-2.5559,-2.5619,-2.4648,-2.3144,-2.3588,-2.2963,-2.1855,-2.1855,-2.2126,-2.2509,-2.2495,-2.2789,-2.3299,-2.4139,-2.4697,-2.5132,-2.5527,-2.5929,-2.6303,-2.6619,-2.6677,-2.6942,-2.8182,-2.8482,-2.8794,-3.0123,-3.1122,-3.2081,-3.3288,-3.3885,-3.4545,-3.5714,-3.7022,-3.8022,-3.8388,-3.9205,-3.9846,-3.9981,-4.0078,-4.0039,-3.9693,-3.9575,-3.9427,-3.9129,-4.0283,-4.0775,-4.0088,-4.1667,-4.2567,-4.2395,-4.3137,-4.3548,-4.3548,-4.3379,-4.3208,-4.3008,-4.319,-4.3272,-4.3195,-4.3725,-4.4538,-4.5541,-4.5129,-4.5255,0.0,0.0,0.0,0.0,0.0,0.0,0.0,0.0,0.9113,0.8714,0.8886,0.8861,0.8094,0.9619,1.1069,1.1382,1.2153,1.3583,1.6088,1.6273,1.6648,1.8014,1.6112,1.5339,1.6952,1.5109,1.4146,1.5049,1.2732,1.135,1.1481,0.9494,0.953,1.1945,1.1345,1.1604,1.2766,0.7978,0.477,0.3133,-0.7623,-1.312,-1.408,-2.0931,-2.439,-2.4959,-2.5247,-2.5463,-2.5605,-2.5488,-2.4628,-2.3448,-2.4295,-2.3672,-2.2363,-2.2909,-2.3212,-2.3354,-2.3345,-2.3802,-2.4452,-2.48,-2.5252,-2.5736,-2.6009,-2.6607,-2.7329,-2.8126,-2.8419,-2.8825,-3.0173,-2.9988,-2.982,-3.1345,-3.1873,-3.2436,-3.3878,-3.4321,-3.4885,-3.6339,-3.7306,-3.8169,-3.901,-3.99,-4.0441,-4.0196,-4.033,-4.0368,-4.0094,-3.9981,-3.9771,-3.9461,-4.0544,-4.1199,-4.098,-4.2195,-4.292,-4.2995,-4.3375,-4.3582,-4.3582,-4.3222,-4.3291,-4.387,-4.3393,-4.355,-4.4266,-4.4392,-4.5022,-4.6087,-4.6186,-4.6535,1.0342,1.0583,1.0121,0.9546,0.9766,1.0018,0.0,0.0,1.0307,1.0239,0.9989,0.9905,1.0249,1.0409,1.0787,1.1759,1.2599,1.3754,1.555,1.6271,1.7333,1.9272,1.8792,1.755,1.5581,1.524,1.4844,1.4103,1.2109,1.037,0.9047,0.8106,0.7994,0.8878,0.8191,0.8514,0.9963,0.4258,0.1962,0.2984,-0.8906,-1.4507,-1.4555,-2.1458,-2.4905,-2.539,-2.4783,-2.4974,-2.5633,-2.4869,-2.4428,-2.4336,-2.5154,-2.4903,-2.4039,-2.3351,-2.3583,-2.4245,-2.4243,-2.4314,-2.4666,-2.6202,-2.6203,-2.5894,-2.7439,-2.7987,-2.8223,-2.9038,-2.9765,-3.0361,-3.0549,-3.0472,-3.0567,-3.1488,-3.2289,-3.3122,-3.4012,-3.4809,-3.5624,-3.6526,-3.7397,-3.8262,-3.9127,-4.001,-4.053,-4.0389,-4.0971,-4.1416,-4.1303,-4.1138,-4.0915,-4.0628,-4.1016,-4.1668,-4.2576,-4.2848,-4.3069,-4.3232,-4.3649,-4.3897,-4.3942,-4.4011,-4.4333,-4.492,-4.4879,-4.5197,-4.5928,-4.6116,-4.6754,-4.781,-4.7953,-4.7759,1.0908,1.0902,1.0385,0.9843,1.0286,1.065,0.971,1.0424,1.124,1.1198,1.1115,1.113,1.1514,1.1652,1.1969,0.0,1.3189,1.4125,1.5923,1.6631,1.744,1.8623,1.9295,1.8943,1.7078,1.5409,1.4338,1.4077,1.191,1.0174,0.9237,0.7501,0.674,0.723,0.7456,0.645,0.4185,0.0646,-0.3056,-0.704,-1.4485,-1.866,-1.9932,-2.3453,-2.5253,-2.5602,-2.5252,-2.5032,-2.4946,-2.5093,-2.4857,-2.4473,-2.5338,-2.5427,-2.5054,-2.4684,-2.4787,-2.5108,-2.5135,-2.5464,-2.5976,-2.67,-2.7023,-2.724,-2.7923,-2.8508,-2.8968,-2.9304,-3.0001,-3.0773,-3.1234,-3.1313,-3.1593,-3.291,-3.35,-3.3994,-3.4783,-3.5631,-3.6498,-3.731,-3.8157,-3.9032,-3.9909,-4.0352,-4.0583,-4.0515,-4.1204,-4.1642,-4.1474,-4.1311,-4.1194,-4.1045,-4.0845,-4.1251,-4.2603,-4.2844,-4.2832,-4.2557,-4.3472,-4.3813,-4.3379,-4.342,-4.3974,-4.5129,-4.4572,-4.486,-4.6205,-4.6376,-4.7066,-4.8164,-4.8294,-4.8541,1.1437,1.1135,1.075,1.0189,1.0477,1.0801,1.0221,1.0972,1.1818,1.186,1.1984,1.2195,1.25,1.2739,1.3109,1.376,1.3795,1.4347,1.6137,1.6547,1.6999,1.7932,1.8713,1.8392,1.6367,1.5008,1.3887,1.3108,1.1151,0.9706,0.9063,0.6996,0.6119,0.6887,0.6514,0.4604,0.1057,-0.2958,-0.7967,-1.4023,-1.9124,-2.23,-2.3732,-2.478,-2.5412,-2.567,-2.5395,-2.506,-2.4764,-2.5151,-2.5078,-2.4767,-2.5372,-2.5605,-2.5571,-2.5542,-2.5574,-2.5626,-2.5679,-2.6226,-2.693,-2.7178,-2.769,-2.8276,-2.8689,-2.9085,-2.9454,-2.9694,-3.0205,-3.0894,-3.1687,-3.1845,-3.2222,-3.3898,-3.4295,-3.4527,-3.5348,-3.6209,-3.7064,-3.7891,-3.8733,-3.9687,-4.0789,-4.0781,-4.0786,-4.1244,-4.1736,-4.1989,-4.1838,-4.1611,-4.1381,-4.1194,-4.0631,-4.0885,-4.2465,-4.2786,-4.2795,-4.2498,-4.3508,-4.389,-4.3341,-4.3546,-4.427,-4.556,-4.5016,-4.5432,-4.694,-4.7148,-4.7708,-4.8611,-4.8739,-4.9201,1.2238,1.1593,1.1368,1.0577,1.0211,1.0288,1.1315,1.1659,1.1882,1.2219,1.2597,1.2988,1.3396,1.343,1.3758,1.4863,1.4332,1.434,1.5889,1.562,1.5915,1.7696,1.7131,1.5179,0.0,1.3795,1.4072,1.0496,0.9475,0.8593,0.7629,0.6465,0.6519,0.8093,0.4723,0.2871,0.2936,-0.6635,-1.2057,-1.343,-2.1042,-2.4337,-2.3736,-2.4739,-2.535,-2.5554,-2.4779,-2.4876,-2.5499,-2.468,-2.4782,-2.546,-2.543,-2.5449,-2.5499,-2.5441,-2.5537,-2.5698,-2.5705,-2.623,-2.7044,-2.7888,-2.8184,-2.8507,-3.0133,-3.0049,-2.9576,-3.0425,-3.0678,-3.0877,-3.1689,-3.1844,-3.2212,-3.3912,-3.4287,-3.4538,-3.5407,-3.6277,-3.7146,-3.8035,-3.8846,-3.994,-4.1648,-4.1254,-4.1247,-4.2879,-4.2867,-4.2718,-4.2833,-4.2276,-4.167,-4.1151,-4.0562,-4.0845,-4.2465,-4.2786,-4.3105,-4.3623,-4.3992,-4.4269,-4.443,-4.5142,-4.5847,-4.6536,-4.7151,-4.7914,-4.8834,-4.9027,-4.9276,-4.9555,-4.9683,-4.9797,1.3819,1.2319,1.1008,1.1011,1.0731,1.0667,1.1488,1.2195,1.2757,1.3092,1.3125,1.3311,1.4041,1.3666,1.3643,1.4834,1.4826,1.4973,1.5893,1.643,1.7345,1.9089,1.7749,0.0,0.0,0.0,0.0,0.9366,0.9417,0.9464,0.899,0.7697,0.7058,0.7122,0.4311,0.0516,-0.4306,-1.0994,-1.6393,-2.0437,-2.3352,-2.4783,-2.4898,-2.5141,-2.5401,-2.5651,-2.5325,-2.5344,-2.5587,-2.5288,-2.5158,-2.5192,-2.5393,-2.5376,-2.5241,-2.5407,-2.5901,-2.6505,-2.6502,-2.7044,-2.7908,-2.8777,-2.9424,-2.9959,-3.0529,-3.0899,-3.119,-3.1482,-3.1981,-3.2601,-3.3363,-3.3539,-3.3789,-3.4894,-3.5128,-3.5341,-3.6202,-3.7083,-3.7951,-3.8827,-3.9714,-4.0699,-4.1872,-4.1738,-4.1944,-4.3271,-4.3477,-4.3245,-4.2519,-4.1976,-4.1471,-4.1088,-4.0455,-4.0712,-4.2266,-4.2846,-4.323,-4.3572,-4.4647,-4.5377,-4.5628,-4.613,-4.681,-4.7702,-4.7686,-4.8091,-4.8959,-4.9211,-4.9421,-4.9604,-4.9788,-4.9871,1.3752,1.2179,1.0648,1.063,1.057,1.0753,1.1673,1.2386,1.2987,1.3378,1.3227,1.3276,1.4109,1.3375,1.316,1.4681,1.4677,1.4857,1.5895,1.6732,1.7567,1.8421,1.7471,1.4041,0.0,0.0,0.0,0.3664,0.6727,0.7908,0.5665,0.5886,0.586,0.5391,0.2578,-0.1945,-0.8211,-1.3659,-1.9066,-2.4435,-2.4736,-2.5117,-2.5522,-2.5365,-2.5435,-2.5668,-2.5648,-2.564,-2.5632,-2.5576,-2.536,-2.5053,-2.5291,-2.526,-2.5168,-2.5712,-2.6342,-2.6895,-2.6933,-2.7693,-2.877,-2.9328,-3.0036,-3.0756,-3.1074,-3.1566,-3.2104,-3.2389,-3.2843,-3.3429,-3.4206,-3.439,-3.458,-3.5391,-3.5547,-3.5746,-3.6601,-3.7507,-3.8402,-3.9264,-4.0404,-4.1505,-4.2388,-4.2869,-4.3249,-4.3593,-4.3767,-4.3532,-4.2643,-4.1977,-4.1505,-4.1364,-4.06,-4.0841,-4.2763,-4.3123,-4.3642,-4.4601,-4.5434,-4.6086,-4.6505,-4.7118,-4.7701,-4.8224,-4.8277,-4.8539,-4.9141,-4.9382,-4.9579,-4.975,-4.9898,-5.0005,1.2178,1.1235,1.0373,0.9679,0.9867,1.0555,1.1902,1.2316,1.2542,1.3016,1.2824,1.284,0.0,0.0,1.2443,1.4481,1.4054,1.4061,1.5814,1.6464,1.6585,0.0,0.0,0.0,0.0,0.0,0.0,-0.6259,0.0,0.4073,-0.1185,0.1399,0.2913,0.2647,-0.0733,-0.464,-0.8976,-1.4979,-2.0406,-2.5224,-2.5215,-2.5351,-2.5604,-2.5405,-2.543,-2.5615,-2.5668,-2.5698,-2.5687,-2.5546,-2.5323,-2.51,-2.5163,-2.5168,-2.5278,-2.6315,-2.6845,-2.7032,-2.7105,-2.8168,-2.9518,-2.9543,-3.008,-3.0879,-3.1734,-3.2083,-3.2327,-3.3145,-3.3362,-3.3518,-3.4263,-3.4427,-3.4588,-3.5399,-3.5566,-3.5804,-3.6678,-3.759,-3.8539,-3.9449,-4.0996,-4.2389,-4.3208,-4.4546,-4.5093,-4.3947,-4.3847,-4.3687,-4.3165,-4.2239,-4.1723,-4.1999,-4.0926,-4.1284,-4.3899,-4.3706,-4.4376,-4.662,-4.6391,-4.6505,-4.7288,-4.818,-4.8541,-4.8272,-4.8971,-4.9358,-4.9446,-4.9607,-4.9815,-5.0005,-5.012,-5.0239,1.2149,1.0897,0.9906,1.0833,1.0652,1.0627,1.1978,1.1664,1.1264,1.1933,1.1409,1.1493,1.3624,0.0,0.0,1.4883,1.4652,0.0,1.546,1.5911,0.0,1.7979,0.0,0.7301,0.1817,-0.0172,0.0,0.0,-0.6678,0.0827,0.4322,0.133,-0.1332,-0.3183,-0.6139,-0.9892,-1.4446,-2.1094,-2.4797,-2.5493,-2.5506,-2.5562,-2.5673,-2.5566,-2.5586,-2.5668,-2.5636,-2.5621,-2.5601,-2.5371,-2.5114,-2.4889,-2.5011,-2.5378,-2.59,-2.6486,-2.7615,-2.8834,-2.8867,-2.9146,-2.962,-3.0255,-3.0615,-3.0938,-3.1808,-3.2549,-3.3247,-3.4101,-3.4753,-3.5249,-3.5402,-3.5389,-3.5383,-3.5558,-3.6016,-3.6664,-3.7623,-3.8491,-3.9572,-4.1133,-4.2819,-4.4066,-4.4227,-4.5597,-4.6301,-4.5208,-4.5112,-4.4624,-4.3212,-4.1586,-4.0993,-4.2114,-4.1105,-4.1451,-4.4126,-4.3952,-4.4846,-4.751,-4.7231,-4.7977,-5.0225,-4.9776,-4.975,-5.0326,-4.983,-4.9671,-4.9769,-4.9816,-4.9952,-5.0158,-5.083,-5.116,1.1482,1.0719,1.0133,1.1176,1.1119,1.1042,1.1926,1.1495,1.1013,1.1361,1.0631,1.0399,1.1935,1.1497,1.1282,0.0,0.0,0.0,1.373,1.4863,1.5344,0.0,1.0064,0.0,0.0023,-0.2843,-0.6735,0.0,-0.792,-0.4355,-0.3065,-0.4216,-0.6016,-0.8432,-1.0981,-1.4805,-1.9994,-2.407,-2.5915,-2.5561,-2.5527,-2.5545,-2.5605,-2.5603,-2.5605,-2.5611,0.0,-2.5629,-2.5621,-2.5342,-2.512,-2.4937,-2.4979,-2.5497,-2.6281,-2.6992,-2.8221,-2.9549,-2.9934,-3.0098,-3.0192,-3.0645,-3.1061,-3.1523,-3.241,-3.3289,-3.4156,-3.4983,-3.5533,-3.5833,-3.5763,-3.5699,-3.5734,-3.6095,-3.6484,-3.7147,-3.8481,-3.9154,-4.0117,-4.2285,-4.3788,-4.4812,-4.5144,-4.6206,-4.6677,-4.5695,-4.522,-4.469,-4.3886,-4.1817,-4.1063,-4.2742,-4.1499,-4.1704,-4.4469,-4.4535,-4.5519,-4.7988,-4.8407,-4.9193,-5.0561,-5.0578,-5.0505,-5.044,-4.9985,-4.9797,-4.9933,-4.999,-5.0146,-5.0367,-5.1185,-5.1591,1.0559,1.0597,1.0632,1.1062,1.1341,1.1564,1.177,1.1357,1.0938,1.0829,0.9973,0.9324,0.9691,0.8932,0.8587,0.9449,0.0,1.0793,1.178,1.351,1.3382,0.9781,0.7053,0.3165,-0.2688,-0.5074,-0.6171,-0.5976,-0.6938,-0.9568,-1.4222,-1.168,-1.1188,-1.3595,-1.5502,-1.9024,-2.4314,-2.4784,-2.513,-2.5372,-2.536,-2.5403,-2.5498,-2.5535,-2.5545,-2.5515,0.0,0.0,-2.5682,-2.5386,-2.5221,-2.5132,-2.5145,-2.5697,-2.6622,-2.7749,-2.8806,-2.9772,-3.0531,-3.0845,-3.0917,-3.0966,-3.1499,-3.2274,-3.3275,-3.4095,-3.4866,-3.5675,-3.5866,-3.583,-3.5862,-3.5844,-3.6016,-3.6886,-3.7177,-3.7652,-3.9178,-3.983,-4.082,-4.3209,-4.4326,-4.5149,-4.6022,-4.6609,-4.6708,-4.5954,-4.4919,-4.4364,-4.4676,-4.2384,-4.1491,-4.3532,-4.2121,-4.2213,-4.506,-4.5313,-4.6221,-4.8292,-4.9375,-4.9903,-4.9755,-5.0738,-5.0802,-4.9822,-4.9816,-4.9898,-5.0057,-5.0163,-5.0363,-5.0673,-5.1363,-5.1845,0.988,1.0311,1.0777,1.0991,1.1324,1.1547,1.1419,1.0227,0.9193,0.9265,0.8189,0.7658,0.9178,0.9037,0.923,1.0834,1.0846,1.0973,1.1849,1.2058,1.1652,0.0,0.3205,-0.283,-0.5873,-0.8907,0.0,0.0,0.0,-1.0096,-0.9557,-1.3742,-1.731,-1.9784,-2.0016,-2.1028,-2.3013,-2.3654,-2.4233,-2.4759,-2.4967,-2.5182,-2.5421,-2.5369,-2.545,-2.5576,-2.5531,0.0,-2.5676,-2.5294,-2.5189,-2.5304,-2.5734,-2.6542,-2.7589,-2.8616,-2.9621,-3.0531,-3.0732,-3.0843,-3.1014,-3.1738,-3.2029,-3.2398,-3.398,-3.4578,-3.4875,-3.5744,-3.5924,-3.6028,-3.6701,-3.6848,-3.7046,-3.785,-3.8565,-3.9135,-3.9508,-4.1286,-4.317,-4.4356,-4.5269,-4.6124,-4.6921,-4.7153,-4.7179,-4.7031,-4.5589,-4.4472,-4.4323,-4.2286,-4.1688,-4.3882,-4.3026,-4.3407,-4.6113,-4.5767,-4.6458,-4.8965,-4.8861,-4.9268,-5.0534,-5.0326,-5.0353,-5.0761,-5.0282,-5.012,-5.0255,-5.0272,-5.0703,-5.1516,-5.1644,-5.2399,0.9547,1.003,1.0619,1.092,1.1164,1.123,1.0873,0.9747,0.8748,0.8514,0.7272,0.6475,0.7246,0.6936,0.6904,0.7932,0.8124,0.8459,0.9271,0.9542,0.943,0.8741,0.4128,-0.0678,0.0,-0.6387,0.0,0.0,0.0,-1.2524,-1.3886,-1.7178,-1.9642,-2.103,-2.1433,-2.1994,-2.2803,-2.3373,-2.3868,-2.4346,-2.4683,-2.4974,-2.5235,-2.5253,-2.5325,-2.5432,-2.5449,0.0,-2.5583,-2.5313,-2.5233,-2.5356,-2.6014,-2.6873,-2.7923,-2.935,-3.0225,-3.0775,-3.1252,-3.1468,-3.1669,-3.2536,-3.2793,-3.3026,-3.4313,-3.5027,-3.5454,-3.5845,-3.624,-3.6605,-3.7004,-3.7439,-3.7995,-3.8831,-3.9674,-4.0412,-4.0887,-4.2352,-4.3797,-4.469,-4.5916,-4.6956,-4.7334,-4.7754,-4.7873,-4.7408,-4.6199,-4.5086,-4.4395,-4.3235,-4.28,-4.3705,-4.3583,-4.4123,-4.5886,-4.6464,-4.7292,-4.8596,-4.9359,-4.9891,-5.0158,-5.0459,-5.0542,-5.0374,-5.0176,-5.0163,-5.0302,-5.0374,-5.0903,-5.1813,-5.2231,-5.2987,0.9274,0.9846,1.0494,1.0944,1.1178,1.1136,1.0491,0.9493,0.8521,0.7848,0.6537,0.5367,0.5131,0.4745,0.4646,0.5158,0.5391,0.5764,0.6546,0.7459,0.7484,0.0,0.547,0.0,-0.4113,0.0,0.0,0.0,0.0,0.0,-1.8587,-1.9453,-1.998,-2.0305,-2.1103,-2.1844,-2.2511,-2.2982,-2.3469,-2.3929,-2.4385,-2.4785,-2.5077,-2.5126,-2.5225,-2.5321,-2.5363,0.0,0.0,-2.5385,-2.5427,-2.5673,-2.6408,-2.7382,-2.8552,-3.0162,-3.0836,-3.1087,-3.1971,-3.219,-3.2263,-3.3335,-3.3672,-3.3846,-3.4702,-3.545,-3.6005,-3.6148,-3.6619,-3.7187,-3.7564,-3.8177,-3.8896,-3.977,-4.0785,-4.1673,-4.2171,-4.3101,-4.4051,-4.4766,-4.6313,-4.7554,-4.7749,-4.7996,-4.8066,-4.7743,-4.6416,-4.5157,-4.4274,-4.4224,-4.4072,-4.3553,-4.4102,-4.4838,-4.5776,-4.7168,-4.8209,-4.8659,-5.0134,-5.0656,-4.9905,-5.0752,-5.077,-4.9825,-5.0031,-5.0182,-5.0255,-5.0409,-5.096,-5.1809,-5.2428,-5.3124,0.8893,0.9827,1.0743,1.1094,1.1541,1.1674,1.069,0.9232,0.7791,0.6766,0.5395,0.4233,0.3832,0.4091,0.4708,0.5815,0.5202,0.4796,0.5376,0.714,0.6548,0.1592,0.0,0.0,-0.6963,0.0,0.0,0.0,0.0,0.0,-1.7419,-1.8285,-1.8679,-1.8717,-1.9141,-2.0008,-2.1241,-2.1797,-2.2513,-2.3376,-2.4026,-2.4582,-2.5019,-2.5025,-2.516,-2.5386,-2.5335,0.0,0.0,-2.545,-2.5867,-2.6638,-2.7373,-2.8691,-3.0283,-3.1229,-3.1661,-3.1921,-3.2855,-3.2701,-3.2372,-3.4042,-3.4589,-3.4741,-3.5616,-3.5887,-3.606,-3.6865,-3.7099,-3.7467,-3.9038,-3.9524,-3.9796,-4.0671,-4.209,-4.3082,-4.2364,-4.352,-4.4742,-4.4881,-4.632,-4.7749,-4.8543,-4.7421,-4.6942,-4.8445,-4.5849,-4.3654,-4.3427,-4.4604,-4.5036,-4.3967,-4.4817,-4.5884,-4.6873,-4.7717,-4.8893,-5.0549,-5.0805,-5.0892,-5.0786,-5.0931,-5.062,-4.9825,-5.0133,-5.0231,-5.0133,-5.039,-5.083,-5.1453,-5.1466,-5.2161,0.8515,0.9897,1.1346,1.1235,1.1549,1.1436,0.974,0.8511,0.7195,0.5425,0.4208,0.3317,0.2756,0.2362,0.1886,0.1225,-0.0119,-0.0763,0.0161,0.0115,0.0066,0.0254,0.2391,0.0,0.0,0.0,0.0,0.0,0.0,0.0,-1.4732,-1.6265,-1.7183,-1.737,-1.8384,-1.9396,-2.0374,-2.1327,-2.2019,-2.2468,-2.3551,-2.4075,-2.4114,-2.468,-2.5068,-2.5274,-2.5346,0.0,0.0,-2.6023,-2.6417,-2.6893,-2.8763,-2.9881,-3.0623,-3.2036,-3.2271,-3.2027,-3.2967,-3.3087,-3.3035,-3.4295,-3.5036,-3.5486,-3.5832,-3.5927,-3.6089,-3.6943,-3.7527,-3.8167,-3.9393,-4.0474,-4.133,-4.1652,-4.2226,-4.2762,-4.2888,-4.3491,-4.4489,-4.6091,-4.7002,-4.778,-4.8655,-4.7791,-4.7209,-4.7856,-4.586,-4.4208,-4.4034,-4.4884,-4.5247,-4.4677,-4.6291,-4.7486,-4.7728,-4.8957,-4.9753,-4.9872,-5.1058,-5.1261,-5.0202,-5.0837,-5.0886,-5.0127,-5.0302,-5.0371,-5.0278,-5.0436,-5.11,-5.2253,-5.2121,-5.2845,0.8281,0.9813,1.1294,1.1093,1.1132,1.0637,0.8628,0.7266,0.5901,0.3862,0.2683,0.1943,0.1515,0.0846,-0.0204,-0.1935,-0.3842,-0.4798,-0.3895,-0.5028,-0.4374,0.0,0.0,0.0,0.0,0.0,0.0,0.0,0.0,0.0,0.0,-1.4147,-1.5734,-1.6346,-1.7724,-1.8943,-1.9947,-2.0812,-2.1455,-2.1808,-2.2793,-2.3342,-2.3512,-2.4181,-2.4562,-2.4752,0.0,0.0,0.0,-2.608,-2.6621,-2.6641,-2.9486,-3.0722,-3.1099,-3.258,-3.2787,-3.2448,-3.3365,-3.3695,-3.3862,-3.4765,-3.5615,-3.629,-3.6274,-3.6275,-3.6473,-3.7332,-3.8351,-3.931,-3.9898,-4.1163,-4.2213,-4.1887,-4.2383,-4.2957,-4.3033,-4.3685,-4.4818,-4.6683,-4.7502,-4.8089,-4.8699,-4.8089,-4.7482,-4.7412,-4.5909,-4.4791,-4.4863,-4.5603,-4.607,-4.5897,-4.777,-4.884,-4.839,-4.96,-5.0341,-5.0197,-5.1514,-5.1897,-5.096,-5.1448,-5.1421,-5.0684,-5.0527,-5.0457,-5.0371,-5.0431,-5.1108,-5.2342,-5.2456,-5.3237,0.825,0.945,1.0373,1.0649,1.0202,0.9256,0.7501,0.5519,0.357,0.1966,0.0672,-0.0117,0.0078,-0.0161,-0.0782,-0.2007,-0.4291,-0.5833,-0.5605,-0.6212,-0.4896,0.0,0.0,0.0,0.0,0.0,0.0,0.0,0.0,0.0,0.0,-1.2098,-1.4393,-1.5666,-1.6962,-1.8396,-2.01,-2.0191,-2.0685,-2.1597,-2.1676,-2.2354,-2.3488,-2.3512,-2.3554,0.0,0.0,0.0,0.0,-2.5348,-2.6293,-2.585,-2.9265,-3.1127,-3.1994,-3.2868,-3.3243,-3.3406,-3.4285,-3.4627,-3.4823,-3.563,-3.6476,-3.7184,-3.7186,-3.7194,-3.7364,-3.8248,-3.9682,-4.096,-4.0902,-4.1583,-4.2069,-4.1141,-4.2848,-4.4225,-4.2567,-4.4239,-4.6091,-4.6196,-4.7605,-4.8786,-4.8798,-4.8088,-4.7484,-4.7411,-4.5851,-4.4932,-4.5602,-4.6972,-4.7829,-4.769,-4.9074,-4.9637,-4.8761,-4.9306,-5.0478,-5.2332,-5.2418,-5.2817,-5.3727,-5.3011,-5.226,-5.1481,-5.0769,-5.0367,-5.0302,-5.0367,-5.0713,-5.1334,-5.1982,-5.2943,0.7631,0.8415,0.9007,0.8229,0.7399,0.6339,0.4721,0.3209,0.1744,0.0249,-0.0299,-0.0652,-0.1042,-0.0974,-0.1052,-0.1623,-0.3655,-0.5439,-0.623,0.0,0.0,-0.3083,0.0,0.0,0.0,0.0,0.0,0.0,0.0,0.0,0.0,-1.3195,-1.4355,-1.5337,-1.6383,-1.7505,-1.8732,-1.9399,-1.9949,-2.0395,-2.1728,-2.2182,-2.1835,-2.3554,0.0,0.0,0.0,0.0,0.0,-2.6574,-2.7421,-2.7489,-3.0373,-3.2013,-3.284,-3.3161,-3.3633,-3.4174,-3.4491,-3.4608,-3.4869,-3.632,-3.6989,-3.7303,-3.7909,-3.8085,-3.826,-3.9085,-4.0123,-4.112,-4.1652,-4.2002,-4.2149,-4.18,-4.2798,-4.3663,-4.313,-4.418,-4.5745,-4.7561,-4.7465,-4.7272,-4.781,-4.7192,-4.6183,-4.4923,-4.4685,-4.466,-4.4726,-4.5591,-4.6355,-4.6755,-4.7753,-4.8631,-4.9325,-5.0118,-5.0789,-5.1247,-5.254,-5.3149,-5.2864,-5.2831,-5.2475,-5.179,-5.0988,-5.0874,-5.1389,-5.1324,-5.1844,-5.2864,-5.3021,-5.3534,0.7128,0.7748,0.8134,0.6959,0.5933,0.4782,0.3059,0.1583,0.0,-0.1857,-0.2665,-0.294,-0.2603,-0.3761,-0.4297,-0.2843,-0.4847,-0.6478,0.0,0.0,0.0,0.0,0.0,0.0,0.0,0.0,0.0,0.0,0.0,0.0,0.0,-1.4175,-1.4893,-1.55,-1.6124,-1.7128,-1.8458,-1.9002,-1.943,-1.9786,-2.0898,-2.1445,-2.147,-2.3026,0.0,0.0,0.0,0.0,0.0,-2.691,-2.7981,-2.8309,-3.0909,-3.2497,-3.3272,-3.3282,-3.3838,-3.4589,-3.4626,-3.4851,-3.536,-3.6758,-3.7639,-3.8336,-3.9195,-3.9215,-3.9137,-3.9967,-4.0556,-4.1077,-4.1586,-4.1946,-4.2189,-4.2117,-4.302,-4.3809,-4.351,-4.4409,-4.5793,-4.7468,-4.7244,-4.694,-4.7411,-4.7059,-4.6176,-4.4647,-4.5025,-4.5544,-4.5683,-4.632,-4.6925,-4.7327,-4.8076,-4.8707,-4.923,-4.9759,-5.0287,-5.0698,-5.2213,-5.3024,-5.2815,-5.3057,-5.291,-5.2331,-5.1816,-5.1529,-5.1395,-5.188,-5.2641,-5.3623,-5.3494,-5.3824,0.0,0.721,0.7418,0.6379,0.5264,0.3968,0.2149,0.0369,0.0,-0.4034,-0.5658,-0.6052,-0.4054,-0.7267,-0.8801,-0.4375,-0.6511,0.0,0.0,-0.7597,0.0,0.0,0.0,0.0,0.0,0.0,0.0,0.0,0.0,0.0,0.0,-1.5038,-1.5847,-1.6062,-1.6293,-1.7241,-1.8985,-1.8976,-1.9201,-1.9629,-1.9634,-2.0455,-2.1971,-2.2166,0.0,0.0,0.0,0.0,0.0,-2.6561,-2.8087,-2.8537,-3.1033,-3.2604,-3.3486,-3.3485,-3.4043,-3.4791,-3.4864,-3.5366,-3.6137,-3.7008,-3.8468,-4.0013,-4.0777,-4.0431,-3.9957,-4.0782,-4.096,-4.0906,-4.0975,-4.1586,-4.2186,-4.2179,-4.3474,-4.4491,-4.3755,-4.4922,-4.6164,-4.6347,-4.6944,-4.7405,-4.7401,-4.7306,-4.6882,-4.5859,-4.6396,-4.714,-4.7722,-4.846,-4.8923,-4.891,-4.9455,-4.9485,-4.8685,-4.8643,-4.9287,-5.0703,-5.1556,-5.2439,-5.338,-5.349,-5.3339,-5.2889,-5.2973,-5.2272,-5.0779,-5.2273,-5.3277,-5.3784,-5.3545,-5.3792,0.4332,0.0,0.4336,0.348,0.1716,0.0,0.0,-0.2056,-0.3394,-0.363,-0.3956,-0.37,-0.1942,-0.3301,-0.2872,0.2676,0.0,0.0,0.0,0.0,0.0,0.0,0.0,0.0,0.0,0.0,0.0,0.0,0.0,0.0,0.0,-1.5819,-1.6368,-1.6675,-1.7344,-1.7873,-1.8257,-1.914,-1.9378,-1.8967,-2.0971,-2.1479,-2.0712,-2.2721,0.0,0.0,0.0,0.0,-2.5395,-2.7036,-2.8608,-3.0129,-3.1479,-3.2943,-3.4394,-3.5117,-3.5467,-3.5703,-3.6372,-3.6337,-3.6237,-3.7728,-3.9336,-4.0753,-4.0948,-4.0859,-4.0738,-4.0932,-4.0907,-4.0994,-4.1703,-4.2,-4.2288,-4.2942,-4.3965,-4.4754,-4.4592,-4.5417,-4.6377,-4.7077,-4.6348,-4.5805,-4.6401,-4.5403,-4.437,-4.3982,-4.5123,-4.6018,-4.6014,-4.7275,-4.8127,-4.8082,-4.8185,-4.8357,-4.865,-4.9153,-4.9843,-5.0741,-5.0986,-5.1518,-5.2458,-5.2096,-5.1853,-5.1859,-5.2666,-5.2864,-5.2442,-5.3967,-5.4759,-5.4806,-5.3394,-5.3196,0.3281,0.3396,0.3362,0.2536,0.1138,-0.0214,-0.1006,-0.2332,-0.3573,-0.4113,-0.4427,-0.3989,-0.2093,-0.3319,-0.2972,0.0,0.1206,0.0,0.0,0.0,0.0,0.0,0.0,0.0,0.0,0.0,0.0,0.0,0.0,0.0,0.0,-1.6383,-1.6945,-1.7164,-1.7812,-1.818,-1.8223,-1.9054,-1.9453,-1.9453,-2.0934,-2.1571,-2.1443,-2.327,-2.4174,0.0,0.0,0.0,-2.7402,-2.7532,-2.9041,-3.1304,-3.1843,-3.3114,-3.4707,-3.5215,-3.5896,-3.6554,-3.6618,-3.6893,-3.74,-3.8673,-3.9981,-4.1047,-4.1,-4.1,-4.0999,-4.0999,-4.0936,-4.1044,-4.1956,-4.248,-4.2964,-4.383,-4.4764,-4.5335,-4.4974,-4.5579,-4.6236,-4.6335,-4.5929,-4.5687,-4.6078,-4.5301,-4.4558,-4.4369,-4.5709,-4.6647,-4.6529,-4.796,-4.8834,-4.843,-4.8671,-4.8677,-4.8281,-4.9178,-4.9939,-5.0274,-5.0621,-5.1035,-5.156,-5.1603,-5.1744,-5.198,-5.2246,-5.2755,-5.3494,-5.4364,-5.4728,-5.4611,-5.3236,-5.2794,0.2858,0.3107,0.3206,0.2178,0.1479,0.0617,-0.0884,-0.1976,-0.312,-0.4557,-0.5086,-0.463,-0.2361,-0.4263,0.0,0.0,0.0,0.0,0.0,0.0,0.0,0.0,0.0,0.0,0.0,0.0,0.0,0.0,0.0,0.0,0.0,-1.6925,-1.7555,-1.7642,-1.809,-1.8463,-1.8744,-1.9201,-1.9756,-2.0427,-2.0752,-2.1553,-2.2736,-2.378,-2.4743,0.0,0.0,0.0,-2.8809,-2.8121,-2.9466,-3.2034,-3.2229,-3.3277,-3.4726,-3.5,-3.5957,-3.7012,-3.6405,-3.7323,-3.8906,-3.958,-4.0391,-4.1088,-4.1037,-4.1028,-4.1042,-4.1181,-4.1163,-4.1302,-4.2174,-4.3061,-4.3918,-4.4811,-4.5624,-4.6006,-4.5254,-4.5676,-4.6006,-4.5312,-4.5636,-4.602,-4.6084,-4.5745,-4.548,-4.5571,-4.6686,-4.7539,-4.7586,-4.9056,-4.982,-4.9175,-4.9644,-4.9468,-4.8033,-4.8935,-4.9576,-4.9561,-5.0105,-5.0463,-5.0522,-5.1254,-5.1865,-5.2338,-5.1879,-5.2425,-5.4034,-5.4218,-5.4212,-5.3956,-5.3105,-5.2551,0.2539,0.2382,0.1924,0.059,-0.052,-0.1673,-0.317,-0.3345,-0.318,-0.3183,-0.2604,-0.1392,0.0939,-0.1198,-0.0629,0.0,0.0,0.0,0.0,0.0,0.0,0.0,0.0,0.0,0.0,0.0,0.0,0.0,0.0,0.0,0.0,-1.7629,-1.8168,-1.8348,-1.8642,-1.9129,-1.9844,-2.0585,-2.0963,-2.0992,-2.2556,-2.2926,-2.2357,-2.4093,-2.4969,0.0,0.0,-2.7409,-2.874,-2.8769,-3.0082,-3.2153,-3.2904,-3.3808,-3.4881,-3.6367,-3.66,-3.6285,-3.6882,-3.8192,-3.9645,-3.9766,-4.0388,-4.1101,-4.1097,-4.1081,-4.1247,-4.1979,-4.2097,-4.221,-4.3137,-4.3997,-4.4839,-4.5765,-4.6091,-4.6157,-4.6027,-4.6105,-4.6167,-4.6036,-4.5572,-4.5372,-4.5988,-4.4848,-4.4253,-4.5414,-4.5687,-4.599,-4.6538,-4.8081,-4.9096,-4.9029,-4.9171,-4.9152,-4.8834,-4.8334,-4.83,-4.8915,-4.8833,-4.8758,-4.8787,-4.9617,-5.042,-5.1235,-5.1907,-5.2722,-5.367,-5.4533,-5.4588,-5.3895,-5.3079,-5.2317,0.2485,0.1949,0.1158,-0.0242,-0.1428,-0.3011,-0.5924,-0.537,-0.4484,-0.537,-0.372,-0.2019,-0.1738,0.0,0.3098,0.68,0.0,0.0,0.0,0.0,0.0,0.0,0.0,0.0,0.0,0.0,0.0,0.0,0.0,0.0,0.0,0.0,-1.8348,-1.8603,-1.9143,-1.992,-2.0898,-2.1656,-2.2014,-2.1956,-2.2813,-2.3172,-2.3178,-2.4874,-2.5801,-2.6128,0.0,-2.8214,-2.9567,-2.9128,-2.9913,-3.1526,-3.2884,-3.3631,-3.4277,-3.6479,-3.7058,-3.6897,-3.8205,-3.9186,-3.9934,-4.0351,-4.0761,-4.1092,-4.1107,-4.1107,-4.1287,-4.2148,-4.2351,-4.2627,-4.395,-4.4577,-4.5078,-4.5991,-4.6201,-4.6203,-4.6196,-4.6203,-4.6195,-4.6195,-4.5903,-4.5729,-4.6057,-4.5278,-4.4827,-4.5409,-4.5784,-4.608,-4.6363,-4.7918,-4.9018,-4.9041,-4.9086,-4.8914,-4.8449,-4.8006,-4.7834,-4.8036,-4.834,-4.8475,-4.8352,-4.9181,-5.0,-5.0828,-5.2201,-5.2897,-5.2968,-5.3898,-5.3514,-5.1961,-5.2062,-5.1395,0.238,0.1204,-0.0164,-0.1419,-0.2045,-0.3257,-0.6673,-0.5878,-0.47,-0.5722,-0.3866,-0.2396,-0.3482,0.2218,0.0,0.0,0.0,0.0,0.0,0.0,0.0,0.0,0.0,0.0,0.0,0.0,0.0,0.0,0.0,0.0,0.0,0.0,-1.8596,-1.9038,-1.9665,-2.0606,-2.1917,-2.2501,-2.2863,-2.3044,-2.3206,-2.3646,-2.4288,-2.5889,-2.6817,-2.7233,-2.7956,-2.9068,-3.0304,-2.9603,-2.9894,-3.0969,-3.2723,-3.3761,-3.4539,-3.654,-3.753,-3.8076,-3.9359,-3.9969,-4.0285,-4.0898,-4.1094,-4.1133,-4.1347,-4.1406,-4.1638,-4.2698,-4.2982,-4.3281,-4.4589,-4.5053,-4.5375,-4.6036,-4.6218,-4.6221,-4.6206,-4.6201,-4.6201,-4.6201,-4.6209,-4.6183,-4.6099,-4.5856,-4.5626,-4.547,-4.5858,-4.617,-4.6138,-4.7487,-4.8455,-4.8518,-4.8518,-4.8214,-4.7369,-4.7592,-4.7537,-4.6898,-4.795,-4.8428,-4.806,-4.9047,-4.9927,-5.0628,-5.1982,-5.2491,-5.2175,-5.2958,-5.2254,-5.0182,-5.1152,-5.0631,0.1999,-0.038,-0.29,-0.368,-0.2775,-0.1978,-0.3152,-0.304,-0.2188,-0.046,-0.0168,-0.0179,0.0,0.5944,0.0,0.0,0.0,0.0,0.0,0.0,0.0,0.0,0.0,0.0,0.0,0.0,0.0,0.0,0.0,0.0,0.0,0.0,0.0,-2.0065,-2.0209,-2.1133,-2.2886,-2.3012,-2.3381,-2.4024,-2.4754,-2.5179,-2.5333,-2.7032,-2.7894,-2.8147,-2.9191,-2.9863,-3.0232,-3.0403,-3.0606,-3.0969,-3.2712,-3.4836,-3.6957,-3.7133,-3.8229,-3.9644,-3.975,-4.0322,-4.1011,-4.1074,-4.1093,-4.1248,-4.2069,-4.2318,-4.2639,-4.4263,-4.4719,-4.4758,-4.4943,-4.5544,-4.6113,-4.619,-4.6245,-4.6278,-4.6202,-4.6199,-4.6199,-4.6199,-4.6191,-4.6172,-4.6105,-4.5979,-4.5822,-4.561,-4.5361,-4.5211,-4.5287,-4.6005,-4.6584,-4.6755,-4.6836,-4.6531,-4.5667,-4.6923,-4.7064,-4.5369,-4.7353,-4.8207,-4.7306,-4.8757,-4.9878,-5.0426,-5.0661,-5.1039,-5.1556,-5.2052,-5.1414,-4.9778,-5.1034,-5.0656,0.1425,-0.0087,-0.1673,-0.2623,-0.3617,-0.49,-0.7007,-0.6628,-0.5837,-0.5744,-0.3528,-0.1195,0.0,0.0,0.0,0.0,0.0,0.0,0.0,0.0,0.0,0.0,0.0,0.0,0.0,0.0,0.0,0.0,0.0,0.0,0.0,0.0,0.0,-2.0494,-2.1472,-2.2385,-2.3233,-2.3768,-2.4454,-2.5291,-2.5503,-2.5597,-2.5653,-2.7323,-2.8222,-2.8491,-2.9404,-3.0018,-3.0393,-3.0537,-3.0678,-3.0962,-3.2716,-3.4956,-3.7191,-3.7207,-3.8307,-3.9797,-3.9797,-4.0368,-4.1091,-4.1094,-4.1094,-4.1267,-4.214,-4.2407,-4.2744,-4.4431,-4.4518,-4.4343,-4.545,-4.5991,-4.6264,-4.6268,-4.6289,-4.6285,-4.6278,-4.6256,-4.6256,-4.6212,-4.6209,-4.6171,-4.6118,-4.5988,-4.5828,-4.5574,-4.5419,-4.5321,-4.5213,-4.5938,-4.6478,-4.6664,-4.7222,-4.7184,-4.6301,-4.6738,-4.6727,-4.5963,-4.7669,-4.8261,-4.724,-4.8796,-4.9664,-4.9711,-5.0792,-5.0764,-4.9584,-5.0843,-5.0439,-4.8492,-5.0011,-5.0092,0.0264,-0.1785,-0.3797,-0.3396,-0.5803,-0.8467,-0.9168,-0.8012,-0.69,-0.7355,-0.5543,-0.3725,-0.3165,0.0,0.0,0.0,0.0,0.0,0.0,0.0,0.0,0.0,0.0,0.0,0.0,0.0,0.0,0.0,0.0,0.0,0.0,0.0,0.0,0.0,-2.2362,-2.328,-2.3768,-2.4607,-2.5349,-2.5992,-2.6384,-2.6707,-2.7026,-2.8184,-2.9019,-2.9497,-2.981,-3.0151,-3.0521,-3.0864,-3.1397,-3.2113,-3.3298,-3.5304,-3.7514,-3.7284,-3.8467,-4.0134,-3.9896,-4.0369,-4.1091,-4.1094,-4.1094,-4.1302,-4.2463,-4.2806,-4.3084,-4.4507,-4.4468,-4.422,-4.5136,-4.5616,-4.5854,-4.5885,-4.609,-4.6308,-4.6308,-4.6307,-4.6287,-4.6246,-4.6223,-4.6212,-4.6138,-4.5996,-4.5825,-4.5623,-4.5563,-4.5475,-4.5319,-4.5818,-4.6223,-4.634,-4.6954,-4.7069,-4.6398,-4.6491,-4.6445,-4.602,-4.7509,-4.7934,-4.689,-4.8475,-4.9227,-4.8996,-4.9872,-4.9652,-4.8371,-4.9618,-4.9311,-4.7591,-4.9358,-4.9676,-0.1594,-0.6078,-1.0383,-0.6767,-0.9602,-1.228,-0.8376,-0.5852,-0.414,-0.3235,-0.5046,-0.7609,-1.0356,-0.9122,0.0,0.0,0.0,0.0,0.0,0.0,0.0,0.0,0.0,0.0,0.0,0.0,0.0,0.0,0.0,0.0,0.0,0.0,0.0,0.0,-2.2765,-2.3665,-2.4599,-2.5469,-2.5946,-2.6029,-2.7508,-2.8781,-2.9787,-2.9874,-3.0462,-3.1367,-3.0642,-3.0405,-3.0597,-3.1532,-3.297,-3.4588,-3.4528,-3.6048,-3.8205,-3.7482,-3.8803,-4.0872,-4.0088,-4.0387,-4.1108,-4.1093,-4.109,-4.1429,-4.3157,-4.365,-4.3763,-4.465,-4.4877,-4.4679,-4.3802,-4.4236,-4.4909,-4.4988,-4.5662,-4.6295,-4.63,-4.6301,-4.6303,-4.6306,-4.6308,-4.6286,-4.6201,-4.6037,-4.588,-4.5808,-4.5692,-4.5582,-4.5513,-4.551,-4.5528,-4.5586,-4.5676,-4.5659,-4.5532,-4.6186,-4.6197,-4.5182,-4.6592,-4.7068,-4.6138,-4.7708,-4.8475,-4.8276,-4.7504,-4.7486,-4.8265,-4.8474,-4.8121,-4.7246,-4.9188,-4.9575,-0.3295,-0.5965,-0.8832,-1.0079,-1.1775,-1.307,-1.2697,-1.1404,-0.9706,-0.7695,-0.9796,-1.2578,-1.4522,0.0,0.0,0.0,0.0,0.0,0.0,0.0,0.0,0.0,0.0,0.0,0.0,0.0,0.0,0.0,0.0,0.0,0.0,0.0,0.0,0.0,-2.3644,-2.4532,-2.5558,-2.5801,-2.6561,-2.784,-2.8364,-2.9061,-2.9876,-3.0281,-3.1159,-3.2388,-3.219,-3.2204,-3.2338,-3.2682,-3.348,-3.4536,-3.4513,-3.5706,-3.751,-3.7948,-3.8945,-4.0159,-4.0564,-4.0887,-4.1099,-4.1108,-4.1101,-4.1316,-4.2436,-4.2738,-4.2857,-4.3746,-4.3545,-4.3012,-4.2818,-4.34,-4.4228,-4.485,-4.5678,-4.6306,-4.6297,-4.6295,-4.6297,-4.6303,-4.6305,-4.6269,-4.6153,-4.6073,-4.5996,-4.5822,-4.5776,-4.5668,-4.5457,-4.551,-4.5545,-4.5457,-4.6627,-4.7108,-4.6397,-4.7066,-4.7095,-4.6096,-4.6426,-4.6499,-4.61,-4.7121,-4.737,-4.6703,-4.6986,-4.6758,-4.5911,-4.767,-4.814,-4.7441,-4.9155,-4.9819,-0.4864,-0.7281,-1.004,-1.1251,-1.2957,-1.4725,-1.6239,-1.4697,0.0,0.0,-1.3436,-1.7074,-1.8777,0.0,0.0,0.0,0.0,0.0,0.0,0.0,0.0,0.0,0.0,0.0,0.0,0.0,0.0,0.0,0.0,0.0,0.0,0.0,0.0,0.0,-2.4066,-2.4937,-2.5914,-2.6249,-2.7328,-2.9117,-2.9423,-3.0232,-3.1488,-3.1157,-3.1844,-3.3307,-3.3083,-3.3211,-3.3616,-3.3699,-3.4221,-3.498,-3.5014,-3.5857,-3.7089,-3.7345,-3.839,-3.9734,-3.9977,-4.0492,-4.107,-4.1088,-4.1074,-4.1217,-4.2109,-4.2331,-4.242,-4.2946,-4.2715,-4.2353,-4.2396,-4.306,-4.3827,-4.4352,-4.5153,-4.5778,-4.5782,-4.5779,-4.5782,-4.5787,-4.6063,-4.6268,-4.6152,-4.6123,-4.6052,-4.591,-4.5833,-4.575,-4.558,-4.5629,-4.5645,-4.5565,-4.6562,-4.712,-4.6838,-4.6877,-4.6774,-4.6466,-4.6026,-4.5765,-4.5666,-4.6436,-4.6618,-4.6074,-4.6233,-4.6038,-4.5475,-4.6852,-4.728,-4.6948,-4.8564,-4.9332,-0.5866,-0.9253,-1.2901,-1.1467,-1.3774,-1.6837,-1.8538,-1.6287,-1.3548,-1.2317,0.0,-2.096,-2.3012,0.0,0.0,0.0,0.0,0.0,0.0,0.0,0.0,0.0,0.0,0.0,0.0,0.0,0.0,0.0,0.0,0.0,0.0,0.0,0.0,0.0,-2.4213,-2.5064,-2.5757,-2.6812,-2.8171,0.0,-3.0471,-3.1863,-3.3862,-3.2344,-3.2608,-3.4208,-3.3589,-3.38,-3.4517,-3.4583,-3.5057,-3.5708,-3.5775,-3.6251,-3.6823,-3.6258,-3.7537,-3.9501,-3.8926,-3.973,-4.1013,-4.1061,-4.1039,-4.1135,-4.1914,-4.2171,-4.2166,-4.2174,-4.2221,-4.2295,-4.2373,-4.304,-4.3691,-4.369,-4.4352,-4.497,-4.491,-4.4887,-4.4875,-4.4878,-4.5528,-4.607,-4.6078,-4.6035,-4.5988,-4.6018,-4.5835,-4.5742,-4.5814,-4.5814,-4.58,-4.5795,-4.593,-4.6245,-4.6819,-4.6049,-4.5783,-4.6342,-4.5544,-4.5014,-4.4991,-4.5702,-4.607,-4.607,-4.5385,-4.5352,-4.6055,-4.6019,-4.5968,-4.593,-4.7594,-4.8371,-0.4481,-0.8785,-1.3438,-1.5983,-1.7176,-1.7461,-1.6265,-1.7563,-1.9064,-1.9307,-2.0874,-2.3243,0.0,0.0,0.0,0.0,0.0,0.0,0.0,0.0,0.0,0.0,0.0,0.0,0.0,0.0,0.0,0.0,0.0,0.0,0.0,0.0,0.0,-2.426,-2.5198,-2.5691,-2.5652,-2.7304,-2.8648,0.0,-3.0689,-3.2129,-3.3872,-3.3272,-3.3821,-3.5277,-3.5173,-3.5253,-3.5427,-3.5502,-3.5618,-3.5775,-3.5737,-3.5863,-3.6202,-3.7392,-3.8194,-3.8852,-4.0052,-4.0708,-4.0993,-4.0967,-4.0902,-4.0888,-4.1073,-4.1121,-4.1139,-4.1187,-4.1253,-4.148,-4.2218,-4.3044,-4.369,-4.3691,-4.4334,-4.4757,-4.4117,-4.397,-4.397,-4.3986,-4.4125,-4.4467,-4.5071,-4.516,-4.5371,-4.5985,-4.5511,-4.5288,-4.5809,-4.5873,-4.5854,-4.58,-4.6379,-4.6561,-4.6008,-4.6294,-4.6263,-4.5668,-4.5394,-4.5192,-4.508,-4.5157,-4.5204,-4.5252,-4.5057,-4.4692,-4.426,-4.5439,-4.5644,-4.5021,-4.6701,-4.7815,-0.352,-0.7817,-1.2786,-1.7891,0.0,-1.7895,-1.7051,-1.9856,-2.2474,-2.2028,-2.3997,0.0,0.0,0.0,0.0,0.0,0.0,0.0,0.0,0.0,0.0,0.0,0.0,0.0,0.0,0.0,0.0,0.0,0.0,0.0,0.0,-2.4138,-2.4639,-2.5201,-2.5808,-2.6431,-2.7022,-2.8088,-2.9453,-3.1028,-3.164,-3.2641,-3.4012,-3.4301,-3.4894,-3.5643,-3.5708,-3.5747,-3.5747,-3.5826,-3.5826,-3.5803,-3.5754,-3.5773,-3.5918,-3.682,-3.742,-3.798,-3.9307,-4.0007,-4.038,-4.0779,-4.084,-4.0757,-4.0746,-4.075,-4.0776,-4.0828,-4.0898,-4.1164,-4.2103,-4.2705,-4.3081,-4.3082,-4.3725,-4.4108,-4.3259,-4.308,-4.3084,-4.3088,-4.3408,-4.3835,-4.4258,-4.463,-4.5025,-4.5384,-4.5462,-4.5599,-4.5902,-4.5988,-4.5969,-4.5964,-4.6325,-4.6526,-4.6438,-4.6352,-4.6254,-4.6071,-4.563,-4.532,-4.5258,-4.4728,-4.4448,-4.4374,-4.473,-4.4336,-4.3175,-4.4266,-4.4405,-4.3648,-4.5281,-4.6275,-0.2333,-0.7317,-1.3149,-1.9004,-1.9926,0.0,-1.9456,-2.2464,-2.4748,-2.3044,0.0,0.0,0.0,0.0,0.0,0.0,0.0,0.0,0.0,0.0,0.0,0.0,0.0,0.0,0.0,0.0,0.0,0.0,0.0,0.0,-2.4014,-2.4695,-2.5294,-2.5728,-2.6247,-2.703,-2.8118,-2.8793,-3.0142,-3.2152,-3.2485,-3.3101,-3.3949,-3.4788,-3.5206,-3.5262,-3.5466,-3.5562,-3.559,-3.5791,-3.5842,-3.5793,-3.5807,-3.5807,-3.581,-3.5965,-3.6479,-3.7245,-3.8266,-3.9044,-3.9743,-4.0595,-4.0781,-4.0668,-4.0688,-4.0662,-4.07,-4.08,-4.0858,-4.1098,-4.2042,-4.2342,-4.2376,-4.238,-4.2926,-4.3212,-4.2354,-4.2188,-4.2178,-4.2173,-4.2876,-4.3473,-4.3475,-4.4036,-4.4487,-4.451,-4.5161,-4.5686,-4.5794,-4.5982,-4.6118,-4.6111,-4.6102,-4.6348,-4.6957,-4.6286,-4.6055,-4.66,-4.5896,-4.5457,-4.5419,-4.4537,-4.3899,-4.357,-4.4193,-4.3897,-4.2597,-4.3095,-4.2929,-4.2212,-4.3799,-4.4643,0.0202,-0.8895,-1.8202,0.0,-2.3531,-2.4524,0.0,0.0,-2.6462,0.0,0.0,0.0,0.0,0.0,0.0,0.0,0.0,0.0,0.0,0.0,0.0,0.0,0.0,0.0,0.0,0.0,0.0,0.0,0.0,0.0,-2.4941,-2.4975,-2.505,-2.5124,-2.6616,-2.7049,-2.6261,-2.877,-3.0133,-3.0371,-3.2109,-3.3024,-3.3152,-3.3349,-3.345,-3.3479,-3.4255,-3.4593,-3.4651,-3.5477,-3.5803,-3.5795,-3.5801,-3.5801,-3.5888,-3.6647,-3.7003,-3.7319,-3.8888,-3.951,-3.9733,-4.0474,-4.064,-4.0534,-4.0603,-4.0569,-4.0579,-4.0818,-4.0849,-4.1042,-4.2036,-4.2311,-4.2305,-4.2309,-4.2407,-4.2259,-4.1457,-4.1262,-4.1281,-4.1267,-4.1979,-4.2568,-4.2578,-4.2661,-4.2954,-4.3643,-4.3844,-4.4208,-4.4959,-4.5703,-4.6189,-4.6196,-4.6138,-4.6143,-4.6241,-4.608,-4.597,-4.594,-4.5823,-4.5668,-4.5495,-4.4706,-4.3862,-4.302,-4.3063,-4.2888,-4.2514,-4.2585,-4.2158,-4.1313,-4.2793,-4.425,-0.1233,-0.7517,-1.348,0.0,-2.0902,-2.1485,-2.079,0.0,-2.5829,0.0,0.0,0.0,0.0,0.0,0.0,0.0,0.0,0.0,0.0,0.0,0.0,0.0,0.0,0.0,0.0,0.0,0.0,0.0,0.0,-2.4981,-2.5082,-2.5501,-2.595,-2.6445,-2.7665,-2.8313,-2.8308,-2.9601,-3.0471,-3.0906,-3.1838,-3.2281,-3.227,-3.1851,-3.2173,-3.3151,-3.3974,-3.4391,-3.4514,-3.5387,-3.5773,-3.5807,-3.5793,-3.5793,-3.5849,-3.6229,-3.6398,-3.6584,-3.7734,-3.8472,-3.8995,-3.9741,-4.0183,-4.0457,-4.0523,-4.0519,-4.0545,-4.073,-4.082,-4.0971,-4.1396,-4.1526,-4.1524,-4.1513,-4.1546,-4.1473,-4.111,-4.1075,-4.1096,-4.1104,-4.1401,-4.1679,-4.167,-4.2444,-4.3036,-4.2883,-4.4122,-4.5025,-4.4903,-4.5679,-4.6245,-4.6189,-4.6164,-4.6135,-4.6102,-4.6047,-4.5972,-4.5912,-4.5847,-4.5573,-4.507,-4.4225,-4.3515,-4.3092,-4.2931,-4.2405,-4.1492,-4.1724,-4.1374,-4.0573,-4.1933,-4.2902,-0.2521,0.0,-0.8542,-1.4292,-1.6774,-1.7883,0.0,0.0,0.0,0.0,0.0,0.0,0.0,0.0,0.0,0.0,0.0,0.0,0.0,0.0,0.0,0.0,0.0,0.0,0.0,0.0,0.0,0.0,0.0,-2.4907,-2.5032,-2.5844,-2.6605,-2.7252,-2.8308,-2.9202,-2.9888,-3.0208,-3.0691,-3.1318,-3.1394,-3.1405,-3.1345,-3.0769,-3.1311,-3.278,-3.3613,-3.4128,-3.4488,-3.535,-3.5718,-3.5745,-3.5784,-3.5784,-3.5782,-3.5807,-3.585,-3.5974,-3.6735,-3.757,-3.8413,-3.9142,-3.986,-4.0454,-4.0519,-4.053,-4.0554,-4.0711,-4.081,-4.0885,-4.0906,-4.0898,-4.0863,-4.0871,-4.0921,-4.098,-4.1013,-4.1061,-4.1097,-4.1105,-4.1093,-4.106,-4.1074,-4.2105,-4.2727,-4.2098,-4.4019,-4.5304,-4.4656,-4.5362,-4.6,-4.6181,-4.5994,-4.5936,-4.6096,-4.6065,-4.6037,-4.5994,-4.5912,-4.5505,-4.4724,-4.3807,-4.3208,-4.2985,-4.2602,-4.1956,-4.1025,-4.1088,-4.0882,-4.0463,-4.1515,-4.2117,-0.1848,-0.4877,0.0,-0.8136,-1.2656,-1.6618,0.0,0.0,0.0,0.0,0.0,0.0,0.0,0.0,0.0,0.0,0.0,0.0,0.0,0.0,0.0,0.0,0.0,0.0,0.0,0.0,0.0,0.0,0.0,-2.4966,-2.4912,-2.5798,-2.6327,-2.6376,-2.7937,-2.8897,-2.9065,-3.0023,-3.0519,-3.0557,-3.0627,-3.0588,-3.0475,-3.0488,-3.0937,-3.1738,-3.2663,-3.3508,-3.4294,-3.5298,-3.5658,-3.5629,-3.5757,-3.5766,-3.5718,-3.585,-3.5857,-3.5907,-3.6716,-3.7579,-3.8414,-3.9089,-3.9894,-4.0588,-4.0588,-4.0588,-4.0642,-4.0839,-4.0849,-4.0815,-4.0887,-4.0859,-4.0823,-4.0807,-4.0858,-4.0936,-4.1071,-4.1094,-4.1101,-4.109,-4.1053,-4.1013,-4.1003,-4.1086,-4.1139,-4.1169,-4.2637,-4.3714,-4.367,-4.4431,-4.5284,-4.6105,-4.5456,-4.5274,-4.6037,-4.6162,-4.6138,-4.6007,-4.5983,-4.5606,-4.4735,-4.386,-4.3061,-4.2364,-4.1526,-4.1377,-4.1934,-4.1067,-4.0877,-4.1323,-4.1789,-4.2697,0.0,0.0,0.0,-0.3234,-0.5536,-0.8432,-1.2478,0.0,0.0,0.0,0.0,0.0,0.0,0.0,0.0,0.0,0.0,0.0,0.0,0.0,0.0,0.0,0.0,0.0,0.0,0.0,0.0,0.0,0.0,0.0,-2.39,-2.5863,-2.7025,-2.7072,-2.8707,-2.967,-2.9832,-3.024,-3.0439,-3.0439,-3.049,-3.049,-3.0417,-3.0964,-3.166,-3.2474,-3.3333,-3.3878,-3.4263,-3.511,-3.5502,-3.5607,-3.5637,-3.5708,-3.5768,-3.5818,-3.5846,-3.5905,-3.6141,-3.6806,-3.7547,-3.7672,-3.8691,-3.9894,-3.9837,-4.0289,-4.0811,-4.0937,-4.0949,-4.0924,-4.0904,-4.084,-4.0807,-4.0849,-4.0488,-4.0303,-4.0959,-4.1072,-4.1035,-4.1041,-4.1022,-4.1,-4.0994,-4.1461,-4.1675,-4.1162,-4.2524,-4.3596,-4.3604,-4.3857,-4.4604,-4.5986,-4.5391,-4.5241,-4.6091,-4.6196,-4.6181,-4.6132,-4.6056,-4.5647,-4.4855,-4.3942,-4.3119,-4.2382,-4.1513,-4.1187,-4.1422,-4.1461,-4.1465,-4.1417,-4.2379,-4.2994,0.3636,0.0,0.0,0.0,0.1286,-0.0839,-0.5502,0.0,0.0,0.0,0.0,0.0,0.0,0.0,0.0,0.0,0.0,0.0,0.0,0.0,0.0,0.0,0.0,0.0,0.0,0.0,0.0,0.0,0.0,0.0,-2.3805,-2.6122,-2.7766,-2.8389,-2.9493,-3.0138,-3.0305,-3.0359,-3.0394,-3.0394,-3.0469,-3.0612,-3.0825,-3.1359,-3.2205,-3.3269,-3.381,-3.4242,-3.4592,-3.51,-3.5402,-3.5502,-3.557,-3.5648,-3.5745,-3.5788,-3.5806,-3.582,-3.5749,-3.6323,-3.7033,-3.6829,-3.7831,-3.914,-3.9359,-3.9937,-4.0563,-4.0929,-4.0812,-4.0623,-4.0867,-4.0869,-4.0673,-4.015,-3.9843,-3.9772,-4.0145,-4.042,-4.0683,-4.0945,-4.1006,-4.1003,-4.1011,-4.1478,-4.168,-4.1143,-4.226,-4.315,-4.3167,-4.3143,-4.3669,-4.509,-4.4513,-4.4377,-4.5253,-4.5345,-4.5482,-4.5753,-4.5667,-4.5379,-4.4917,-4.3992,-4.3157,-4.2417,-4.1543,-4.1108,-4.1108,-4.1719,-4.199,-4.1923,-4.2645,-4.2949,0.0,0.0,0.0,0.0,0.0,0.0,0.5089,0.0,0.0,0.0,0.0,0.0,0.0,0.0,0.0,0.0,0.0,0.0,0.0,0.0,0.0,0.0,0.0,0.0,0.0,0.0,0.0,0.0,0.0,-2.4842,-2.467,-2.6517,-2.8384,-3.0147,-3.0204,-3.0221,-3.0304,-3.0367,-3.0398,-3.0398,-3.0447,-3.0879,-3.1597,-3.1616,-3.245,-3.3914,-3.4006,-3.4483,-3.519,-3.5335,-3.5354,-3.5308,-3.5528,-3.5608,-3.5628,-3.5747,-3.5756,-3.5698,-3.563,-3.6203,-3.6939,-3.6742,-3.7402,-3.8433,-3.919,-3.9563,-3.9903,-4.0808,-4.0393,-3.9883,-4.0721,-4.0827,-4.0313,-3.8695,-3.8927,-3.9338,-3.8642,-3.9136,-3.9961,-4.0808,-4.0974,-4.0999,-4.098,-4.0991,-4.0988,-4.0961,-4.17,-4.2268,-4.2284,-4.2213,-4.2518,-4.3413,-4.2782,-4.2663,-4.3537,-4.3662,-4.405,-4.4851,-4.4837,-4.4822,-4.4907,-4.4007,-4.3157,-4.2401,-4.1542,-4.1113,-4.1133,-4.1786,-4.2366,-4.2864,-4.2563,-4.2593,0.6626,0.0,0.0,0.0,0.0,0.0,0.6427,0.4943,0.0,0.0,0.0,0.0,0.0,0.0,0.0,0.0,0.0,0.0,0.0,0.0,0.0,0.0,0.0,0.0,0.0,0.0,0.0,0.0,-2.4332,-2.4441,-2.373,-2.6088,-2.8233,-2.9937,-3.0123,-3.0207,-3.024,-3.033,-3.0398,-3.0398,-3.0371,-3.079,-3.1616,-3.2196,-3.2981,-3.3952,-3.4604,-3.4935,-3.5073,-3.5209,-3.5273,-3.53,-3.5422,-3.5509,-3.5596,-3.564,-3.5706,-3.5764,-3.5745,-3.5949,-3.619,-3.6087,-3.6748,-3.761,-3.7734,-3.8741,-3.988,-4.0042,-3.995,-3.9667,-3.9226,-3.9054,-3.8887,-3.852,-3.8104,-3.7923,-3.8404,-3.819,-3.8359,-3.9832,-4.061,-4.0789,-4.0174,-4.0544,-4.074,-4.0151,-4.0749,-4.1527,-4.2144,-4.1696,-4.191,-4.3413,-4.2857,-4.2719,-4.3539,-4.3665,-4.4046,-4.485,-4.489,-4.4889,-4.4898,-4.4045,-4.3195,-4.2412,-4.1539,-4.1405,-4.2031,-4.2229,-4.2221,-4.2041,-4.2768,-4.2761,0.0,0.0,0.0,0.0,0.0,0.0,1.0755,1.0534,0.7776,0.0,0.0,0.0,0.0,0.0,0.0,0.0,0.0,0.0,0.0,0.0,0.0,0.0,0.0,0.0,0.0,0.0,0.0,-2.3861,-2.4388,-2.4813,-2.5005,-2.651,-2.8171,-2.9934,-3.0079,-3.0133,-3.0199,-3.0279,-3.0318,-3.0318,-3.0286,-3.0887,-3.2067,-3.2526,-3.3325,-3.4385,-3.4918,-3.511,-3.5038,-3.5162,-3.5212,-3.5242,-3.5335,-3.5416,-3.547,-3.55,-3.56,-3.5715,-3.5724,-3.576,-3.5813,-3.5794,-3.6441,-3.7217,-3.7168,-3.8154,-3.9295,-3.9228,-3.9223,-3.895,-3.7681,-3.7844,-3.8198,-3.7564,-3.7247,-3.718,-3.7419,-3.7336,-3.7637,-3.9,-3.9931,-4.0331,-3.9797,-4.038,-4.0733,-4.0238,-4.0558,-4.1053,-4.1602,-4.1252,-4.1354,-4.2409,-4.2114,-4.2052,-4.2515,-4.2588,-4.2967,-4.3802,-4.3824,-4.3983,-4.4371,-4.3544,-4.2849,-4.2414,-4.1537,-4.1346,-4.1854,-4.2162,-4.2123,-4.18,-4.2374,-4.2268,0.0,0.0,0.0,0.0,0.0,0.0,1.6019,1.6653,1.5128,0.0,0.0,0.0,0.0,0.0,0.0,0.0,0.0,0.0,0.0,0.0,0.0,0.0,0.0,0.0,0.0,-2.4458,-2.4645,-2.4639,-2.4749,-2.5578,-2.7289,-2.732,-2.8156,-3.0022,-3.0038,-3.0064,-3.0194,-3.0207,-3.0188,-3.0188,-3.0284,-3.1155,-3.2691,-3.2721,-3.3551,-3.5001,-3.5075,-3.5092,-3.5092,-3.5147,-3.5164,-3.5127,-3.5239,-3.53,-3.5315,-3.5369,-3.5477,-3.5593,-3.5607,-3.5659,-3.5742,-3.58,-3.6352,-3.6986,-3.705,-3.7675,-3.8352,-3.8352,-3.8335,-3.7981,-3.6331,-3.7008,-3.7734,-3.6259,-3.6445,-3.6796,-3.6142,-3.6601,-3.7401,-3.8218,-3.9055,-3.9647,-3.9587,-4.0226,-4.0733,-4.0682,-4.0729,-4.0819,-4.0885,-4.0913,-4.0945,-4.1,-4.1067,-4.1105,-4.1097,-4.1097,-4.1472,-4.2337,-4.2339,-4.2685,-4.3518,-4.2741,-4.2281,-4.2265,-4.1497,-4.1093,-4.1099,-4.1733,-4.196,-4.1784,-4.1673,-4.1522,0.0,0.0,0.0,0.0,0.0,0.0,1.5562,1.6642,1.5288,0.0,0.0,0.0,0.0,0.0,0.0,0.0,0.0,0.0,0.0,0.0,0.0,0.0,0.0,0.0,0.0,-2.479,-2.487,-2.4926,-2.4898,-2.5588,-2.7239,-2.732,-2.811,-2.9869,-2.9975,-3.0034,-3.0123,-3.0161,-3.0188,-3.0207,-3.0849,-3.1679,-3.2645,-3.328,-3.4086,-3.5001,-3.502,-3.502,-3.502,-3.5092,-3.5145,-3.5193,-3.5277,-3.5308,-3.5308,-3.5304,-3.5438,-3.56,-3.5601,-3.5748,-3.5942,-3.5962,-3.6089,-3.6229,-3.6227,-3.6819,-3.7433,-3.7381,-3.7365,-3.715,-3.6216,-3.6137,-3.6249,-3.604,-3.607,-3.6104,-3.6018,-3.6127,-3.6503,-3.7362,-3.8185,-3.876,-3.8745,-3.9354,-3.9859,-3.984,-4.0391,-4.0829,-4.0882,-4.096,-4.1,-4.1074,-4.1081,-4.1108,-4.1094,-4.1094,-4.1468,-4.2346,-4.2385,-4.2455,-4.265,-4.2477,-4.2051,-4.1372,-4.1191,-4.1074,-4.1021,-4.1121,-4.1123,-4.1111,-4.155,-4.1364,0.0,0.0,0.0,1.2974,0.0,0.0,0.0,1.6491,1.6564,0.0,0.0,0.0,0.0,0.0,0.0,0.0,0.0,0.0,0.0,0.0,0.0,0.0,0.0,0.0,0.0,-2.4393,-2.4245,-2.4861,-2.487,-2.5578,-2.721,-2.7238,-2.8024,-2.9839,-2.9893,-2.9956,-3.0098,-3.0138,-3.0152,-3.0157,-3.0967,-3.174,-3.253,-3.3332,-3.4149,-3.4946,-3.4946,-3.4983,-3.5057,-3.5075,-3.5145,-3.5209,-3.5245,-3.5293,-3.5354,-3.5354,-3.5477,-3.565,-3.5659,-3.5775,-3.5952,-3.5989,-3.6287,-3.6561,-3.6131,-3.6255,-3.6547,-3.6512,-3.6495,-3.6411,-3.6055,-3.5894,-3.5869,-3.5938,-3.5919,-3.5919,-3.5988,-3.6001,-3.6129,-3.6562,-3.7338,-3.816,-3.8951,-3.9765,-4.0276,-4.0218,-4.0546,-4.0829,-4.0882,-4.0933,-4.098,-4.1085,-4.1108,-4.0938,-4.0535,-4.0494,-4.0496,-4.05,-4.0876,-4.0929,-4.0528,-4.1311,-4.1548,-4.1119,-4.1091,-4.1071,-4.1055,-4.1016,-4.1003,-4.1028,-4.1719,-4.1546,0.0,0.0,0.0,0.0,0.0,1.3705,0.0,0.0,0.0,0.0,0.0,0.0,0.0,0.0,0.0,0.0,0.0,0.0,0.0,0.0,0.0,0.0,0.0,0.0,0.0,-2.3148,-2.3128,-2.426,-2.4388,-2.5089,-2.6742,-2.7005,-2.7955,-2.9803,-2.9808,-2.9893,-3.0087,-3.0083,-3.0083,-3.0087,-3.1045,-3.1813,-3.2426,-3.3393,-3.4225,-3.4887,-3.4887,-3.4984,-3.5092,-3.5092,-3.5145,-3.5193,-3.5193,-3.5277,-3.5354,-3.5354,-3.5374,-3.5408,-3.5397,-3.5399,-3.5415,-3.5428,-3.5901,-3.6352,-3.5671,-3.5441,-3.5407,-3.5396,-3.5499,-3.5651,-3.566,-3.5763,-3.5909,-3.5904,-3.5919,-3.5927,-3.5974,-3.5994,-3.6106,-3.6445,-3.7069,-3.7934,-3.9243,-4.0195,-4.0735,-4.0616,-4.0586,-4.0607,-4.068,-4.068,-4.0734,-4.0851,-4.0857,-4.055,-3.972,-3.9658,-3.9348,-3.863,-3.9207,-3.9276,-3.8615,-4.0042,-4.0845,-4.0845,-4.1009,-4.1086,-4.1088,-4.1084,-4.1107,-4.1123,-4.1779,-4.1622,0.0,0.0,0.0,0.0,0.5514,0.0,0.0,0.0,0.0,0.0,0.0,0.0,0.0,0.0,0.0,0.0,0.0,0.0,0.0,0.0,0.0,0.0,0.0,0.0,0.0,0.0,-2.1478,-2.2681,-2.2866,-2.3566,-2.5012,-2.6377,-2.7901,-2.9661,-2.9717,-2.9805,-3.0007,-3.0022,-3.0022,-3.0041,-3.155,-3.2313,-3.2448,-3.3979,-3.4753,-3.4887,-3.4887,-3.4984,-3.5092,-3.5092,-3.5147,-3.52,-3.52,-3.5217,-3.5234,-3.5164,-3.4813,-3.4364,-3.4311,-3.4026,-3.3641,-3.342,-3.3453,-3.3562,-3.3524,-3.3607,-3.3668,-3.3537,-3.4101,-3.4745,-3.4739,-3.5315,-3.5904,-3.5894,-3.5948,-3.5966,-3.5927,-3.5955,-3.6462,-3.8008,-3.8348,-3.842,-3.8595,-3.936,-3.9908,-3.9838,-3.9828,-3.9848,-3.9921,-3.9925,-3.9925,-3.9953,-4.0001,-3.9693,-3.8821,-3.8745,-3.8709,-3.8611,-3.8682,-3.8668,-3.8526,-3.9443,-3.9945,-3.9955,-4.0717,-4.1074,-4.1016,-4.1064,-4.1107,-4.1091,-4.1183,-4.1148,0.0,0.0,0.0,0.0,0.0,0.0,0.8058,0.0,1.8104,0.0,0.0,0.0,0.0,0.0,0.0,0.0,0.0,0.0,0.0,0.0,0.0,0.0,0.0,0.0,0.0,0.0,0.0,0.0,0.0,-2.1968,-2.4436,-2.5248,-2.6877,-2.9605,-2.97,-2.9771,-2.994,-2.9891,-2.9874,-2.9893,-3.1595,-3.2372,-3.2355,-3.4073,-3.4868,-3.4887,-3.4907,-3.4946,-3.5038,-3.5075,-3.4824,-3.4404,-3.4388,-3.444,-3.4483,-3.4432,-3.3973,-3.34,-3.3476,-3.3297,-3.3022,-3.2919,-3.288,-3.287,-3.289,-3.3024,-3.3169,-3.3106,-3.3822,-3.4603,-3.4603,-3.5256,-3.5904,-3.5894,-3.5919,-3.5929,-3.5914,-3.5946,-3.622,-3.6952,-3.7476,-3.7789,-3.7808,-3.8902,-3.9602,-3.9039,-3.8961,-3.8967,-3.8979,-3.9019,-3.9056,-3.9048,-3.9105,-3.8783,-3.7928,-3.7851,-3.7637,-3.7129,-3.7083,-3.7536,-3.8521,-3.8868,-3.9282,-3.9783,-4.0659,-4.1097,-4.1055,-4.1084,-4.111,-4.1105,-4.1615,-4.1569,-0.4148,0.0,0.0,0.0,0.0,0.0,0.0,0.0,0.0,0.0,0.0,0.0,0.0,0.0,0.0,0.0,0.0,0.0,0.0,0.0,0.0,0.0,0.0,0.0,0.0,0.0,0.0,-1.8973,-1.9007,-2.0103,-2.26,-2.3925,-2.5855,-2.8652,-2.9345,-2.9756,-2.9874,-2.9808,-2.9773,-2.979,-3.1468,-3.2241,-3.2221,-3.3934,-3.4747,-3.479,-3.4565,-3.4491,-3.4548,-3.4413,-3.3975,-3.337,-3.3408,-3.3291,-3.3163,-3.3452,-3.3077,-3.2417,-3.2604,-3.2355,-3.1974,-3.2032,-3.1975,-3.1879,-3.193,-3.2108,-3.23,-3.258,-3.3432,-3.4311,-3.4544,-3.5256,-3.5899,-3.5908,-3.5713,-3.5602,-3.5851,-3.5767,-3.5771,-3.6269,-3.6872,-3.7287,-3.7289,-3.8482,-3.9156,-3.8215,-3.8068,-3.8077,-3.8096,-3.8112,-3.816,-3.818,-3.8212,-3.7888,-3.7012,-3.6933,-3.6679,-3.6034,-3.6009,-3.6562,-3.7834,-3.8287,-3.8799,-3.9429,-4.053,-4.1101,-4.1101,-4.1126,-4.1248,-4.1462,-4.1861,-4.1702,0.0,0.0,0.0,-1.2953,0.0,0.0,0.0,0.0,0.6939,0.0,0.0,0.0,0.0,0.0,0.0,0.0,0.0,0.0,0.0,0.0,0.0,0.0,0.0,0.0,0.0,0.0,0.0,-1.6834,-1.7316,-1.7861,-1.8551,-2.2411,-2.5135,-2.6274,-2.846,-2.9683,-2.9808,-2.9738,-2.9701,-2.9736,-3.1218,-3.1984,-3.2161,-3.3552,-3.4363,-3.4567,-3.3719,-3.3383,-3.3408,-3.2749,-3.2391,-3.226,-3.2373,-3.1808,-3.1054,-3.227,-3.2144,-3.1365,-3.1506,-3.0833,-2.9916,-3.0049,-2.9969,-2.9839,-3.0026,-3.0227,-3.0579,-3.1486,-3.2557,-3.3609,-3.4408,-3.5246,-3.5908,-3.5891,-3.5254,-3.4867,-3.5728,-3.5294,-3.5233,-3.693,-3.7285,-3.7285,-3.7219,-3.7995,-3.8324,-3.7381,-3.7237,-3.7257,-3.7339,-3.7284,-3.7274,-3.7321,-3.7341,-3.6991,-3.6113,-3.6035,-3.6034,-3.5996,-3.5992,-3.6023,-3.6081,-3.7639,-3.8509,-3.8537,-4.0225,-4.1108,-4.1099,-4.117,-4.1601,-4.2341,-4.1529,-4.1124,0.0,0.0,-1.4319,-1.5351,0.0,0.0,0.0,0.0,0.0,0.0,0.0,0.0,0.0,0.0,0.0,0.0,0.0,0.0,0.0,0.0,0.0,0.0,0.0,0.0,0.0,0.0,0.0,-1.5141,-1.5248,-1.6367,0.0,-2.0073,-2.2656,-2.6794,-2.7329,-2.8278,-2.9859,-2.9664,-2.9589,-2.9664,-3.0633,-3.1392,-3.1952,-3.3053,-3.3601,-3.3649,-3.3412,-3.3002,-3.2518,-3.2239,-3.1864,-3.1412,-3.1412,-3.0866,-3.0207,-3.1312,-3.1083,-3.0251,-3.0288,-3.0116,-2.9834,-2.9662,-2.957,-2.9513,-2.9533,-2.9742,-3.007,-3.0501,-3.1884,-3.3145,-3.2947,-3.3957,-3.5034,-3.5035,-3.4801,-3.4852,-3.5763,-3.5749,-3.5722,-3.6327,-3.6438,-3.6257,-3.565,-3.5816,-3.6112,-3.6378,-3.5879,-3.5701,-3.6308,-3.6343,-3.6341,-3.6367,-3.6403,-3.6321,-3.603,-3.5992,-3.5994,-3.5995,-3.5993,-3.6005,-3.6009,-3.71,-3.7702,-3.7708,-3.9364,-4.0246,-4.024,-4.0832,-4.1305,-4.1601,-4.1263,-4.1409,-1.4045,-1.5077,0.0,-1.6651,-1.3806,0.0,-1.1973,0.0,0.0,0.0,0.0,0.0,0.0,0.0,0.0,0.0,0.0,0.0,0.0,-1.0898,0.0,0.0,0.0,0.0,0.0,0.0,-1.4655,-1.4092,-1.4092,-1.524,0.0,0.0,-2.1824,-2.6054,-2.714,-2.8465,-3.0206,-2.972,-2.9622,-2.9939,-3.0634,-3.1259,-3.1819,-3.2595,-3.3013,-3.3063,-3.2445,-3.1781,-3.108,-3.1044,-3.0637,-3.0039,-3.0321,-3.0096,-2.9701,-3.0567,-3.0479,-2.9899,-2.9805,-2.9787,-2.9732,-2.9493,-2.9373,-2.9353,-2.9353,-2.9813,-3.0361,-3.0527,-3.1813,-3.3142,-3.2979,-3.377,-3.4678,-3.4996,-3.482,-3.4852,-3.5806,-3.5751,-3.5624,-3.5937,-3.576,-3.5367,-3.4798,-3.4179,-3.4036,-3.494,-3.4544,-3.4449,-3.5325,-3.5441,-3.5447,-3.5478,-3.5489,-3.5386,-3.5101,-3.5361,-3.5541,-3.5545,-3.5839,-3.5992,-3.5994,-3.6834,-3.73,-3.7309,-3.8954,-3.9795,-3.9795,-4.067,-4.1281,-4.1621,-4.1266,-4.1728]},{"header":{"parameterUnit":"m.s-1","parameterCategory":1,"la1":30.6,"la2":29.2853,"lo1":-89.7004,"lo2":-87.6739,"dy":0.0162,"dx":0.0183,"nx":112,"ny":82,"refTime":"2024-03-01T18:00:00:Z","depth":0,"parameterNumber":3,"parameterNumberName":"V-component_of_WINDS"},"data":[0.0,0.0,0.0,0.0,0.0,0.0,0.0,0.0,0.0,0.0,0.0,0.0,0.0,0.0,0.0,0.0,0.0,0.0,0.0,0.0,0.0,0.0,0.0,0.0,0.0,0.0,0.0,0.0,0.0,0.0,0.0,0.0,0.0,0.0,0.0,0.0,0.0,0.0,0.0,0.0,0.0,0.0,0.0,0.0,0.0,0.0,0.0,0.0,0.0,0.0,0.0,0.0,0.0,0.0,0.0,0.0,0.0,0.0,0.0,0.0,0.0,0.0,0.0,0.0,0.0,0.0,0.0,0.0,0.0,0.0,0.0,0.0,0.0,0.0,0.0,0.0,0.0,0.0,0.0,0.0,0.0,0.0,0.0,0.0,0.0,0.0,0.0,0.0,0.0,0.0,0.5259,0.5619,0.9639,1.2372,1.2506,1.2882,1.2219,1.007,0.0,0.0,0.0,0.0,0.0,0.0,0.0,0.0,0.0,0.0,0.0,0.0,0.0,0.0,0.0,0.0,0.0,0.0,0.0,0.0,0.0,0.0,0.0,0.0,0.0,0.0,0.0,0.0,0.0,0.0,0.0,0.0,0.0,0.0,0.0,0.0,0.0,0.0,0.0,0.0,0.0,0.0,0.0,0.0,0.0,0.0,0.0,0.0,0.0,0.0,0.0,0.0,0.0,0.0,0.0,0.0,0.0,0.0,0.0,0.0,0.0,0.0,0.0,0.0,0.0,0.0,0.0,0.0,0.0,0.0,0.0,0.0,0.0,0.0,0.0,0.0,0.0,0.0,0.0,0.0,0.0,0.0,0.0,0.0,0.0,0.0,0.0,0.0,0.0,0.0,0.0,0.0,0.0,0.0,0.0,0.0,0.0,0.0,0.0,0.0,0.0,0.0,0.0,0.0,0.602,1.035,1.1768,1.2781,1.3628,1.379,1.3244,1.1885,0.0,0.0,0.0,0.0,0.0,0.0,0.0,0.0,0.0,0.0,0.0,0.0,0.0,0.0,0.0,0.0,0.0,0.0,0.0,0.0,0.0,0.0,0.0,0.0,0.0,0.0,0.0,0.0,0.0,0.0,0.0,0.0,0.0,0.0,0.0,0.0,0.0,0.0,0.0,0.0,0.0,0.0,0.0,0.0,0.0,0.0,0.0,0.0,0.0,0.0,0.0,0.0,0.0,0.0,0.0,0.0,0.0,0.0,0.0,0.0,0.0,0.0,0.0,0.0,0.0,0.0,0.0,0.0,0.0,0.0,0.0,0.0,0.0,0.0,0.0,0.0,0.0,0.0,0.0,0.0,0.0,0.0,0.0,0.0,0.0,0.0,0.0,0.0,0.0,0.0,0.0,0.0,0.0,0.0,0.0,0.0,0.0,0.0,0.0,0.0,0.0,0.0,0.0,0.4555,0.7648,1.1499,1.2785,1.3575,1.3795,1.4501,1.4334,1.2917,1.1434,0.0,0.0,0.0,0.0,0.0,0.0,0.0,0.0,0.0,0.0,0.0,0.0,0.0,0.0,0.0,0.0,0.0,0.0,0.0,0.0,0.0,0.0,0.0,0.0,0.0,0.0,0.0,0.0,0.0,0.0,0.0,0.0,0.0,0.0,0.0,0.0,0.0,0.0,0.0,0.0,0.0,0.0,0.0,0.0,0.0,0.0,0.0,0.0,0.0,0.0,0.0,0.0,0.0,0.0,0.0,0.0,0.0,0.0,0.0,0.0,0.0,0.0,0.0,0.0,0.0,0.0,0.0,0.0,0.0,0.0,0.0,0.0,0.0,0.0,0.0,0.0,0.0,0.0,0.0,0.0,0.0,0.0,0.0,0.0,0.0,0.0,0.0,0.0,0.0,0.0,0.0,0.0,0.0,0.0,0.0,0.0,0.0,0.0,0.0,0.0,0.0,0.0,0.6836,0.9452,1.1942,1.3395,1.4186,1.4043,1.4872,1.484,1.3474,1.2486,0.0,0.0,0.0,0.0,0.0,0.0,0.0,0.0,0.0,0.0,0.0,0.0,0.0,0.0,0.0,0.0,0.0,0.0,0.0,0.0,0.0,0.0,0.0,0.0,0.0,0.0,0.0,0.0,0.0,0.0,0.0,0.0,0.0,0.0,0.0,0.0,0.0,0.0,0.0,0.0,0.0,0.0,0.0,0.0,0.0,0.0,0.0,0.0,0.0,0.0,0.0,0.0,0.0,0.0,0.0,0.0,0.0,0.0,0.0,0.0,0.0,0.0,0.0,0.0,0.0,0.0,0.0,0.0,0.0,0.0,0.0,0.0,0.0,0.0,0.0,0.0,0.0,0.0,0.0,0.0,0.0,0.0,0.0,0.0,0.0,0.0,0.0,0.0,0.0,0.0,0.0,0.0,0.0,0.0,0.0,0.0,0.0,0.0,0.0,0.0,0.0,0.0,0.8292,1.1228,1.2919,1.3695,1.4343,1.5001,1.4806,1.4395,1.3693,1.2409,0.0,0.0,0.0,0.0,0.0,0.0,0.0,0.0,0.0,0.0,0.0,0.0,0.0,0.0,0.0,0.0,0.0,0.0,0.0,0.0,0.0,0.0,0.0,0.0,0.0,0.0,0.0,0.0,0.0,0.0,0.0,0.0,0.0,0.0,0.0,0.0,0.0,0.0,0.0,0.0,0.0,0.0,0.0,0.0,0.0,0.0,0.0,0.0,0.0,0.0,0.0,0.0,0.0,0.0,0.0,0.0,0.0,0.0,0.0,0.0,0.0,0.0,0.0,0.0,0.0,0.0,0.0,0.0,0.0,0.0,0.0,0.0,0.0,0.0,0.0,0.0,0.0,0.0,0.0,0.0,0.0,0.0,0.0,0.0,0.0,0.0,0.0,0.0,0.0,0.0,0.0,0.0,0.0,0.0,0.0,0.0,0.0,0.0,0.0,0.0,0.0,0.0,0.8925,1.2011,0.0,1.3895,1.4494,1.5157,1.5625,1.5462,1.4486,0.0,0.0,0.0,0.0,0.0,0.0,0.0,0.0,0.0,0.0,0.0,0.0,0.0,0.0,0.0,0.0,0.0,0.0,0.0,0.0,0.0,0.0,0.0,0.0,0.0,0.0,0.0,0.0,0.0,0.0,0.0,0.0,0.0,0.0,0.0,0.0,0.0,0.0,0.0,0.0,0.0,0.0,0.0,0.0,0.0,0.0,0.0,0.0,0.0,0.0,0.0,0.0,0.0,0.0,0.0,0.0,0.0,0.0,0.0,0.0,0.0,0.0,0.0,0.0,0.0,0.0,0.0,0.0,0.0,0.0,0.0,0.0,0.0,0.0,0.0,0.0,0.0,0.0,0.0,0.0,0.0,0.0,0.0,0.0,0.0,0.0,0.0,0.0,0.0,0.0,0.0,0.0,0.0,0.0,0.0,0.0,0.0,0.0,0.0,0.0,0.0,0.0,0.546,0.9542,1.2834,0.0,1.4251,1.4774,1.5474,1.5979,1.5928,1.5112,0.0,0.0,0.0,0.0,0.0,0.0,0.0,0.0,0.0,0.0,0.0,0.0,0.0,0.0,0.0,0.0,0.0,0.0,0.0,0.0,0.0,0.0,0.0,0.0,0.0,0.0,0.0,0.0,0.0,0.0,0.0,0.0,0.0,0.0,0.0,0.0,0.0,0.0,0.0,0.0,0.0,0.0,0.0,0.0,0.0,0.0,0.0,0.0,0.0,0.0,0.0,0.0,0.0,0.0,0.0,0.0,0.0,0.0,0.0,0.0,0.0,0.0,0.0,0.0,0.0,0.0,0.0,0.0,0.0,0.0,0.0,0.0,0.0,0.0,0.0,0.0,0.0,0.0,0.0,0.0,0.0,0.0,0.0,0.0,0.0,0.0,0.0,0.0,0.0,0.0,0.0,0.0,0.0,0.0,0.0,0.0,0.0,0.0,0.0,0.0,0.0,0.0,0.6037,1.0315,1.3748,1.477,1.4782,1.5134,1.6166,1.5747,1.5427,0.0,0.0,0.0,0.0,0.0,0.0,0.0,0.0,0.0,0.0,0.0,0.0,0.0,0.0,0.0,0.0,0.0,0.0,0.0,0.0,0.0,0.0,0.0,0.0,0.0,0.0,0.0,0.0,0.0,0.0,0.0,0.0,0.0,0.0,0.0,0.0,0.0,0.0,0.0,0.0,0.0,0.0,0.0,0.0,0.0,0.0,0.0,0.0,0.0,0.0,0.0,0.0,0.0,0.0,0.0,0.0,0.0,0.0,0.0,0.0,0.0,0.0,0.0,0.0,0.0,0.0,0.0,0.0,0.0,0.0,0.0,0.0,0.0,0.0,0.0,0.0,0.0,0.0,0.0,0.0,0.0,0.0,0.0,0.0,0.0,0.0,0.0,0.0,0.0,0.0,0.0,0.0,0.0,0.0,0.0,0.0,0.0,0.0,0.0,0.0,0.0,0.0,0.0,0.6894,1.0978,1.4178,1.5126,1.5088,1.5134,1.5536,1.6272,1.6489,1.618,0.0,0.0,0.0,0.0,0.0,0.0,0.0,0.0,0.0,0.0,0.0,0.0,0.0,0.0,0.0,0.0,0.0,0.0,0.0,0.0,0.0,0.0,0.0,0.0,0.0,0.0,0.0,0.0,0.0,0.0,0.0,0.0,0.0,0.0,0.0,0.0,0.0,0.0,0.0,0.0,0.0,0.0,0.0,0.0,0.0,0.0,0.0,0.0,0.0,0.0,0.0,0.0,0.0,0.0,0.0,0.0,0.0,0.0,0.0,0.0,0.0,0.0,0.0,0.0,0.0,0.0,0.0,0.0,0.0,0.0,0.0,0.0,0.0,0.0,0.0,0.0,0.0,0.0,0.0,0.0,0.0,0.0,0.0,0.0,0.0,0.0,0.0,0.0,0.0,0.0,0.0,0.0,0.0,0.0,0.0,0.0,0.0,0.0,0.0,0.0,0.0,0.0,0.7384,1.142,1.452,1.524,1.5227,1.5295,1.562,1.6675,1.7277,1.7028,0.0,0.0,0.0,0.0,0.0,0.0,0.0,0.0,0.0,0.0,0.0,0.0,0.0,0.0,0.0,0.0,0.0,0.0,0.0,0.0,0.0,0.0,0.0,0.0,0.0,0.0,0.0,0.0,0.0,0.0,0.0,0.0,0.0,0.0,0.0,0.0,0.0,0.0,0.0,0.0,0.0,0.0,0.0,0.0,0.0,0.0,0.0,0.0,0.0,0.0,0.0,0.0,0.0,0.0,0.0,0.0,0.0,0.0,0.0,0.0,0.0,0.0,0.0,0.0,0.0,0.0,0.0,0.0,0.0,0.0,0.0,0.0,0.0,0.0,0.0,0.0,0.0,0.0,0.0,0.0,0.0,0.0,0.0,0.0,0.0,0.0,0.0,0.0,0.0,0.0,0.0,0.0,0.0,0.0,0.0,0.0,0.0,0.0,0.0,0.0,0.0,0.0,0.7674,1.1866,1.496,1.524,1.5472,1.5643,1.6057,1.7041,1.7715,1.7845,0.0,0.0,0.0,0.0,0.0,0.0,0.0,0.0,0.0,0.0,0.0,0.0,0.0,0.0,0.0,0.0,0.0,0.0,0.0,0.0,0.0,0.0,0.0,0.0,0.0,0.0,0.0,0.0,0.0,0.0,0.0,0.0,0.0,0.0,0.0,0.0,0.0,0.0,0.0,0.0,0.0,0.0,0.0,0.0,0.0,0.0,0.0,0.0,0.0,0.0,0.0,0.0,0.0,0.0,0.0,0.0,0.0,0.0,0.0,0.0,0.9577,0.0,0.0,0.0,0.0,0.0,0.0,0.0,0.0,0.0,0.0,0.0,0.0,0.0,0.0,0.0,0.0,0.0,0.0,0.0,0.0,0.0,0.0,0.0,0.0,0.0,0.0,0.0,0.0,0.0,0.0,0.0,0.0,0.0,0.0,0.0,0.0,0.0,0.0,0.0,0.0,0.0,0.8376,1.2519,1.5678,1.6133,1.6273,1.6319,1.6079,1.6902,1.7632,1.7925,1.6902,0.0,0.0,0.0,0.0,0.0,0.0,0.0,0.0,0.0,0.0,0.0,0.0,0.0,0.0,0.0,0.0,0.0,0.0,0.0,0.0,0.0,0.0,0.0,0.0,0.0,0.0,0.0,0.0,0.0,0.0,0.0,0.0,0.0,0.0,0.0,0.0,0.0,0.0,0.0,0.0,0.0,0.0,0.0,0.0,0.0,0.0,0.0,0.0,0.0,0.0,0.0,0.0,0.0,0.0,0.0,0.0,0.0,0.0,0.0,0.0,1.2853,0.0,0.0,0.0,0.0,0.0,0.0,0.0,0.0,0.0,0.0,0.0,0.0,0.0,0.0,0.0,0.0,0.0,0.0,0.0,0.0,0.0,0.0,0.0,0.0,0.0,0.0,0.0,0.0,0.0,0.0,0.0,0.0,0.0,0.0,0.0,0.0,0.0,0.0,0.0,0.0,0.8452,1.2345,1.5169,1.5442,1.6129,1.6319,1.5673,1.6902,1.7789,1.8023,1.7372,0.0,0.0,0.0,0.0,0.0,0.0,0.0,0.0,0.0,0.0,0.0,0.0,0.0,0.0,0.0,0.0,0.0,0.0,0.0,0.0,0.0,0.0,0.0,0.0,0.0,0.0,0.0,0.0,0.0,0.0,0.0,0.0,0.0,0.0,0.0,0.0,0.0,0.0,0.0,0.0,0.0,0.0,0.0,0.0,0.0,0.0,0.0,0.0,0.0,0.0,0.0,0.0,0.0,2.0554,2.0422,1.8976,1.9542,1.7854,1.4526,1.514,1.563,1.5825,0.0,0.0,0.0,0.0,0.0,0.0,0.0,0.0,0.0,0.0,0.0,0.0,0.0,0.0,0.0,0.0,0.0,0.0,0.0,0.0,0.0,0.0,0.0,0.0,0.0,0.2685,0.3131,0.0,0.0,0.0,0.0,0.0,0.0,0.0,0.0,0.0,0.0,0.0,0.0,0.8453,1.1983,1.4475,1.4565,1.5651,1.5982,1.5249,1.6812,1.7878,1.7951,1.7997,1.7943,0.0,0.0,0.0,0.0,0.0,0.0,0.0,0.0,0.0,0.0,0.0,0.0,0.0,0.0,0.0,0.0,0.0,0.0,0.0,0.0,0.0,0.0,0.0,0.0,0.0,0.0,0.0,0.0,0.0,0.0,0.0,0.0,0.5333,0.4526,0.0,0.0,0.0,0.0,0.0,0.0,0.0,0.0,0.0,0.0,0.0,0.0,0.0,1.6532,1.7795,2.0917,2.2119,2.1464,2.1812,2.0587,1.8107,1.8747,1.6816,1.2988,1.4652,0.0,1.6611,1.566,0.0,0.0,0.0,0.0,0.0,0.0,0.0,0.0,0.0,0.0,0.0,0.0,0.0,0.0,0.0,0.0,0.0,0.0,0.0,0.0,0.0,0.0,0.1356,0.3246,0.416,0.4439,0.0,0.2933,0.2468,0.3199,0.2933,0.0,0.0,0.0,0.0,0.0,0.0,0.0,0.8944,1.2382,1.472,1.4636,1.5523,1.5884,1.5401,1.664,1.7546,1.77,1.7914,1.8083,1.8338,1.8148,0.0,0.0,0.0,0.0,0.0,0.0,0.0,0.0,0.0,0.0,0.0,0.0,0.0,0.0,0.0,0.0,0.0,0.0,0.0,0.0,0.0,0.0,0.0,0.0,0.0,0.0,0.0,0.0,0.0,0.2776,0.3742,0.9121,0.6202,0.5395,0.0,0.0,0.0,0.0,0.0,0.0,0.0,0.0,0.0,1.5228,1.8836,2.1091,2.1776,2.3683,2.4349,2.3805,2.3828,2.2598,2.0294,1.9452,1.7045,1.3542,1.3496,1.3569,1.3746,1.4199,1.4968,1.5547,0.0,0.0,0.0,0.0,0.3919,0.1322,0.1489,0.0657,0.0,0.0,0.0,0.0,0.0,0.0,0.0,0.0,0.0,0.0,0.0,0.0,0.0,0.3986,0.4449,0.4771,0.4978,0.4703,0.4607,0.0,0.5427,0.5243,0.4403,0.0,0.0,0.0,0.0,0.9057,1.0358,1.2412,1.3892,1.4207,1.5187,1.5786,1.5545,1.6796,1.7781,1.8256,1.8249,1.8231,1.8221,1.7952,1.7381,0.0,0.0,0.0,0.0,0.0,0.0,0.0,0.0,0.0,0.0,0.0,0.0,0.0,0.0,0.0,0.0,0.0,0.0,0.0,0.0,0.0,0.0,0.0,0.0,0.0,0.0,0.0,0.0,0.3113,0.4492,1.2131,0.9004,0.8296,0.0,0.0,0.0,0.0,0.0,0.0,1.3294,1.6147,1.8056,1.8677,2.2188,2.4237,2.4567,2.5213,2.5458,2.5259,2.5161,2.405,2.2025,2.017,1.7455,1.408,1.2762,1.1733,1.1089,1.2565,1.3864,1.4703,1.2652,1.0572,0.8643,0.7876,0.5329,0.2377,0.3055,0.2048,0.0492,0.0494,0.0,0.035,-0.0876,0.0,0.0,0.0,0.0,0.1864,0.1793,0.2992,0.4273,0.432,0.4594,0.4937,0.5304,0.5759,0.6086,0.0,0.7163,0.7418,0.6306,0.0,0.0,0.0,0.0,0.9668,1.1283,1.2283,1.3144,1.381,1.4911,1.5538,1.5545,1.687,1.7934,1.8416,1.8353,1.8299,1.8279,1.7938,1.7789,1.7941,0.0,0.0,0.0,0.0,0.0,0.0,0.0,0.0,0.0,0.0,0.0,0.0,0.0,0.0,0.0,0.0,0.0,0.0,0.0,0.0,0.0,0.0,0.0,0.0,0.0,0.0,0.0,0.0,0.0,0.9336,1.2029,0.0,0.0,0.0,0.0,1.4383,1.7121,1.9095,1.9877,2.0589,2.1589,2.2944,2.3644,2.4499,2.5522,2.545,2.5312,2.5113,2.4976,2.3827,2.177,2.0333,1.7516,1.3795,1.3006,1.1667,1.0177,1.1864,1.2833,1.3297,1.3086,1.1978,1.0362,0.9299,0.6847,0.4029,0.3627,0.2149,0.0403,0.0404,0.0538,0.076,0.1241,0.1323,0.0,0.0,0.2745,0.3001,0.3655,0.416,0.4503,0.4629,0.4911,0.5121,0.5325,0.6094,0.6587,0.0,0.7135,0.7446,0.6589,0.0,0.7151,0.7372,0.8246,0.935,1.0964,1.2183,1.3197,1.3626,1.4552,1.5144,1.5166,1.6714,1.7691,1.7781,1.7951,1.8357,1.9115,1.8614,1.8103,1.7738,1.6748,0.0,0.0,0.0,0.0,0.0,0.0,0.0,0.0,0.0,0.0,0.0,0.0,0.0,0.0,0.0,0.0,0.0,0.0,0.0,0.0,0.0,0.0,0.0,0.0,0.0,0.0,0.0,0.0,1.1605,1.0864,0.0,1.6623,1.5737,1.585,1.8252,1.9801,2.0569,2.0471,2.1063,2.179,2.2631,2.3454,2.4409,2.5512,2.5537,2.5405,2.5162,2.4807,2.4073,2.2915,1.9723,1.7098,1.4869,1.1908,0.9789,0.8461,0.9332,1.0302,1.1171,1.083,0.9992,0.887,0.7799,0.5947,0.3861,0.2871,0.16,0.0403,0.0449,0.0494,0.0676,0.1249,0.1612,0.2053,0.2985,0.3392,0.3737,0.4216,0.4519,0.4776,0.469,0.4924,0.525,0.5789,0.6117,0.641,0.6814,0.7613,0.8098,0.7733,0.8276,0.9032,0.9687,1.0162,1.0961,1.2575,1.2675,1.3039,1.421,1.4384,1.5049,1.6606,1.7163,1.7602,1.7764,1.8416,1.8452,1.754,1.7874,1.7848,1.7397,1.6516,1.5219,0.0,0.0,0.0,0.0,0.0,0.0,0.0,0.0,0.0,0.0,0.0,0.0,0.0,0.0,0.0,0.0,0.0,0.0,0.0,0.0,0.0,0.0,0.0,0.0,0.0,0.0,1.0334,1.1921,1.1142,1.2379,1.7328,1.6812,1.7211,1.9757,2.0264,2.0394,2.0273,2.071,2.1363,2.2276,2.2427,2.3378,2.5279,2.4835,2.4757,2.5063,2.4806,2.4269,2.3359,1.9509,1.6934,1.5294,1.1306,0.8765,0.7382,0.7435,0.7802,0.8358,0.93,0.8736,0.7435,0.7373,0.5511,0.2744,0.1381,0.0705,0.0449,0.041,0.0504,0.0739,0.1152,0.1695,0.232,0.3114,0.3647,0.4076,0.4408,0.4673,0.4855,0.477,0.5004,0.5329,0.5809,0.6021,0.6273,0.6814,0.7495,0.8094,0.8382,0.895,0.9671,1.0736,1.1059,1.1757,1.3222,1.2966,1.3215,1.4384,1.4733,1.5635,1.7299,1.7681,1.7736,1.7691,1.8377,1.8112,1.6709,1.7473,1.7604,1.699,1.5992,1.4639,1.2893,0.0,0.0,0.0,0.0,0.0,0.0,0.0,0.0,0.0,0.0,0.0,0.0,0.0,0.0,0.0,0.0,0.0,0.0,0.0,0.0,0.0,0.0,0.0,0.5578,0.8844,1.092,1.0067,1.3222,1.5752,1.6526,1.683,1.7518,1.887,1.8807,1.9019,1.9805,1.9906,2.0625,2.2101,2.0722,2.1505,2.4733,2.3359,2.3376,2.4785,2.484,2.4221,2.2904,1.9587,1.7018,1.4933,1.1313,0.8731,0.703,0.6463,0.5576,0.4996,0.8614,0.8378,0.6274,0.8183,0.5584,0.0848,-0.0637,-0.0433,0.0452,0.0235,0.0523,0.0959,0.1197,0.1757,0.2389,0.2968,0.3474,0.3953,0.4284,0.4622,0.485,0.4857,0.5145,0.5428,0.5442,0.5811,0.6172,0.6391,0.6876,0.745,0.8294,0.8608,0.9151,1.0398,1.0809,0.0,1.2534,1.3052,1.3568,1.4088,1.5609,1.6653,1.7008,1.802,1.8277,1.749,1.7655,1.7522,1.6828,1.7319,1.7259,1.65,1.5264,1.3921,1.2432,0.0,0.0,0.0,0.0,0.0,0.0,0.0,0.0,0.0,0.0,0.0,0.0,0.0,0.0,0.0,0.0,0.0,0.0,0.0,0.0,0.0,0.0,0.9048,0.9147,1.0901,1.2482,1.3381,1.416,1.5209,1.6691,1.7778,1.9009,2.0458,2.0753,2.0834,2.076,2.0931,2.0391,1.8936,2.0582,2.1551,2.1648,2.3007,2.4,2.4627,2.2968,2.1891,2.1228,1.7348,1.4856,1.3418,1.0359,0.7862,0.5877,0.4804,0.3869,0.3319,0.5306,0.5369,0.4347,0.4325,0.2667,0.035,-0.0428,-0.0445,-0.0136,0.0,0.0286,0.0625,0.1097,0.1269,0.1277,0.1113,0.1118,0.1236,0.1635,0.2347,0.3137,0.403,0.4823,0.5487,0.5849,0.6037,0.631,0.6843,0.7114,0.7528,0.8453,0.8796,0.9306,1.0514,1.0722,0.0,1.2363,1.2705,1.3379,1.4734,1.534,1.6134,1.7339,1.7904,1.7888,1.6959,1.7677,1.7445,1.5915,1.6665,1.6581,1.5416,1.4573,1.3804,0.0,0.0,0.0,0.0,0.0,0.0,0.0,0.0,0.0,0.0,0.0,0.0,0.0,0.0,0.0,0.0,0.0,0.0,0.0,0.0,0.0,0.0,0.8602,0.9965,1.0821,1.2078,1.2947,1.3001,1.3857,1.4868,1.6029,1.7681,1.9273,2.0727,2.1031,2.1081,2.0925,2.1077,2.0019,1.7587,1.9539,2.0307,1.9617,2.2294,2.3933,2.4511,2.3186,2.1898,2.0526,1.635,1.3538,0.0,0.8635,0.6406,0.4925,0.3773,0.301,0.0,0.0,0.0,0.0,0.0,0.1039,0.0413,-0.0337,-0.0447,-0.0279,0.0,0.0247,0.0554,0.1098,0.1319,0.1374,0.1544,0.1581,0.1738,0.2211,0.2822,0.353,0.4282,0.4861,0.5356,0.5664,0.5905,0.6168,0.6716,0.7107,0.0,0.8384,0.8691,0.919,1.0504,1.0636,1.0982,1.2112,1.254,1.3209,1.4391,1.5112,1.598,1.7298,1.7866,0.0,0.0,0.0,1.7182,1.5531,1.585,0.0,0.0,0.0,1.3913,1.3665,0.0,0.0,0.0,1.2174,1.2003,0.0,0.0,0.0,0.0,0.0,0.0,0.0,0.0,0.0,0.0,0.0,0.0,0.0,0.0,0.0,0.0,0.8808,0.96,1.1094,1.2389,1.2598,1.097,1.3053,1.4807,1.5371,1.7181,1.8902,2.0345,2.0479,2.0632,2.0924,0.0,0.0,0.0,0.0,1.8824,1.8501,2.154,2.3497,2.4335,2.4109,2.267,2.0062,1.5478,1.2189,0.9926,0.6395,0.458,0.4055,0.3003,0.25,0.2439,0.3868,0.3224,0.1381,0.0321,0.0316,0.0716,-0.0275,0.0,0.0,0.01,0.0363,0.0697,0.1166,0.1625,0.2026,0.2779,0.314,0.3503,0.4025,0.4403,0.4639,0.4905,0.5062,0.5218,0.5296,0.558,0.5943,0.6392,0.6991,0.7588,0.8246,0.8292,0.884,1.0317,1.0463,1.0814,1.178,1.2283,1.279,1.3476,0.0,0.0,1.6843,1.7749,1.7842,1.6787,1.7071,1.665,1.5349,1.4953,1.479,1.4725,1.4322,1.4102,1.4171,1.416,1.406,1.389,1.3211,1.278,0.0,0.0,0.0,0.0,0.0,0.0,0.0,0.0,0.0,0.0,0.0,0.0,0.0,0.0,0.0,0.8805,0.9969,1.0833,1.0618,1.1018,1.1775,1.2995,1.3955,1.5314,1.7321,1.8359,1.9594,2.122,2.1266,2.152,2.2265,2.2765,0.0,1.8559,2.0381,2.0508,1.8608,2.1725,2.3538,2.3968,0.0,0.0,1.7709,1.1308,0.7994,0.7111,0.3619,0.2302,0.2506,0.1227,0.0866,0.1178,0.1752,0.1297,0.0309,0.0208,0.0084,0.0,-0.023,-0.0236,-0.0145,0.0103,0.0423,0.0804,0.1388,0.14,0.0,0.1005,0.0833,0.078,0.1448,0.2145,0.3003,0.4132,0.4942,0.5513,0.5657,0.5805,0.6101,0.6707,0.7088,0.7491,0.7769,0.7895,0.8479,0.9913,0.9777,0.9951,1.1073,1.1413,1.1929,1.279,1.4401,1.545,1.5568,1.7379,1.7926,1.6595,1.603,1.5698,1.5457,1.4942,1.4788,1.4955,1.4682,1.4528,1.4498,1.4352,1.4142,1.3854,1.3753,1.3379,0.0,0.0,0.0,0.0,0.0,0.0,0.0,0.0,0.0,0.0,0.0,0.9099,1.1218,0.0,1.0176,1.0398,1.062,1.0574,1.007,1.0168,1.0694,1.1772,1.3956,1.5782,1.6872,1.9108,2.0383,2.0131,2.1346,2.1912,2.1472,2.2999,2.2382,1.9065,2.1083,2.1273,1.9272,2.2723,2.4117,2.3359,2.1234,1.8315,1.4674,0.9461,0.6106,0.4277,0.2187,0.1273,0.1172,0.0559,0.0161,0.0,0.0515,0.0501,0.0095,0.0,-0.0338,-0.0688,-0.0491,-0.0448,-0.0305,0.0263,0.0701,0.1097,0.1729,0.187,0.1839,0.1803,0.1807,0.1943,0.259,0.3119,0.3791,0.4704,0.5138,0.544,0.5795,0.5899,0.6091,0.6861,0.7196,0.7477,0.7636,0.7532,0.8016,0.9414,0.9253,0.9336,1.0636,1.1068,1.1585,1.2619,1.3969,1.5144,1.5791,1.7047,1.7632,1.6914,1.6021,1.5635,1.5635,1.4937,1.4772,1.523,1.4766,1.4584,1.4873,1.4524,1.4043,1.3706,1.3582,1.3298,0.0,0.0,0.0,0.0,0.0,0.0,0.0,0.0,0.8839,0.9763,1.0132,1.0894,1.2953,1.2039,1.1166,1.1735,1.0847,0.9914,0.9477,0.9586,0.9758,0.9883,1.3341,1.5814,1.6157,1.9425,2.0873,1.9175,2.1401,2.2275,2.1036,2.3064,2.3007,2.0279,2.1794,2.2055,2.0833,2.3672,2.4541,2.3404,2.1086,1.7332,1.2293,0.793,0.441,0.1745,0.1157,0.0556,0.0,0.0111,-0.0215,-0.0665,-0.0318,-0.0052,0.0049,-0.025,-0.0709,-0.1071,-0.0815,-0.0571,-0.0267,0.0487,0.1047,0.1518,0.2104,0.2445,0.2692,0.3142,0.3489,0.3859,0.4375,0.4683,0.499,0.5456,0.5262,0.521,0.5821,0.5897,0.6073,0.6817,0.7167,0.7333,0.7406,0.7215,0.7404,0.8727,0.8664,0.8857,1.0183,1.0619,1.131,1.2347,1.3566,1.4894,1.6453,1.6941,1.7232,1.7044,1.6109,1.554,1.554,1.4672,1.459,1.5428,1.4836,1.4677,1.5242,1.4746,1.4195,1.3652,1.3243,1.3015,0.6337,0.6391,0.6859,0.7064,0.716,0.7278,0.0,0.0,0.9159,1.0284,1.0901,1.1805,1.3725,1.2351,1.0977,1.1159,1.0478,0.9676,0.8887,0.9159,0.946,0.9452,1.2087,1.4726,1.6929,1.9073,2.0431,2.0713,2.2072,2.3155,2.3724,2.4227,2.4243,2.3746,2.362,2.3713,2.4053,2.3842,2.4257,2.5215,1.8776,1.4634,1.2431,0.4905,0.0924,-0.0111,-0.0324,-0.0545,-0.0783,-0.0814,-0.0533,-0.0106,-0.1043,-0.0978,-0.042,-0.0611,-0.0721,-0.0794,-0.0847,-0.0371,0.0323,0.0686,0.1201,0.1811,0.234,0.2572,0.278,0.3244,0.3589,0.3862,0.4225,0.4486,0.4773,0.5199,0.5259,0.5246,0.5615,0.5825,0.6041,0.6441,0.6678,0.6833,0.6987,0.6695,0.6782,0.7577,0.7964,0.8332,0.8968,0.9782,1.0677,1.165,1.3129,1.4858,1.6986,1.7095,1.6857,1.6379,1.535,1.4688,1.449,1.4088,1.4298,1.5139,1.5016,1.5233,1.5814,1.5318,1.4742,1.4162,1.3524,1.2909,0.5861,0.6074,0.6744,0.7053,0.7508,0.8098,0.8976,0.9263,0.9515,1.0039,1.0275,1.0516,1.0878,0.9995,0.9393,0.0,0.9626,0.9305,0.9333,0.9748,1.0222,1.0752,1.0098,1.1326,1.5649,1.6742,1.7944,1.9827,2.1936,2.2986,2.2578,2.3971,2.4723,2.4604,2.4578,2.4941,2.5697,2.4659,2.3612,2.2498,1.6444,1.1379,0.7255,0.2569,0.0165,-0.0447,-0.1047,-0.1148,-0.0871,-0.0493,-0.0542,-0.0962,-0.0829,-0.1055,-0.1478,-0.1456,-0.1353,-0.1206,-0.1042,-0.05,0.0227,0.0991,0.1594,0.2144,0.2627,0.2871,0.2981,0.3145,0.3418,0.371,0.4112,0.4401,0.4651,0.5212,0.5231,0.5232,0.5743,0.5883,0.6026,0.6495,0.6642,0.6619,0.6589,0.6662,0.67,0.6871,0.7358,0.8094,0.91,0.9728,1.0845,1.304,1.4665,1.6249,1.7647,1.7419,1.6872,1.623,1.4968,1.413,1.3886,1.369,1.4076,1.4881,1.513,1.5556,1.591,1.5405,1.4727,1.3925,1.3393,1.278,0.6113,0.6494,0.7149,0.7574,0.8446,0.9307,0.9828,0.9793,0.9613,0.9561,0.9405,0.9065,0.8432,0.7845,0.7761,0.8682,0.8662,0.8921,0.9889,0.9698,0.9618,0.9991,0.6719,0.6968,1.3492,1.443,1.6188,1.9899,2.2244,2.3145,2.2291,2.4001,2.5004,2.5047,2.5187,2.5783,2.6893,2.4529,2.2498,2.0791,1.428,0.856,0.36,0.0487,-0.0943,-0.084,-0.1331,-0.1368,-0.1027,-0.0494,-0.0985,-0.1949,-0.1385,-0.1734,-0.2406,-0.2291,-0.19,-0.1399,-0.1121,-0.0458,0.0411,0.1246,0.1876,0.2412,0.2826,0.2993,0.3031,0.299,0.3175,0.352,0.3961,0.4263,0.4672,0.5217,0.5202,0.5237,0.5678,0.5735,0.5953,0.6341,0.6395,0.6375,0.6278,0.6459,0.6551,0.6532,0.7265,0.8257,0.9084,0.999,1.1573,1.4084,1.5903,1.7249,1.8025,1.7613,1.6858,1.5889,1.4558,1.3628,1.3354,1.3417,1.3852,1.4694,1.5281,1.5754,1.5934,1.5433,1.47,1.371,1.3174,1.2724,0.7834,0.85,0.9083,0.9735,1.0666,1.113,1.0055,0.9654,0.9409,0.9,0.8497,0.8037,0.7695,0.6769,0.6452,0.7655,0.7782,0.8405,1.0318,0.8481,0.6592,0.5707,0.1386,0.1864,0.0,1.2641,1.5975,2.2129,2.3451,2.41,2.4381,2.4776,2.5206,2.5668,2.5484,2.621,2.7932,2.2764,2.0779,2.1915,1.2457,0.6521,0.3706,-0.1513,-0.3169,-0.1899,-0.1136,-0.114,-0.156,-0.151,-0.2005,-0.2901,-0.3461,-0.3463,-0.3074,-0.2899,-0.2122,-0.1122,-0.0954,0.0,0.1181,0.1523,0.2094,0.2682,0.2703,0.2761,0.2783,0.2729,0.2954,0.3313,0.3611,0.4122,0.4599,0.4993,0.5124,0.5162,0.5292,0.5422,0.5552,0.5684,0.5806,0.588,0.5946,0.6074,0.6256,0.6695,0.8139,0.8983,0.852,1.0639,1.274,1.427,1.608,1.7443,1.8025,1.7613,1.6655,1.5127,1.4082,1.3323,1.2845,1.3265,1.3908,1.4784,1.5548,1.5916,1.5867,1.5458,1.4713,1.3743,1.3197,1.2762,0.7621,0.8626,0.9485,0.9572,1.0228,1.0574,0.9554,0.8901,0.8364,0.7866,0.7887,0.7919,0.7703,0.6776,0.6691,0.8564,0.8303,0.8558,1.042,0.9154,0.8366,0.9156,0.5982,0.0,0.0,0.0,0.0,1.7072,1.8481,1.8982,1.9061,2.2674,2.4817,2.5042,2.4764,2.3647,2.1646,1.9631,1.705,1.385,0.6917,0.2223,-0.0435,-0.2587,-0.2726,-0.1288,-0.1826,-0.1828,-0.1397,-0.1104,-0.2201,-0.3877,-0.2613,-0.2947,-0.3941,-0.267,-0.1698,-0.0983,-0.0347,0.059,0.1524,0.2012,0.251,0.2885,0.2872,0.2907,0.2935,0.2962,0.3079,0.3355,0.4096,0.4415,0.4749,0.5293,0.5564,0.5597,0.5653,0.5708,0.5841,0.5803,0.567,0.5539,0.5606,0.6145,0.7207,0.9198,0.9539,0.9686,1.0306,1.1838,1.3375,1.4449,1.6242,1.7702,1.8488,1.7311,1.6163,1.5216,1.3757,1.2584,1.18,1.301,1.3755,1.3904,1.5035,1.5626,1.5672,1.4928,1.4288,1.364,1.2876,1.255,0.851,0.9345,1.006,1.022,1.0478,1.043,0.9327,0.8633,0.8076,0.7569,0.7791,0.7977,0.7621,0.7376,0.7713,0.9308,0.935,0.9648,1.1078,0.9807,0.9145,1.0316,0.8008,0.9075,0.0,0.0,0.0,1.6032,1.624,1.6395,1.7566,2.2161,2.4886,2.5091,2.2627,2.067,1.9345,1.5713,1.1799,0.7587,0.3037,0.0,-0.1505,-0.2498,-0.2169,-0.0896,-0.1681,-0.1793,-0.1287,-0.1228,-0.2554,-0.4474,-0.3161,-0.355,-0.4608,-0.293,-0.1842,-0.0998,0.0176,0.1088,0.1823,0.2244,0.2694,0.2961,0.2924,0.2901,0.2809,0.2905,0.309,0.3514,0.4276,0.468,0.5014,0.5526,0.5789,0.5902,0.5879,0.5773,0.5739,0.5781,0.5678,0.5556,0.558,0.6502,0.8113,1.0265,1.0205,1.0351,1.1626,1.2534,1.3586,1.4953,1.6404,1.7652,1.8373,1.6986,1.5777,1.4923,1.3243,1.2133,1.1919,1.2735,1.3341,1.3714,1.4645,1.5188,1.5024,1.3927,1.3285,1.3098,1.2441,1.2005,1.0401,1.0661,1.0835,1.1536,1.1401,1.0741,0.9383,0.8866,0.8579,0.8213,0.8368,0.8378,0.0,0.0,0.9419,0.9999,1.0687,1.1437,1.2244,1.0288,0.8912,0.0,0.0,0.0,0.0,0.0,0.0,1.7923,0.0,1.561,1.8712,2.2085,2.4161,2.4663,1.8657,1.6874,1.9927,1.0883,0.542,0.3657,0.0991,-0.0055,0.0279,-0.1498,-0.1722,-0.0727,-0.0896,-0.1122,-0.1346,-0.2011,-0.3222,-0.4652,-0.4948,-0.512,-0.4971,-0.3757,-0.2408,-0.1003,0.0473,0.1415,0.2064,0.226,0.2632,0.2905,0.2776,0.2595,0.2473,0.2536,0.2992,0.3597,0.4131,0.4838,0.5478,0.5607,0.5792,0.5911,0.5891,0.5618,0.5331,0.5456,0.567,0.5863,0.5784,0.7155,0.8765,0.9944,1.0123,1.0791,1.2581,1.2612,1.3356,1.5494,1.6535,1.7206,1.7625,1.645,1.528,1.4253,1.243,1.1919,1.3003,1.246,1.278,1.4184,1.4506,1.4504,1.4062,1.2714,1.1959,1.2005,1.1686,1.1253,1.0939,1.1334,1.1445,1.06,1.0699,1.0861,1.0185,0.983,0.9965,1.103,1.1212,1.1098,1.0983,0.0,0.0,1.216,1.1447,0.0,1.2688,1.1193,0.0,1.1509,0.0,0.669,1.1636,0.5622,0.0,0.0,0.4764,0.3977,0.384,0.6466,0.8411,0.9377,0.7316,0.6062,0.58,0.273,0.1517,0.2174,0.1448,0.0446,-0.0728,-0.1004,-0.1005,-0.0896,-0.1849,-0.1792,-0.1118,-0.2443,-0.3865,-0.512,-0.4805,-0.5163,-0.5624,-0.3663,-0.2355,-0.1385,0.0063,0.0891,0.1293,0.1519,0.1738,0.1892,0.1737,0.1777,0.1888,0.2011,0.2506,0.3161,0.3799,0.4424,0.5052,0.5473,0.5946,0.6218,0.5791,0.5667,0.5561,0.5233,0.5447,0.5704,0.6117,0.6611,0.7437,0.8685,0.8667,0.9689,1.2698,1.3012,1.3517,1.512,1.6192,1.6853,1.7049,1.578,1.468,1.4073,1.2766,1.2073,1.2174,1.2526,1.2866,1.3132,1.3702,1.3542,1.2871,1.2767,1.2223,1.135,1.1385,1.1342,1.1137,1.1395,1.1454,1.0467,1.0414,1.0524,1.0186,1.0351,1.0918,1.1971,1.2726,1.3191,1.3197,1.3168,1.3505,0.0,0.0,0.0,1.4218,1.3266,1.3221,0.0,0.9933,0.0,1.0742,0.4042,-0.1052,0.0,-0.0676,-0.0038,-0.1116,0.1493,0.3526,0.465,0.2259,0.0065,-0.1837,-0.1842,-0.1075,0.0502,0.0167,-0.0334,-0.1006,-0.1062,-0.1006,-0.0838,0.0,-0.1343,-0.0447,-0.2329,-0.3698,-0.4566,-0.4969,-0.5361,-0.5526,-0.3854,-0.2593,-0.1549,-0.0653,-0.0066,0.0461,0.107,0.1424,0.1583,0.1415,0.1453,0.1715,0.1986,0.2563,0.3214,0.3917,0.4462,0.4943,0.5314,0.5615,0.5801,0.5323,0.5155,0.5015,0.4818,0.5086,0.5403,0.5743,0.6494,0.7184,0.7749,0.7974,0.9092,1.1965,1.2387,1.3046,1.4926,1.5826,1.6218,1.6075,1.5118,1.4243,1.376,1.2519,1.2037,1.2606,1.2376,1.2592,1.3162,1.3277,1.2994,1.2219,1.2232,1.1577,1.0476,1.0763,1.0731,1.1224,1.1215,1.1155,1.0729,1.0347,1.0097,1.0008,1.0872,1.1832,1.2403,1.3854,1.4994,1.4852,1.6197,1.7128,1.6533,0.0,1.7023,1.5993,1.561,1.6306,1.8689,1.2278,0.8409,1.03,0.2516,-0.4123,-0.7649,-0.3592,-0.1387,-0.2348,-0.0025,0.1897,0.3107,-0.088,-0.3871,-0.5558,-0.4426,-0.303,-0.1385,-0.1885,-0.1832,-0.1225,-0.1618,-0.1451,-0.078,0.0,0.0,0.028,-0.2054,-0.3097,-0.3476,-0.523,-0.5638,-0.5115,-0.4209,-0.3028,-0.1756,-0.1467,-0.0942,-0.027,0.0811,0.1238,0.1409,0.1307,0.134,0.1598,0.2182,0.2823,0.345,0.4086,0.456,0.4902,0.502,0.506,0.5041,0.481,0.445,0.42,0.4256,0.4659,0.5044,0.5142,0.6136,0.6981,0.6868,0.7416,0.8523,1.052,1.1159,1.2389,1.4671,1.5331,1.5364,1.4967,1.4505,1.4021,1.362,1.2196,1.2096,1.3681,1.2298,1.2197,1.3583,1.2999,1.2441,1.1787,1.1236,1.059,0.985,0.9984,0.996,1.1826,1.1452,1.1015,1.0801,1.0422,1.0352,1.1369,1.2351,1.3565,1.5419,1.6606,1.72,1.673,1.7359,1.7544,1.6368,1.6781,1.6978,1.6233,1.637,1.7113,0.0,0.9307,0.4216,0.7973,-0.1015,0.0,0.0,0.0,-1.0096,-1.2287,-1.3155,-1.2692,-1.0798,-1.1267,-1.0657,-0.8719,-0.7401,-0.5818,-0.3866,-0.3232,-0.2925,-0.2896,-0.2834,-0.2227,-0.1228,-0.1673,0.0,0.0616,-0.2213,-0.3037,-0.2715,-0.547,-0.6067,-0.5363,-0.4725,-0.3637,-0.2403,-0.1745,-0.101,-0.0271,0.0069,0.0349,0.0495,0.0519,0.0905,0.137,0.1639,0.2276,0.2994,0.3372,0.3873,0.4385,0.4731,0.4992,0.5152,0.4851,0.4613,0.4442,0.4369,0.4459,0.4543,0.4621,0.4852,0.5167,0.5255,0.58,0.6746,0.8215,0.9763,1.1561,1.3521,1.4396,1.4735,1.4761,1.443,1.4315,1.4388,1.3321,1.3086,1.4014,1.2898,1.2554,1.3246,1.2188,1.1341,1.0911,1.0457,1.02,1.0014,1.0273,1.078,1.2786,1.2006,1.1141,1.0873,1.0594,1.0751,1.2023,1.3294,1.4704,1.653,1.7557,1.8033,1.7822,1.807,1.8103,1.7506,1.7826,1.8037,1.7809,1.7666,1.7924,1.8853,0.9493,0.3569,0.0,-0.3857,0.0,0.0,0.0,-1.4032,-1.5904,-1.623,-1.5624,-1.4052,-1.3393,-1.2129,-1.0153,-0.9089,-0.7697,-0.6014,-0.5247,-0.4685,-0.4223,-0.4113,-0.3503,-0.2617,-0.245,0.0,-0.0391,-0.2437,-0.3154,-0.3113,-0.5174,-0.5651,-0.5175,-0.4714,-0.3845,-0.276,-0.2185,-0.1511,-0.0829,-0.0426,0.0,0.0288,0.0449,0.0917,0.1548,0.1957,0.2534,0.3122,0.3482,0.3852,0.4161,0.4424,0.4257,0.4158,0.4117,0.3985,0.3832,0.3713,0.3815,0.3799,0.3725,0.3863,0.4083,0.446,0.4958,0.5736,0.723,0.8796,1.0473,1.2326,1.3429,1.4124,1.4248,1.4427,1.4459,1.4395,1.3573,1.3252,1.391,1.2932,1.2602,1.3028,1.2046,1.1236,1.0692,1.0249,0.9894,0.9603,1.0626,1.1021,1.3557,1.2433,1.1205,1.0849,1.0608,1.0848,1.223,1.362,1.5061,1.6641,1.7719,1.8413,1.8501,1.8684,1.881,1.8757,1.8955,1.9151,1.9146,1.8578,1.7956,0.0,0.9718,0.0,0.1102,0.0,0.0,0.0,0.0,0.0,-1.7182,-1.6469,-1.554,-1.4484,-1.3836,-1.2867,-1.1532,-1.0656,-0.9482,-0.7949,-0.7281,-0.6352,-0.5273,-0.5226,-0.4618,-0.3671,-0.3058,0.0,0.0,-0.25,-0.3178,-0.3551,-0.4775,-0.5199,-0.5099,-0.471,-0.3991,-0.2993,-0.2516,-0.1898,-0.1197,-0.0582,-0.0073,0.0369,0.0606,0.1161,0.1887,0.2448,0.2962,0.3417,0.3782,0.3928,0.4002,0.4092,0.3748,0.3463,0.3597,0.3487,0.337,0.3229,0.3238,0.3117,0.2816,0.2936,0.3361,0.3757,0.4367,0.5145,0.6617,0.7997,0.9468,1.1162,1.2646,1.3601,1.3668,1.4196,1.4395,1.4183,1.3551,1.3337,1.3723,1.2889,1.2658,1.2886,1.1896,1.124,1.0911,1.037,0.9906,0.9836,1.1024,1.1413,1.3694,1.2299,1.0884,1.0667,1.0211,1.0238,1.203,1.3063,1.4127,1.5842,1.7508,1.8707,1.8833,1.9457,1.98,1.932,1.9413,1.9416,1.9061,1.8242,1.6208,1.23,0.0,0.0,-0.5036,0.0,0.0,0.0,0.0,0.0,-1.796,-1.7813,-1.7342,-1.6632,-1.6712,-1.5915,-1.4193,-1.3097,-1.1657,-0.9862,-0.8567,-0.7165,-0.5719,-0.595,-0.5062,-0.3342,-0.3279,0.0,0.0,-0.2227,-0.2776,-0.2917,-0.4581,-0.5318,-0.5408,-0.5086,-0.4309,-0.3285,-0.273,-0.1857,-0.0848,-0.0223,0.0226,0.0606,0.0777,0.1488,0.2285,0.282,0.3083,0.336,0.3759,0.3806,0.3832,0.3916,0.4053,0.4148,0.4266,0.4286,0.4013,0.3532,0.3137,0.2816,0.2226,0.2381,0.2563,0.2963,0.391,0.4877,0.5621,0.7164,0.8652,0.9949,1.2114,1.3374,1.3109,1.357,1.3789,1.3663,1.3613,1.3517,1.3608,1.329,1.3091,1.2886,1.1459,1.1021,1.1459,1.0366,1.0457,1.1643,1.1764,1.2643,1.4975,1.3134,1.1248,1.0661,1.0173,1.0388,1.2467,1.3359,1.4352,1.6453,1.7529,1.8117,1.8171,1.8896,1.9146,1.8084,1.8183,1.8402,1.8398,1.7617,1.5078,0.9684,0.588,0.0,0.0,0.0,0.0,0.0,0.0,0.0,-2.0464,-1.896,-1.8186,-1.8385,-1.7598,-1.6566,-1.5283,-1.385,-1.2205,-1.0417,-0.9277,-0.7881,-0.6293,-0.6211,-0.55,-0.4229,-0.3901,0.0,0.0,-0.2965,-0.3127,-0.3421,-0.4299,-0.4733,-0.4919,-0.4859,-0.432,-0.3578,-0.3029,-0.1951,-0.0865,-0.0299,0.0459,0.1239,0.1408,0.1883,0.2444,0.2826,0.3118,0.3423,0.3533,0.3719,0.3798,0.3919,0.4066,0.4212,0.4697,0.4379,0.399,0.383,0.3184,0.2609,0.2337,0.24,0.2681,0.3556,0.4012,0.4842,0.6091,0.7511,0.8795,0.9905,1.1649,1.2946,1.3461,1.3923,1.4266,1.4418,1.38,1.3496,1.3451,1.2793,1.2099,1.1573,1.0692,1.0363,1.0802,1.072,1.0978,1.1465,1.2393,1.3298,1.6079,1.4277,1.238,1.1741,1.1378,1.171,1.3609,1.4338,1.5078,1.6728,1.7431,1.7745,1.7767,1.8457,1.869,1.7668,1.7153,1.7154,1.7941,1.5247,1.1856,0.0,0.0,0.0,0.0,0.0,0.0,0.0,0.0,0.0,0.0,-1.9561,-1.8668,-1.948,-1.7879,-1.6612,-1.5867,-1.371,-1.1893,-1.0578,-0.9383,-0.8037,-0.6576,-0.6423,-0.5954,-0.5205,0.0,0.0,0.0,-0.3607,-0.3682,-0.4339,-0.421,-0.4113,-0.4094,-0.4217,-0.3808,-0.3124,-0.2479,-0.1545,-0.0591,0.0076,0.0855,0.1664,0.198,0.2298,0.255,0.2856,0.3103,0.3353,0.3578,0.3692,0.3786,0.4126,0.4268,0.442,0.4808,0.4399,0.3823,0.3777,0.3009,0.231,0.2233,0.231,0.2696,0.3731,0.4117,0.4905,0.6505,0.7939,0.9164,1.0175,1.1358,1.2404,1.3193,1.3872,1.4198,1.4275,1.3683,1.3301,1.3179,1.2352,1.1518,1.0773,1.028,1.0036,1.0363,1.0835,1.1214,1.1604,1.2836,1.3892,1.6729,1.5649,1.4409,1.4132,1.4171,1.4529,1.5551,1.6029,1.6273,1.6308,1.7096,1.7812,1.789,1.8456,1.8851,1.8701,1.6744,1.5918,1.7913,1.0599,0.5707,0.0,0.0,0.0,0.0,0.0,0.0,0.0,0.0,0.0,0.0,-1.9455,-1.8843,-1.9783,-1.7641,-1.6347,-1.5988,-1.2617,-1.0768,-1.0476,-0.8758,-0.7425,-0.6514,-0.6576,-0.6422,0.0,0.0,0.0,0.0,-0.4015,-0.4164,-0.5849,-0.4374,-0.3546,-0.3151,-0.3237,-0.2543,-0.1459,-0.0898,-0.0378,0.0228,0.1011,0.1433,0.1786,0.2437,0.2601,0.2695,0.2926,0.3123,0.3314,0.3758,0.3821,0.3866,0.4506,0.4882,0.5039,0.4756,0.4357,0.383,0.323,0.2599,0.2023,0.1704,0.1889,0.2281,0.3211,0.4112,0.5219,0.6714,0.8388,0.9731,1.0573,1.1442,1.2031,1.2157,1.2866,1.3172,1.2685,1.2827,1.2924,1.2899,1.2361,1.1705,1.106,1.056,1.0476,1.0692,1.0476,1.1011,1.2324,1.3202,1.4682,1.7447,1.6427,1.5367,1.5,1.484,1.5026,1.5937,1.5771,1.5606,1.6287,1.7126,1.7566,1.7038,1.8588,1.9268,1.7248,1.6834,1.5685,1.2564,0.0,0.0,0.0128,0.0,0.0,0.0,0.0,0.0,0.0,0.0,0.0,0.0,-1.9841,-1.9311,-1.9195,-1.7114,-1.5555,-1.4569,-1.2658,-1.0944,-0.9456,-0.8889,-0.7746,-0.6261,-0.6643,0.0,0.0,0.0,0.0,0.0,-0.4387,-0.4159,-0.4477,-0.4066,-0.3153,-0.2152,-0.2319,-0.1616,-0.0597,-0.0226,0.0302,0.0989,0.1427,0.1777,0.2118,0.2734,0.2747,0.2759,0.299,0.3246,0.3507,0.3919,0.3952,0.4058,0.4762,0.4971,0.4975,0.4819,0.4157,0.35,0.3013,0.228,0.1754,0.1983,0.2267,0.2825,0.3733,0.4795,0.5979,0.7384,0.845,0.9431,1.0365,1.0915,1.1787,1.2871,1.3078,1.3372,1.3851,1.3466,1.3128,1.3058,1.1833,1.0795,0.9833,0.9335,0.92,0.964,0.9976,1.1138,1.3058,1.3712,1.4595,1.8331,1.7609,1.6959,1.6799,1.6754,1.6814,1.7131,1.682,1.6367,1.5986,1.6366,1.6676,1.6436,1.613,1.6177,1.699,1.5142,1.3356,0.0,0.0,0.0,0.0,0.0,0.0,0.0,0.0,0.0,0.0,0.0,0.0,0.0,-1.8983,-1.8148,-1.7214,-1.5776,-1.45,-1.3472,-1.1531,-1.0007,-0.8861,-0.8338,-0.7489,-0.6462,-0.6712,0.0,0.0,0.0,0.0,0.0,-0.4624,-0.4244,-0.442,-0.3727,-0.2558,-0.138,-0.1599,-0.0812,0.0226,0.0453,0.0913,0.1467,0.1685,0.2055,0.2513,0.3085,0.3086,0.308,0.3233,0.3459,0.3774,0.4188,0.4316,0.4434,0.5078,0.5092,0.4895,0.4381,0.3788,0.3102,0.2592,0.1959,0.1742,0.2174,0.2569,0.3229,0.4397,0.5429,0.6705,0.8158,0.9004,0.976,1.0492,1.0989,1.1806,1.2846,1.2985,1.3357,1.4298,1.3868,1.3466,1.3413,1.2249,1.1005,0.9699,0.937,0.9086,0.9062,1.0085,1.1429,1.3245,1.3834,1.4422,0.0,1.9031,1.8952,1.9203,1.9477,1.9503,1.8862,1.8766,0.0,1.56,1.5233,1.5564,1.626,1.2153,1.0868,1.771,1.231,0.0,0.0,0.3976,0.0,0.0,0.0,0.0,0.0,0.0,0.0,0.0,0.0,0.0,0.0,-1.6998,-1.5641,-1.421,-1.3672,-1.3111,-1.2507,-0.9565,-0.825,-0.8637,-0.7439,-0.6944,-0.7086,-0.6989,0.0,0.0,0.0,0.0,0.0,-0.4803,-0.4449,-0.5289,-0.333,-0.1851,-0.0804,-0.0877,-0.0149,0.0987,0.1141,0.1312,0.1578,0.1778,0.2269,0.2886,0.3388,0.3537,0.3584,0.3568,0.3764,0.4119,0.4578,0.4738,0.4993,0.5366,0.5242,0.4774,0.3636,0.324,0.2823,0.1922,0.1639,0.1863,0.2381,0.2686,0.3484,0.5022,0.6108,0.7256,0.8845,0.9859,1.051,1.0843,1.1531,1.1995,1.2139,1.2467,1.3091,1.4061,1.4056,1.3929,1.3805,1.3213,1.2069,1.052,1.0297,0.9806,0.8954,1.0516,1.1811,1.2912,1.3474,1.4162,1.9145,0.0,1.9764,1.9992,2.0122,2.0,0.0,1.8401,1.7665,1.7079,1.6967,1.7224,1.8099,1.375,1.1965,1.7907,0.0,0.0,0.0,0.0,0.0,0.0,0.0,0.0,0.0,0.0,0.0,0.0,0.0,0.0,0.0,-1.4881,-1.3613,-1.2004,-1.0943,-1.0371,-1.0329,-0.9232,-0.8577,-0.8395,-0.8366,-0.8191,-0.7847,-0.8158,0.0,0.0,0.0,0.0,-0.6568,-0.5439,-0.4403,-0.3499,-0.2547,-0.1294,0.0075,-0.0077,0.0387,0.1169,0.1032,0.0872,0.0949,0.14,0.2148,0.2939,0.3223,0.3575,0.3833,0.3851,0.43,0.4761,0.4751,0.5064,0.5286,0.5083,0.4912,0.4506,0.3705,0.2877,0.2126,0.1747,0.1315,0.1199,0.2026,0.2777,0.3784,0.5108,0.6342,0.7598,0.8736,0.9511,1.012,1.033,1.0682,1.1164,1.1792,1.2598,1.3355,1.4072,1.414,1.4045,1.3934,1.2748,1.1733,1.0787,1.0237,1.0037,0.9956,1.1102,1.1889,1.2401,1.2696,1.3017,1.9095,1.9511,2.0092,2.0291,2.0046,1.9647,1.9192,1.8014,1.6992,1.697,1.6668,1.6778,1.8023,1.3826,1.1093,0.0,0.9317,0.0,0.0,0.0,0.0,0.0,0.0,0.0,0.0,0.0,0.0,0.0,0.0,0.0,0.0,-1.3626,-1.2596,-1.0935,-0.9924,-0.9363,-0.9235,-0.8583,-0.8257,-0.8207,-0.8299,-0.8334,-0.8339,-0.87,-0.856,0.0,0.0,0.0,-0.5887,-0.5352,-0.4146,-0.2532,-0.1808,-0.0867,0.0076,0.0077,0.0392,0.0798,0.0479,0.0322,0.0408,0.1182,0.1746,0.2331,0.2777,0.3047,0.3317,0.3767,0.4212,0.4495,0.441,0.4652,0.4895,0.4703,0.4409,0.3966,0.3342,0.2788,0.2221,0.1719,0.1604,0.1795,0.2616,0.3665,0.488,0.6236,0.7547,0.8751,0.9361,0.9867,1.0269,1.0294,1.0567,1.0903,1.1146,1.2261,1.3148,1.3706,1.392,1.4034,1.3815,1.3345,1.2542,1.1524,1.0748,1.0494,1.0883,1.1308,1.1758,1.2107,1.2168,1.2431,1.9124,1.9619,1.9959,1.9115,1.828,1.7665,1.7595,1.6385,1.551,1.6431,1.6131,1.6146,1.7636,1.2558,0.0,0.0,0.0,0.0,0.0,0.0,0.0,0.0,0.0,0.0,0.0,0.0,0.0,0.0,0.0,0.0,0.0,-1.2524,-1.173,-1.034,-0.9619,-0.9105,-0.879,-0.8101,-0.7932,-0.8305,-0.8122,-0.8327,-0.8841,-0.9009,-0.8883,0.0,0.0,0.0,-0.5535,-0.4958,-0.3618,-0.1889,-0.1055,-0.0508,-0.0152,-0.0076,0.0078,0.0081,-0.0318,-0.0326,0.0,0.0864,0.1234,0.1435,0.2151,0.233,0.242,0.3241,0.3692,0.3886,0.3783,0.3957,0.4229,0.4118,0.3791,0.3419,0.2966,0.2794,0.2512,0.1879,0.2092,0.2613,0.3425,0.4606,0.5887,0.7422,0.8758,0.978,1.0223,1.0539,1.0703,1.0452,1.0779,1.0854,1.0649,1.1523,1.2361,1.3048,1.366,1.3758,1.3537,1.3973,1.3655,1.2324,1.162,1.1502,1.1732,1.1524,1.1647,1.2085,1.1773,1.2012,1.9287,1.9759,1.9103,1.3503,1.1903,1.1539,1.0876,1.0372,1.1664,1.7387,1.8529,1.8737,1.9548,0.9259,0.3915,0.0,0.0,0.0,0.0,0.0,0.0,0.0,0.0,0.0,0.0,0.0,0.0,0.0,0.0,0.0,0.0,-1.0592,-0.9762,-0.9248,-0.8594,-0.8367,-0.8731,-0.8738,-0.8898,-0.9128,-0.9343,-0.9672,-0.9954,-0.9918,-0.9835,0.0,0.0,-0.7795,-0.5978,-0.4879,-0.3029,-0.0982,-0.0646,-0.0148,0.0381,-0.0079,-0.0319,-0.0554,-0.0966,-0.0917,-0.0519,0.0,0.0441,0.0987,0.1705,0.1614,0.135,0.1649,0.2759,0.36,0.3016,0.3559,0.4022,0.3501,0.3324,0.3228,0.3118,0.282,0.242,0.2312,0.2189,0.2279,0.3115,0.3924,0.514,0.7294,0.8468,0.9461,1.0531,1.088,1.0997,1.0757,1.0564,1.056,1.0826,1.0826,1.1151,1.1856,1.2743,1.3179,1.3072,1.3295,1.3392,1.3131,1.2942,1.2901,1.3133,1.2715,1.2477,1.2443,1.1889,1.1718,1.9195,1.9787,1.8929,1.2302,1.2536,1.4016,1.256,0.9349,0.765,1.1071,0.9093,0.7101,0.8177,0.0,0.3517,0.4761,0.0,0.0,0.0,0.0,0.0,0.0,0.0,0.0,0.0,0.0,0.0,0.0,0.0,0.0,0.0,0.0,-0.9248,-0.8724,-0.8623,-0.8507,-0.8443,-0.886,-0.9119,-0.9207,-0.9333,-0.9539,-0.9779,-1.0176,-0.9904,-0.9124,0.0,-0.7891,-0.5413,-0.4744,-0.3144,-0.1032,-0.0646,-0.0293,-0.015,-0.0637,-0.097,-0.1127,-0.1167,-0.1026,-0.0784,0.0,0.0267,0.0359,0.0718,0.0718,0.045,0.0092,0.1017,0.2047,0.1727,0.2141,0.2658,0.241,0.2522,0.2826,0.2927,0.2826,0.2623,0.2623,0.2607,0.2897,0.3524,0.4759,0.62,0.7803,0.8796,0.9795,1.0597,1.0623,1.0531,1.0424,1.021,1.0174,1.0298,1.0314,1.0824,1.1754,1.2389,1.2876,1.3182,1.3408,1.3749,1.3977,1.3987,1.3803,1.3206,1.294,1.2355,1.1519,1.1423,1.1276,1.9386,1.969,1.8769,1.3794,1.4327,1.5661,1.415,0.9979,0.6411,0.6411,0.4351,0.1686,-0.1165,0.2257,0.0,0.0,0.0,0.0,0.0,0.0,0.0,0.0,0.0,0.0,0.0,0.0,0.0,0.0,0.0,0.0,0.0,0.0,-0.892,-0.8476,-0.8653,-0.8588,-0.8249,-0.8581,-0.8891,-0.9019,-0.9141,-0.9195,-0.9323,-1.0003,-0.9694,-0.8587,-0.9083,-0.7653,-0.4935,-0.449,-0.3142,-0.1284,-0.0857,-0.0737,-0.0904,-0.1276,-0.1475,-0.1496,-0.1117,-0.0959,-0.0791,0.0,0.009,-0.009,-0.009,-0.0181,-0.0454,-0.1211,-0.075,0.0,0.0195,0.0688,0.1188,0.1306,0.1715,0.2119,0.2422,0.2522,0.2522,0.2522,0.2725,0.3128,0.3729,0.5225,0.6819,0.8018,0.9226,1.0025,1.044,1.031,1.0079,0.9871,0.9871,0.97,0.9637,1.0008,1.0539,1.1476,1.2178,1.275,1.3215,1.3602,1.4081,1.4757,1.4783,1.4557,1.3858,1.3327,1.2425,1.124,1.1106,1.1109,2.0292,1.9352,1.8307,1.8086,1.4443,1.0936,1.0901,1.1055,1.0756,0.9168,1.537,1.6366,0.0,0.039,0.0,0.0,0.0,0.0,0.0,0.0,0.0,0.0,0.0,0.0,0.0,0.0,0.0,0.0,0.0,0.0,0.0,0.0,0.0,-0.8311,-0.8114,-0.8059,-0.8273,-0.8036,-0.8222,-0.8803,-0.9194,-0.9227,-0.8971,-0.944,-0.9333,-0.8673,-0.8095,-0.6963,-0.5467,-0.4138,-0.2678,-0.1284,-0.1214,-0.1369,-0.1614,-0.1621,-0.1586,-0.1384,-0.1128,-0.088,-0.0626,-0.0179,-0.0179,-0.036,-0.0367,-0.0739,-0.121,-0.1739,-0.205,-0.2052,-0.1275,-0.0497,0.0201,0.0403,0.0706,0.101,0.1613,0.1714,0.1714,0.1714,0.1916,0.2319,0.3123,0.4427,0.5829,0.7428,0.9023,1.0023,1.004,1.041,1.0327,0.9619,0.9316,0.915,0.9187,0.9867,1.0326,1.0474,1.1587,1.2355,1.2786,1.3407,1.4184,1.5297,1.5127,1.5361,1.6009,1.4313,1.3297,1.2758,1.1548,1.0998,2.038,2.0019,1.9616,1.9591,1.778,1.578,1.4942,1.1958,0.9296,0.9193,0.8517,0.5876,0.0,0.0,0.0,0.0,0.0,0.0,0.0,0.0,0.0,0.0,0.0,0.0,0.0,0.0,0.0,0.0,0.0,0.0,0.0,0.0,0.0,-0.7308,-0.7762,-0.7817,-0.7437,-0.7494,-0.7593,-0.7793,-0.8225,-0.8441,-0.8521,-0.8944,-0.8628,-0.7768,-0.7604,-0.6449,-0.4746,-0.402,-0.2954,-0.1826,-0.1571,-0.1755,-0.203,-0.1706,-0.1589,-0.1477,-0.0782,-0.0528,-0.0448,0.009,-0.009,-0.045,-0.0828,-0.111,-0.1586,-0.2329,-0.2528,-0.2518,-0.2283,-0.1506,-0.0707,-0.0404,0.0101,0.0606,0.101,0.111,0.111,0.1311,0.1412,0.1915,0.3225,0.4327,0.5627,0.7524,0.852,0.9221,0.992,1.0079,0.9985,0.9282,0.9072,0.9065,0.9105,0.9509,1.0039,1.0506,1.1444,1.2145,1.2658,1.3189,1.4007,1.4961,1.5166,1.4917,1.4218,1.3623,1.2693,1.153,1.1202,1.1105,2.0174,1.943,1.8661,1.9511,1.8833,1.8055,1.8388,1.5228,1.1599,0.9372,0.2073,-0.4083,-0.4627,0.0,0.0,0.0,0.0,0.0,0.0,0.0,0.0,0.0,0.0,0.0,0.0,0.0,0.0,0.0,0.0,0.0,0.0,0.0,0.0,0.0,-0.7645,-0.7733,-0.7097,-0.7289,-0.7328,-0.7208,-0.7753,-0.8038,-0.8198,-0.8348,-0.7911,-0.715,-0.7019,-0.5997,-0.4425,-0.3926,-0.3231,-0.2457,-0.2328,-0.2469,-0.2788,-0.2117,-0.1932,-0.184,-0.0696,-0.044,-0.0448,0.009,-0.009,-0.0721,-0.1205,-0.1495,-0.1881,-0.2722,-0.272,-0.2608,-0.2662,-0.2091,-0.1501,-0.1101,-0.0603,0.0,0.0202,0.0303,0.0404,0.0605,0.0807,0.1311,0.2923,0.4024,0.5322,0.7226,0.7829,0.8428,0.9426,0.9426,0.9194,0.8798,0.8596,0.8618,0.8809,0.9248,0.9766,1.0519,1.1187,1.184,1.2454,1.2876,1.3536,1.4281,1.4418,1.412,1.3187,1.3063,1.2295,1.1097,1.1168,1.1354,1.9701,1.7283,1.476,1.7863,1.6716,1.586,1.9975,2.128,1.9067,1.0182,-0.1235,-0.9695,-0.9913,-1.1834,0.0,0.0,0.0,0.0,0.0,0.0,0.0,0.0,0.0,0.0,0.0,0.0,0.0,0.0,0.0,0.0,0.0,0.0,0.0,0.0,-0.7672,-0.7689,-0.7521,-0.7544,-0.744,-0.7219,-0.8018,-0.8185,-0.7912,-0.7657,-0.7313,-0.6954,-0.6234,-0.5498,-0.4709,-0.3941,-0.3393,-0.3102,-0.3325,-0.363,-0.3847,-0.295,-0.2543,-0.2321,-0.0875,-0.0529,-0.0628,-0.0179,-0.0538,-0.1175,-0.1507,-0.1906,-0.2389,-0.2927,-0.2745,-0.2439,-0.2391,-0.2318,-0.2157,-0.1669,-0.1395,-0.1111,-0.0909,-0.0808,-0.0707,-0.0505,-0.0202,0.0505,0.2118,0.3522,0.4822,0.6234,0.7033,0.7832,0.8333,0.8127,0.8028,0.8038,0.7746,0.7846,0.8336,0.9082,0.9714,1.0327,1.1078,1.1518,1.1932,1.2338,1.2876,1.3388,1.2951,1.2946,1.3499,1.2649,1.2221,1.2329,1.1809,1.1788,1.943,1.7446,1.5221,1.4734,1.4541,1.4644,1.5402,1.8162,1.8948,1.3329,0.7382,0.099,-0.6277,0.0,0.0,0.0,0.0,0.0,0.0,0.0,0.0,0.0,0.0,0.0,0.0,0.0,0.0,0.0,0.0,0.0,0.0,0.0,0.0,0.0,-0.7626,-0.7735,-0.7449,-0.752,-0.7491,-0.733,-0.7335,-0.7448,-0.7727,-0.8256,-0.7913,-0.6663,-0.6257,-0.5534,-0.4689,-0.3868,-0.3593,-0.363,-0.3475,-0.3517,-0.3529,-0.2737,-0.2467,-0.2456,-0.1328,-0.0981,-0.1076,-0.0628,-0.0987,-0.1623,-0.1946,-0.252,-0.3091,-0.3251,-0.2759,-0.216,-0.1682,-0.1231,-0.0965,-0.1077,-0.0698,-0.0505,-0.101,-0.1111,-0.101,-0.0707,-0.0606,0.0101,0.2318,0.302,0.4024,0.6134,0.6739,0.7437,0.8528,0.8127,0.7928,0.8528,0.8537,0.8625,0.8914,0.9362,0.9903,1.0536,1.0932,1.1378,1.1922,1.2186,1.2471,1.2623,1.27,1.2419,1.1873,1.2328,1.2226,1.1719,1.2028,1.2191,1.8976,1.7469,1.5534,1.4729,1.3417,1.1608,0.8772,1.3765,0.0,0.0,0.8315,0.2819,-0.642,0.0,0.0,0.0,0.0,0.0,0.0,0.0,0.0,0.0,0.0,0.0,0.0,0.0,0.0,0.0,0.0,0.0,0.0,0.0,0.0,0.0,-0.7588,-0.7683,-0.7553,-0.7589,-0.7579,-0.7463,-0.7609,-0.7678,-0.756,-0.7841,-0.7498,-0.655,-0.5833,-0.5186,-0.4575,-0.3914,-0.3823,-0.4063,-0.3757,-0.3769,-0.3816,-0.2939,-0.2853,-0.2953,-0.1833,-0.1679,-0.1883,-0.1435,-0.1793,-0.2431,-0.2575,-0.3053,-0.3432,-0.3474,-0.2893,-0.2034,-0.148,-0.0752,-0.0287,-0.0581,-0.0493,-0.0499,-0.1299,-0.1399,-0.1299,-0.1099,-0.1005,-0.0303,0.1914,0.2518,0.3321,0.5434,0.6339,0.7042,0.773,0.7431,0.7332,0.7932,0.7896,0.7991,0.847,0.9006,0.9623,1.0408,1.0838,1.1093,1.1492,1.1793,1.1948,1.2023,1.1957,1.1692,1.1128,1.1899,1.2118,1.1597,1.2221,1.2529,1.8465,1.7311,1.5512,1.6076,1.2402,0.7321,0.2235,0.8889,1.4339,0.8037,0.0,-0.0824,-0.8776,0.0,0.0,0.0,0.0,0.0,0.0,0.0,0.0,0.0,0.0,0.0,0.0,0.0,0.0,0.0,0.0,0.0,0.0,0.0,0.0,0.0,-0.7576,-0.7603,-0.7875,-0.7752,-0.768,0.0,-0.845,-0.8389,-0.743,-0.6875,-0.656,-0.6417,-0.517,-0.4525,-0.4468,-0.4093,-0.4072,-0.4384,-0.4155,-0.4291,-0.444,-0.3491,-0.3449,-0.363,-0.2466,-0.243,-0.2868,-0.2422,-0.278,-0.3328,-0.3391,-0.3597,-0.3875,-0.3783,-0.2952,-0.2032,-0.1572,-0.0751,-0.0095,-0.0286,-0.0581,-0.0981,-0.1666,-0.1764,-0.1567,-0.1469,-0.1292,-0.0603,0.1207,0.1909,0.2813,0.4431,0.5729,0.6429,0.6337,0.6337,0.6437,0.6742,0.6353,0.6499,0.7415,0.8223,0.9107,1.0062,1.041,1.0703,1.0801,1.1183,1.1487,1.1487,1.1001,1.0888,1.1057,1.1687,1.1888,1.1878,1.2309,1.2735,1.8488,1.6609,1.3794,1.0882,0.6593,0.3712,0.6243,0.7051,0.5783,0.059,0.3166,0.3163,0.0,0.0,0.0,0.0,0.0,0.0,0.0,0.0,0.0,0.0,0.0,0.0,0.0,0.0,0.0,0.0,0.0,0.0,0.0,0.0,0.0,-0.7359,-0.7285,-0.7549,-0.8335,-0.8088,-0.808,0.0,-0.7937,-0.7565,-0.72,-0.7911,-0.7343,-0.5745,-0.4865,-0.4407,-0.4428,-0.3966,-0.3979,-0.4155,-0.4309,-0.4245,-0.4205,-0.393,-0.3762,-0.3655,-0.3152,-0.3025,-0.3136,-0.3224,-0.3758,-0.4297,-0.4408,-0.4685,-0.4869,-0.4057,-0.3066,-0.1902,-0.0829,-0.047,-0.0286,-0.0095,-0.0387,-0.0879,-0.1444,-0.1728,-0.1728,-0.1248,-0.1155,-0.0679,0.0787,0.1183,0.1882,0.3922,0.4182,0.466,0.5929,0.5734,0.5732,0.6437,0.6931,0.7166,0.7287,0.7955,0.8574,0.9084,0.9545,1.0019,1.0511,1.0946,1.1166,1.0969,1.1025,1.1039,1.083,1.1751,1.2124,1.1958,1.2404,1.27,1.8993,1.7557,1.4452,0.8629,0.0,0.3641,0.3276,0.2394,0.108,-0.101,0.0576,0.0,0.0,0.0,0.0,0.0,0.0,0.0,0.0,0.0,0.0,0.0,0.0,0.0,0.0,0.0,0.0,0.0,0.0,0.0,0.0,-0.5795,-0.6372,-0.7345,-0.6915,-0.7082,-0.794,-0.7461,-0.7412,-0.7952,-0.7596,-0.7162,-0.6611,-0.7057,-0.6467,-0.5168,-0.4543,-0.4231,-0.4231,-0.3686,-0.3686,-0.4079,-0.3995,-0.3997,-0.3934,-0.3951,-0.385,-0.3741,-0.3612,-0.3676,-0.3888,-0.4016,-0.4563,-0.5095,-0.5184,-0.5455,-0.5549,-0.4832,-0.3578,-0.2337,-0.147,-0.0932,-0.0658,-0.0564,-0.0668,-0.1059,-0.1889,-0.1975,-0.1881,-0.1787,-0.1611,-0.1052,0.0097,0.1266,0.2557,0.407,0.4077,0.429,0.5331,0.4732,0.4528,0.5135,0.5585,0.6022,0.6526,0.7238,0.7844,0.8539,0.8973,0.9324,0.962,1.0121,1.0466,1.0858,1.1049,1.0849,1.0166,1.1448,1.1691,1.1187,1.1816,1.2183,1.9352,1.8109,1.4862,0.8116,0.562,0.0,-0.119,-0.2064,-0.1676,-0.1006,0.0,0.0,0.0,0.0,0.0,0.0,0.0,0.0,0.0,0.0,0.0,0.0,0.0,0.0,0.0,0.0,0.0,0.0,0.0,0.0,-0.5379,-0.5645,-0.6248,-0.7135,-0.6544,-0.6552,-0.7272,-0.6647,-0.6613,-0.7202,-0.7053,-0.6584,-0.5986,-0.5588,-0.5183,-0.4642,-0.4276,-0.413,-0.4055,-0.3446,-0.353,-0.3999,-0.3684,-0.3684,-0.3843,-0.3859,-0.3834,-0.3832,-0.4022,-0.4276,-0.4528,-0.4805,-0.5369,-0.5897,-0.5899,-0.6077,-0.6083,-0.5371,-0.4204,-0.3054,-0.2387,-0.1849,-0.148,-0.1387,-0.1405,-0.1603,-0.2405,-0.2211,-0.2026,-0.2487,-0.2153,-0.1423,-0.0379,0.1538,0.3306,0.4188,0.415,0.4198,0.451,0.372,0.3225,0.3831,0.3932,0.4463,0.5558,0.6196,0.6986,0.7903,0.8299,0.8528,0.8726,0.896,0.9531,1.036,1.061,1.0336,0.9541,1.0745,1.1002,1.0329,1.1225,1.1858,1.8534,1.5252,1.1154,0.0,0.3359,-0.15,0.0,0.0,-0.3837,0.0,0.0,0.0,0.0,0.0,0.0,0.0,0.0,0.0,0.0,0.0,0.0,0.0,0.0,0.0,0.0,0.0,0.0,0.0,0.0,0.0,-0.5529,-0.5823,-0.6014,-0.6206,-0.6267,-0.6556,-0.7037,-0.6576,-0.6474,-0.6664,-0.5951,-0.56,-0.5548,-0.5058,-0.4776,-0.4705,-0.4358,-0.4171,-0.4178,-0.3651,-0.3526,-0.3604,-0.3921,-0.3921,-0.3851,-0.4094,-0.3889,-0.3676,-0.4259,-0.4502,-0.4615,-0.5598,-0.6346,-0.6874,-0.6704,-0.6789,-0.6609,-0.4921,-0.4474,-0.4133,-0.2479,-0.2773,-0.3144,-0.2495,-0.2501,-0.2677,-0.2354,-0.2343,-0.2344,-0.2253,-0.1649,-0.0929,-0.0186,0.1117,0.2157,0.2765,0.2682,0.2801,0.3538,0.2996,0.2724,0.323,0.3732,0.4138,0.4554,0.5148,0.5746,0.6559,0.6951,0.7437,0.8432,0.8185,0.8129,0.8168,0.8566,0.9214,0.9815,1.0027,1.0219,1.0301,1.1667,1.248,1.8807,1.7603,1.5507,0.0,0.9089,0.6415,0.6805,0.0,0.0733,0.0,0.0,0.0,0.0,0.0,0.0,0.0,0.0,0.0,0.0,0.0,0.0,0.0,0.0,0.0,0.0,0.0,0.0,0.0,0.0,-0.5882,-0.5618,-0.5887,-0.6111,-0.6227,-0.6324,-0.6471,-0.6666,-0.6157,-0.5992,-0.6007,-0.5471,-0.5185,-0.5256,-0.4902,-0.4737,-0.4659,-0.4548,-0.4375,-0.4009,-0.411,-0.3997,-0.3684,-0.3999,-0.3999,-0.3847,-0.3968,-0.3665,-0.3362,-0.4216,-0.4468,-0.4702,-0.5762,-0.6724,-0.7316,-0.7054,-0.6962,-0.6694,-0.5453,-0.4561,-0.3855,-0.2985,-0.3086,-0.3359,-0.2994,-0.3087,-0.3264,-0.2875,-0.2512,-0.2154,-0.1525,-0.0632,0.0182,0.0909,0.176,0.2444,0.2999,0.2602,0.2557,0.3238,0.2394,0.2019,0.2724,0.3127,0.353,0.3932,0.4535,0.5238,0.5739,0.6239,0.6506,0.6435,0.6412,0.6406,0.6056,0.757,0.7955,0.741,0.8774,0.9457,0.9367,1.1334,1.2505,1.9151,0.0,1.8214,1.4544,1.3046,1.2291,0.0,0.0,0.0,0.0,0.0,0.0,0.0,0.0,0.0,0.0,0.0,0.0,0.0,0.0,0.0,0.0,0.0,0.0,0.0,0.0,0.0,0.0,0.0,-0.6268,-0.5837,-0.5966,-0.6142,-0.6292,-0.6405,-0.634,-0.6217,-0.5599,-0.5343,-0.5381,-0.5043,-0.4974,-0.5105,-0.4873,-0.4819,-0.4899,-0.4874,-0.472,-0.4387,-0.4575,-0.4465,-0.4073,-0.4077,-0.4077,-0.3919,-0.3684,-0.3452,-0.3385,-0.4185,-0.4447,-0.4631,-0.5937,-0.676,-0.7224,-0.6962,-0.6782,-0.6514,-0.545,-0.465,-0.3937,-0.3489,-0.3578,-0.3755,-0.3666,-0.376,-0.3765,-0.3138,-0.2422,-0.1705,-0.0807,0.0179,0.1075,0.1793,0.2299,0.2707,0.3036,0.2692,0.2473,0.2829,0.208,0.1807,0.2521,0.2712,0.3011,0.3527,0.4131,0.4636,0.5037,0.5739,0.5688,0.4799,0.5088,0.4827,0.4139,0.5893,0.627,0.531,0.7337,0.841,0.8601,1.093,1.2476,1.9189,1.7294,0.0,1.2648,1.0714,0.9259,0.0,0.0,0.0,0.0,0.0,0.0,0.0,0.0,0.0,0.0,0.0,0.0,0.0,0.0,0.0,0.0,0.0,0.0,0.0,0.0,0.0,0.0,0.0,-0.6109,-0.6327,-0.6075,-0.5957,-0.6089,-0.645,-0.6274,-0.565,-0.4957,-0.4697,-0.484,-0.4509,-0.464,-0.51,-0.4897,-0.5177,-0.5811,-0.5393,-0.5307,-0.5585,-0.4961,-0.4774,-0.4849,-0.4311,-0.4233,-0.4307,-0.3452,-0.3374,-0.3853,-0.4183,-0.4199,-0.4462,-0.6278,-0.6676,-0.6428,-0.6428,-0.6428,-0.6074,-0.4202,-0.4474,-0.5102,-0.4117,-0.4565,-0.5193,-0.501,-0.4746,-0.4212,-0.2872,-0.1794,-0.0987,-0.0538,0.0358,0.1343,0.2059,0.2333,0.2426,0.2248,0.2234,0.2195,0.2289,0.2329,0.2472,0.3123,0.288,0.2967,0.3522,0.343,0.3732,0.4734,0.5138,0.4995,0.4505,0.461,0.3957,0.222,0.2813,0.3711,0.4963,0.5589,0.684,0.8689,1.0807,1.2648,0.0,0.0,0.0,1.7238,1.4611,1.2098,1.1039,0.0,0.0,0.0,0.0,0.0,0.0,0.0,0.0,0.0,0.0,0.0,0.0,0.0,0.0,0.0,0.0,0.0,0.0,0.0,0.0,0.0,0.0,0.0,-0.6853,-0.6629,-0.6488,-0.6375,-0.676,-0.6578,-0.5799,-0.5196,-0.4957,-0.4957,-0.4761,-0.4761,-0.509,-0.5251,-0.5583,-0.6019,-0.6103,-0.605,-0.5888,-0.6033,-0.5702,-0.5004,-0.4929,-0.4384,-0.368,-0.337,-0.3057,-0.2826,-0.348,-0.3706,-0.3946,-0.5462,-0.5782,-0.5518,-0.5776,-0.5215,-0.4469,-0.3582,-0.3673,-0.3941,-0.3939,-0.4563,-0.501,-0.4474,-0.3988,-0.3437,-0.2505,-0.1345,-0.009,0.1075,0.206,0.2777,0.2867,0.2899,0.2914,0.2698,0.2508,0.2571,0.3049,0.2778,0.2728,0.3417,0.2975,0.2866,0.3324,0.323,0.3432,0.4036,0.4638,0.4194,0.2449,0.2976,0.2354,0.0277,0.0906,0.1888,0.3169,0.4632,0.6382,0.8426,1.0468,1.2328,2.0361,0.0,0.0,0.0,1.6806,1.4233,1.2431,0.0,0.0,0.0,0.0,0.0,0.0,0.0,0.0,0.0,0.0,0.0,0.0,0.0,0.0,0.0,0.0,0.0,0.0,0.0,0.0,0.0,0.0,0.0,-0.7108,-0.6877,-0.6666,-0.6489,-0.6741,-0.6544,-0.5822,-0.5422,-0.5223,-0.5223,-0.4894,-0.4986,-0.5366,-0.56,-0.5969,-0.6542,-0.6725,-0.6656,-0.6489,-0.6743,-0.6402,-0.5702,-0.5395,-0.4851,-0.4073,-0.3682,-0.329,-0.3134,-0.3679,-0.3818,-0.3974,-0.5422,-0.5317,-0.4806,-0.5094,-0.4374,-0.3371,-0.2952,-0.2943,-0.3108,-0.3486,-0.4295,-0.4814,-0.422,-0.3749,-0.3217,-0.2016,-0.0882,0.0266,0.1609,0.2688,0.3497,0.3408,0.3447,0.3372,0.2967,0.2955,0.3112,0.3397,0.3206,0.3245,0.3846,0.321,0.2909,0.3264,0.3071,0.3081,0.34,0.4196,0.3671,0.147,0.2113,0.1507,-0.0648,-0.0091,0.0628,0.1436,0.3833,0.5901,0.777,0.9943,1.1911,0.0,0.0,0.0,0.0,0.0,0.0,1.2837,0.0,0.0,0.0,0.0,0.0,0.0,0.0,0.0,0.0,0.0,0.0,0.0,0.0,0.0,0.0,0.0,0.0,0.0,0.0,0.0,0.0,0.0,-0.6598,-0.7074,-0.6673,-0.6423,-0.6408,-0.642,-0.6148,-0.5617,-0.5491,-0.5428,-0.5428,-0.5027,-0.5167,-0.5928,-0.5931,-0.6455,-0.7286,-0.7228,-0.733,-0.748,-0.6868,-0.6872,-0.7103,-0.5786,-0.5401,-0.5404,-0.4231,-0.4153,-0.4621,-0.4691,-0.4525,-0.4617,-0.5984,-0.5423,-0.4294,-0.4379,-0.3809,-0.3053,-0.2407,-0.2471,-0.2789,-0.2847,-0.3931,-0.4861,-0.4409,-0.4263,-0.3701,-0.1518,-0.0598,0.0087,0.098,0.2237,0.3317,0.3765,0.3857,0.3676,0.3044,0.3373,0.3605,0.3421,0.3786,0.4094,0.4563,0.3555,0.3077,0.3426,0.2766,0.2501,0.3136,0.3824,0.3528,0.1764,0.221,0.1507,-0.037,-0.0181,0.0,0.0,0.3014,0.5296,0.6789,0.9241,1.1512,1.9243,0.0,0.0,0.0,0.0,0.0,1.325,1.1715,0.0,0.0,0.0,0.0,0.0,0.0,0.0,0.0,0.0,0.0,0.0,0.0,0.0,0.0,0.0,0.0,0.0,0.0,0.0,0.0,-0.6977,-0.6951,-0.7086,-0.6929,-0.6974,-0.7326,-0.6609,-0.6214,-0.6152,-0.569,-0.5428,-0.5428,-0.5355,-0.5568,-0.5931,-0.6331,-0.6785,-0.7294,-0.7513,-0.7825,-0.8097,-0.7484,-0.7176,-0.6942,-0.6405,-0.5783,-0.5082,-0.4613,-0.4068,-0.3522,-0.3521,-0.3224,-0.2928,-0.3634,-0.3054,-0.2218,-0.2721,-0.2285,-0.1828,-0.2449,-0.2356,-0.2166,-0.2657,-0.3589,-0.4087,-0.3201,-0.325,-0.3068,-0.1593,-0.1,-0.0167,0.1565,0.2751,0.3479,0.3338,0.3815,0.4013,0.3601,0.3924,0.3999,0.3687,0.3648,0.3667,0.3512,0.2809,0.2519,0.2854,0.2384,0.2212,0.2547,0.3139,0.2549,0.0588,0.125,0.0848,-0.0925,-0.0544,-0.0271,-0.0183,0.1751,0.3694,0.5815,0.9579,1.1859,0.0,0.0,0.0,0.0,0.0,0.0,1.3105,1.1699,1.0134,0.0,0.0,0.0,0.0,0.0,0.0,0.0,0.0,0.0,0.0,0.0,0.0,0.0,0.0,0.0,0.0,0.0,0.0,-0.7125,-0.6993,-0.6998,-0.7111,-0.7165,-0.722,-0.7256,-0.6806,-0.6474,-0.635,-0.5954,-0.5756,-0.5756,-0.5818,-0.6004,-0.6379,-0.6766,-0.7236,-0.778,-0.7901,-0.8025,-0.825,-0.7795,-0.7565,-0.733,-0.6868,-0.6325,-0.5777,-0.5464,-0.4766,-0.399,-0.3912,-0.3365,-0.274,-0.2738,-0.2149,-0.1462,-0.1704,-0.1499,-0.1286,-0.197,-0.2056,-0.2041,-0.2635,-0.3311,-0.351,-0.2627,-0.2686,-0.2518,-0.1307,-0.0733,0.0,0.1362,0.2355,0.3086,0.3394,0.3888,0.4281,0.4318,0.4442,0.4405,0.3823,0.3791,0.3527,0.3059,0.2484,0.2204,0.2321,0.2046,0.1876,0.2008,0.268,0.2305,0.0581,0.095,0.0467,-0.0833,-0.0725,-0.0361,0.0274,0.1472,0.3223,0.541,0.8525,1.0343,0.0,0.0,0.0,0.0,0.0,0.0,1.2742,1.1286,0.918,0.0,0.0,0.0,0.0,0.0,0.0,0.0,0.0,0.0,0.0,0.0,0.0,0.0,0.0,0.0,0.0,-0.7711,-0.73,-0.7182,-0.6864,-0.6794,-0.7121,-0.7384,-0.7282,-0.6793,-0.7073,-0.6872,-0.628,-0.6214,-0.621,-0.621,-0.623,-0.6551,-0.7023,-0.7254,-0.7746,-0.8403,-0.8178,-0.8102,-0.8102,-0.7953,-0.7876,-0.7949,-0.7249,-0.6942,-0.6865,-0.6475,-0.5857,-0.524,-0.5004,-0.4142,-0.3127,-0.266,-0.1985,-0.1372,-0.1213,-0.1233,-0.1423,-0.1423,-0.1841,-0.224,-0.262,-0.2994,-0.3218,-0.2535,-0.2389,-0.2089,-0.0868,-0.016,0.0326,0.0584,0.1449,0.2512,0.355,0.4051,0.4461,0.4905,0.5001,0.4741,0.3937,0.3849,0.3492,0.2777,0.2332,0.1974,0.1705,0.1705,0.1629,0.1478,0.2312,0.2424,0.1235,0.1026,0.0553,-0.0184,-0.0724,-0.0269,0.1076,0.1913,0.3302,0.5223,0.6694,0.7789,0.0,0.0,0.0,0.0,0.0,0.0,1.3116,1.2315,1.0956,0.0,0.0,0.0,0.0,0.0,0.0,0.0,0.0,0.0,0.0,0.0,0.0,0.0,0.0,0.0,0.0,-0.6642,-0.649,-0.6273,-0.6381,-0.6677,-0.7235,-0.7384,-0.7532,-0.7517,-0.7335,-0.7003,-0.6609,-0.6342,-0.621,-0.6214,-0.6487,-0.6806,-0.7237,-0.753,-0.7948,-0.8403,-0.8327,-0.8327,-0.8327,-0.8102,-0.7872,-0.7561,-0.7257,-0.7103,-0.7103,-0.7022,-0.6089,-0.4766,-0.4608,-0.3285,-0.1569,-0.102,-0.0551,-0.0316,-0.0474,-0.1125,-0.188,-0.245,-0.2941,-0.3169,-0.2294,-0.2606,-0.2932,-0.1968,-0.2127,-0.2208,-0.11,-0.0631,-0.0239,0.0326,0.1167,0.1947,0.2539,0.353,0.4365,0.4539,0.487,0.4652,0.3757,0.3314,0.2777,0.1793,0.1614,0.1436,0.1256,0.1256,0.1176,0.1201,0.1758,0.1946,0.1489,0.1391,0.1285,0.1083,0.018,0.0179,0.1074,0.1616,0.2695,0.423,0.5655,0.6644,0.0,0.0,0.0,1.3913,0.0,0.0,0.0,1.1281,0.9708,0.0,0.0,0.0,0.0,0.0,0.0,0.0,0.0,0.0,0.0,0.0,0.0,0.0,0.0,0.0,0.0,-0.6536,-0.6781,-0.6372,-0.649,-0.6794,-0.7418,-0.7682,-0.7772,-0.7717,-0.7661,-0.733,-0.6811,-0.6544,-0.6478,-0.6548,-0.6865,-0.7255,-0.7735,-0.8079,-0.8435,-0.8713,-0.8713,-0.856,-0.8255,-0.8178,-0.7872,-0.7484,-0.7411,-0.718,-0.6872,-0.6872,-0.5857,-0.4377,-0.4142,-0.2973,-0.1334,-0.0707,-0.0396,-0.0319,-0.0315,-0.1029,-0.1995,-0.2553,-0.2792,-0.2866,-0.2363,-0.2431,-0.2508,-0.2041,-0.204,-0.204,-0.1414,-0.1021,-0.0552,0.008,0.0652,0.1333,0.2382,0.3304,0.4144,0.4671,0.4889,0.4652,0.3757,0.3401,0.2776,0.1524,0.1436,0.1251,0.0973,0.106,0.0972,0.0795,0.1338,0.1519,0.1238,0.1172,0.1088,0.1077,0.0448,0.0538,0.1254,0.1253,0.1611,0.233,0.3833,0.4917,0.0,0.0,0.0,0.0,0.0,1.1861,0.0,0.0,0.0,0.0,0.0,0.0,0.0,0.0,0.0,0.0,0.0,0.0,0.0,0.0,0.0,0.0,0.0,0.0,0.0,-0.7188,-0.7571,-0.7014,-0.6993,-0.7313,-0.7921,-0.8063,-0.8016,-0.7777,-0.7987,-0.7661,-0.6946,-0.6876,-0.6876,-0.6946,-0.731,-0.7711,-0.816,-0.8636,-0.8851,-0.9022,-0.9022,-0.8641,-0.8102,-0.8102,-0.7872,-0.7561,-0.7561,-0.7257,-0.6872,-0.6872,-0.5761,-0.4269,-0.419,-0.3019,-0.1546,-0.1237,-0.1097,-0.1031,-0.0934,-0.1392,-0.2088,-0.2553,-0.2482,-0.2259,-0.2415,-0.2344,-0.2196,-0.2275,-0.204,-0.1883,-0.1728,-0.1257,-0.0709,-0.008,0.0323,0.1076,0.24,0.3075,0.3653,0.4448,0.4714,0.4358,0.338,0.338,0.2938,0.1516,0.1338,0.115,0.0693,0.0865,0.0773,0.0421,0.0941,0.1286,0.118,0.1136,0.107,0.107,0.0716,0.0807,0.1435,0.0896,0.0718,0.0897,0.219,0.3367,0.0,0.0,0.0,0.0,1.3149,0.0,0.0,0.0,0.0,0.0,0.0,0.0,0.0,0.0,0.0,0.0,0.0,0.0,0.0,0.0,0.0,0.0,0.0,0.0,0.0,0.0,-0.8623,-0.7976,-0.8041,-0.8461,-0.9228,-0.8507,-0.8133,-0.8156,-0.8172,-0.7847,-0.7204,-0.7138,-0.7138,-0.7143,-0.772,-0.8131,-0.8392,-0.8946,-0.915,-0.9022,-0.9022,-0.8641,-0.8102,-0.8102,-0.7953,-0.7804,-0.7804,-0.7727,-0.765,-0.7876,-0.6688,-0.5136,-0.5358,-0.3802,-0.1837,-0.2777,-0.2853,-0.2715,-0.2933,-0.2645,-0.2354,-0.3008,-0.2834,-0.2353,-0.2429,-0.2315,-0.2275,-0.2431,-0.2199,-0.1885,-0.1883,-0.1256,-0.0477,0.0,0.092,0.1677,0.2107,0.2407,0.2703,0.2873,0.3485,0.3486,0.218,0.2442,0.2442,0.1482,0.1222,0.1039,0.0762,0.0592,0.0422,0.0421,0.0844,0.135,0.1935,0.2326,0.2443,0.2269,0.1422,0.1255,0.1791,0.0896,0.0718,0.1345,0.1978,0.2607,0.0,0.0,0.0,0.0,0.0,0.0,1.036,0.0,0.5449,0.0,0.0,0.0,0.0,0.0,0.0,0.0,0.0,0.0,0.0,0.0,0.0,0.0,0.0,0.0,0.0,0.0,0.0,0.0,0.0,-0.9723,-0.9749,-0.9377,-0.8863,-0.821,-0.8306,-0.8047,-0.7396,-0.7591,-0.7657,-0.7661,-0.8024,-0.8372,-0.8669,-0.8971,-0.9099,-0.9022,-0.8865,-0.8632,-0.825,-0.8178,-0.796,-0.7785,-0.7939,-0.7714,-0.733,-0.7476,-0.6604,-0.5365,-0.5003,-0.4458,-0.3982,-0.4334,-0.4329,-0.4255,-0.4549,-0.4128,-0.3559,-0.3772,-0.3108,-0.242,-0.242,-0.2311,-0.2275,-0.2431,-0.2354,-0.2198,-0.2118,-0.1491,-0.0869,-0.0242,0.0572,0.132,0.1816,0.2209,0.2596,0.2815,0.281,0.2725,0.2555,0.2216,0.1876,0.162,0.1109,0.0677,0.0331,0.0248,0.0082,0.0,0.0728,0.1311,0.1598,0.2122,0.2403,0.252,0.142,0.1166,0.1792,0.0896,0.0538,0.0807,0.1453,0.2088,1.8906,0.0,0.0,0.0,0.0,0.0,0.0,0.0,0.0,0.0,0.0,0.0,0.0,0.0,0.0,0.0,0.0,0.0,0.0,0.0,0.0,0.0,0.0,0.0,0.0,0.0,0.0,-1.112,-1.114,-1.1029,-1.078,-1.0217,-0.9538,-0.8692,-0.8623,-0.8252,-0.7657,-0.7987,-0.8117,-0.8052,-0.8506,-0.879,-0.9011,-0.9411,-0.9473,-0.9241,-0.902,-0.884,-0.8614,-0.8262,-0.8078,-0.8088,-0.8098,-0.7916,-0.7428,-0.711,-0.6505,-0.5789,-0.5018,-0.5342,-0.6143,-0.572,-0.571,-0.5908,-0.5846,-0.5157,-0.4396,-0.4217,-0.3293,-0.2399,-0.2416,-0.2311,-0.2353,-0.2511,-0.2497,-0.2411,-0.2193,-0.1562,-0.0859,-0.0158,0.0483,0.1139,0.1628,0.2017,0.2223,0.2254,0.2078,0.1912,0.1913,0.1581,0.1333,0.1333,0.0917,0.0413,0.0,-0.0081,-0.016,-0.0236,0.0707,0.1197,0.1156,0.1588,0.1948,0.2239,0.115,0.0987,0.1615,0.0718,0.036,0.0452,0.1096,0.173,0.0,0.0,0.0,1.7189,0.0,0.0,0.0,0.0,-0.6275,0.0,0.0,0.0,0.0,0.0,0.0,0.0,0.0,0.0,0.0,0.0,0.0,0.0,0.0,0.0,0.0,0.0,0.0,-1.2743,-1.2351,-1.2391,-1.2869,-1.0991,-0.9838,-0.9758,-0.911,-0.8511,-0.7987,-0.8317,-0.8376,-0.8177,-0.9247,-0.955,-0.9222,-1.0498,-1.0588,-0.983,-0.9669,-0.9494,-0.9187,-0.8317,-0.8301,-0.872,-0.8448,-0.8597,-0.8831,-0.7302,-0.6686,-0.6595,-0.6195,-0.6836,-0.7807,-0.6937,-0.7195,-0.7717,-0.6863,-0.5602,-0.4434,-0.4145,-0.3207,-0.235,-0.2406,-0.2465,-0.2511,-0.2746,-0.262,-0.2285,-0.1951,-0.1155,-0.0307,0.0483,0.1221,0.1709,0.1869,0.1576,0.1087,0.0326,0.0813,0.0813,-0.057,0.0244,0.0895,0.0489,0.0407,0.0323,0.0,-0.0157,-0.0236,0.0,0.055,0.0943,0.0945,0.115,0.1429,0.1683,0.0878,0.0628,0.1076,0.0359,0.0182,0.0462,0.1087,0.1526,0.0,0.0,1.9798,1.7581,0.0,0.0,0.0,0.0,0.0,0.0,0.0,0.0,0.0,0.0,0.0,0.0,0.0,0.0,0.0,0.0,0.0,0.0,0.0,0.0,0.0,0.0,0.0,-1.4119,-1.4033,-1.3917,0.0,-1.2361,-1.1111,-1.0151,-0.9477,-0.8713,-0.7792,-0.8506,-0.8765,-0.8576,-0.9292,-0.9748,-0.9921,-1.0263,-1.0273,-1.0047,-0.9818,-0.9619,-0.9324,-0.9017,-0.8762,-0.8638,-0.8638,-0.856,-0.8377,-0.7373,-0.7319,-0.7683,-0.7692,-0.7579,-0.7577,-0.8226,-0.8619,-0.8812,-0.8608,-0.7623,-0.6392,-0.5516,-0.441,-0.3411,-0.281,-0.2673,-0.268,-0.2911,-0.2662,-0.2208,-0.164,-0.0936,-0.0234,0.0317,0.0716,0.0949,0.1011,0.0547,0.0315,0.0794,0.0078,-0.0389,-0.0158,-0.0555,-0.0714,-0.0159,-0.0477,-0.0713,-0.0629,-0.055,-0.0393,-0.0236,0.0471,0.0864,0.0707,0.081,0.0987,0.1399,0.0945,0.079,0.1054,0.0802,0.0541,0.0182,0.072,0.1175,2.0823,2.0283,0.0,1.7018,1.4172,0.0,0.9826,0.0,0.0,0.0,0.0,0.0,0.0,0.0,0.0,0.0,0.0,0.0,0.0,-0.9642,0.0,0.0,0.0,0.0,0.0,0.0,-1.4401,-1.498,-1.498,-1.4781,0.0,0.0,-1.1665,-1.0593,-0.9544,-0.877,-0.8235,-0.8803,-0.9127,-0.9225,-0.988,-1.0232,-1.0339,-1.0669,-1.0647,-1.0425,-1.0308,-0.9944,-0.9502,-0.9417,-0.9075,-0.8685,-0.8766,-0.8701,-0.8447,-0.7127,-0.6897,-0.7316,-0.7847,-0.7912,-0.7967,-0.8947,-0.9332,-0.9396,-0.9396,-0.8408,-0.7149,-0.6211,-0.4896,-0.363,-0.3103,-0.2806,-0.2729,-0.2908,-0.2664,-0.2208,-0.1563,-0.0858,-0.0233,0.0235,0.039,0.054,0.0683,-0.0224,-0.0668,0.0305,-0.0678,-0.1278,-0.0694,-0.1392,-0.1703,-0.0852,-0.1162,-0.1313,-0.1072,-0.0849,-0.062,-0.0388,0.0235,0.055,0.0393,0.0402,0.057,0.1058,0.0935,0.0868,0.0868,0.1065,0.0811,0.0182,0.054,0.0911]}]]